[[{"header":{"parameterUnit":"m.s-1","parameterCategory":1,"la1":31.0,"la2":29.5877,"lo1":-88.7671,"lo2":-86.6584,"dx":0.0162,"dy":0.0185,"nx":115,"ny":88,"refTime":"2023-02-02T06:00:00:Z","depth":0,"parameterNumber":2,"parameterNumberName":"U-component_of_WINDS"},"data":[0.0,0.0,0.0,0.0,0.0,0.0,0.0,0.0,0.0,0.0,0.0,0.0,0.0,0.0,0.0,0.0,0.0,0.0,0.0,0.0,0.0,0.0,0.0,0.0,0.0,0.0,0.0,0.0,0.0,0.0,0.0,0.0,0.0,0.0,0.0,0.0,0.0,0.0,0.0,0.0,0.0,0.0,0.0,0.0,0.0,0.0,0.0,0.0,0.0,0.0,0.0,0.0,0.0,0.0,0.0,0.0,0.0,0.0,0.0,0.0,0.0,0.0,0.0,0.0,0.0,0.0,0.0,0.0,0.0,0.0,0.0,0.0,0.0,0.0,0.0,0.0,0.0,0.0,0.0,0.0,0.0,0.0,0.0,0.0,0.0,0.0,0.0,0.0,0.0,0.0,0.0,0.0,0.0,0.0,0.0,0.0,0.0,0.0,0.0,0.0,0.0,0.0,0.0,0.0,0.0,0.0,0.0,0.0,0.0,0.0,0.0,0.0,0.0,0.0,0.0,0.0,0.0,0.0,0.0,0.0,0.0,0.0,0.0,0.0,0.0,0.0,0.0,0.0,0.0,0.0,0.0,0.0,0.0,0.0,0.0,0.0,0.0,0.0,0.0,0.0,0.0,0.0,0.0,0.0,0.0,0.0,0.0,0.0,0.0,0.0,0.0,0.0,0.0,0.0,0.0,0.0,0.0,0.0,0.0,0.0,0.0,0.0,0.0,0.0,0.0,0.0,0.0,0.0,0.0,0.0,0.0,0.0,0.0,0.0,0.0,0.0,0.0,0.0,0.0,0.0,0.0,0.0,0.0,0.0,0.0,0.0,0.0,0.0,0.0,0.0,0.0,0.0,0.0,0.0,0.0,0.0,0.0,0.0,0.0,0.0,0.0,0.0,0.0,0.0,0.0,0.0,0.0,0.0,0.0,0.0,0.0,0.0,0.0,0.0,0.0,0.0,0.0,0.0,0.0,0.0,0.0,0.0,0.0,0.0,0.0,0.0,0.0,0.0,0.0,0.0,0.0,0.0,0.0,0.0,0.0,0.0,0.0,0.0,0.0,0.0,0.0,0.0,0.0,0.0,0.0,0.0,0.0,0.0,0.0,0.0,0.0,0.0,0.0,0.0,0.0,0.0,0.0,0.0,0.0,0.0,0.0,0.0,0.0,0.0,0.0,0.0,0.0,0.0,0.0,0.0,0.0,0.0,0.0,0.0,0.0,0.0,0.0,0.0,0.0,0.0,0.0,0.0,0.0,0.0,0.0,0.0,0.0,0.0,0.0,0.0,0.0,0.0,0.0,0.0,0.0,0.0,0.0,0.0,0.0,0.0,0.0,0.0,0.0,0.0,0.0,0.0,0.0,0.0,0.0,0.0,0.0,0.0,0.0,0.0,0.0,0.0,0.0,0.0,0.0,0.0,0.0,0.0,0.0,0.0,0.0,0.0,0.0,0.0,0.0,0.0,0.0,0.0,0.0,0.0,0.0,0.0,0.0,0.0,0.0,0.0,0.0,0.0,0.0,0.0,0.0,0.0,0.0,0.0,0.0,0.0,0.0,0.0,0.0,0.0,0.0,0.0,0.0,0.0,0.0,0.0,0.0,0.0,0.0,0.0,0.0,0.0,0.0,0.0,0.0,0.0,0.0,0.0,0.0,0.0,0.0,0.0,0.0,0.0,0.0,0.0,0.0,0.0,0.0,0.0,0.0,0.0,0.0,0.0,0.0,0.0,0.0,0.0,0.0,0.0,0.0,0.0,0.0,0.0,0.0,0.0,0.0,0.0,0.0,0.0,0.0,0.0,0.0,0.0,0.0,0.0,0.0,0.0,0.0,0.0,0.0,0.0,0.0,0.0,0.0,0.0,0.0,0.0,0.0,0.0,0.0,0.0,0.0,0.0,0.0,0.0,0.0,0.0,0.0,0.0,0.0,0.0,0.0,0.0,0.0,0.0,0.0,0.0,0.0,0.0,0.0,0.0,0.0,0.0,0.0,0.0,0.0,0.0,0.0,0.0,0.0,0.0,0.0,0.0,0.0,0.0,0.0,0.0,0.0,0.0,0.0,0.0,0.0,0.0,0.0,0.0,0.0,0.0,0.0,0.0,0.0,0.0,0.0,0.0,0.0,0.0,0.0,0.0,0.0,0.0,0.0,0.0,0.0,0.0,0.0,0.0,0.0,0.0,0.0,0.0,0.0,0.0,0.0,0.0,0.0,0.0,0.0,0.0,0.0,0.0,0.0,0.0,0.0,0.0,0.0,0.0,0.0,0.0,0.0,0.0,0.0,0.0,0.0,0.0,0.0,0.0,0.0,0.0,0.0,0.0,0.0,0.0,0.0,0.0,0.0,0.0,0.0,0.0,0.0,0.0,0.0,0.0,0.0,0.0,0.0,0.0,0.0,0.0,0.0,0.0,0.0,0.0,0.0,0.0,0.0,0.0,0.0,0.0,0.0,0.0,0.0,0.0,0.0,0.0,0.0,0.0,0.0,0.0,0.0,0.0,0.0,0.0,0.0,0.0,0.0,0.0,0.0,0.0,0.0,0.0,0.0,0.0,0.0,0.0,0.0,0.0,0.0,0.0,0.0,0.0,0.0,0.0,0.0,0.0,0.0,0.0,0.0,0.0,0.0,0.0,0.0,0.0,0.0,0.0,0.0,0.0,0.0,0.0,0.0,0.0,0.0,0.0,0.0,0.0,0.0,0.0,0.0,0.0,0.0,0.0,0.0,0.0,0.0,0.0,0.0,0.0,0.0,0.0,0.0,0.0,0.0,0.0,0.0,0.0,0.0,0.0,0.0,0.0,0.0,0.0,0.0,0.0,0.0,0.0,0.0,0.0,0.0,0.0,0.0,0.0,0.0,0.0,0.0,0.0,0.0,0.0,0.0,0.0,0.0,0.0,0.0,0.0,0.0,0.0,0.0,0.0,0.0,0.0,0.0,0.0,0.0,0.0,0.0,0.0,0.0,0.0,0.0,0.0,0.0,0.0,0.0,0.0,0.0,0.0,0.0,0.0,0.0,0.0,0.0,0.0,0.0,0.0,0.0,0.0,0.0,0.0,0.0,0.0,0.0,0.0,0.0,0.0,0.0,0.0,0.0,0.0,0.0,0.0,0.0,0.0,0.0,0.0,0.0,0.0,0.0,0.0,0.0,0.0,0.0,0.0,0.0,0.0,0.0,0.0,0.0,0.0,0.0,0.0,0.0,0.0,0.0,0.0,0.0,0.0,0.0,0.0,0.0,0.0,0.0,0.0,0.0,0.0,0.0,0.0,0.0,0.0,0.0,0.0,0.0,0.0,0.0,0.0,0.0,0.0,0.0,0.0,0.0,0.0,0.0,0.0,0.0,0.0,0.0,0.0,0.0,0.0,0.0,0.0,0.0,0.0,0.0,0.0,0.0,0.0,0.0,0.0,0.0,0.0,0.0,0.0,0.0,0.0,0.0,0.0,0.0,0.0,0.0,0.0,0.0,0.0,0.0,0.0,0.0,0.0,0.0,0.0,0.0,0.0,0.0,0.0,0.0,0.0,0.0,0.0,0.0,0.0,0.0,0.0,0.0,0.0,0.0,0.0,0.0,0.0,0.0,0.0,0.0,0.0,0.0,0.0,0.0,0.0,0.0,0.0,0.0,0.0,0.0,0.0,0.0,0.0,0.0,0.0,0.0,0.0,0.0,0.0,0.0,0.0,0.0,0.0,0.0,0.0,0.0,0.0,0.0,0.0,0.0,0.0,0.0,0.0,0.0,0.0,0.0,0.0,0.0,0.0,0.0,0.0,0.0,0.0,0.0,0.0,0.0,0.0,0.0,0.0,0.0,0.0,0.0,0.0,0.0,0.0,0.0,0.0,0.0,0.0,0.0,0.0,0.0,0.0,0.0,0.0,0.0,0.0,0.0,0.0,0.0,0.0,0.0,0.0,0.0,0.0,0.0,0.0,0.0,0.0,0.0,0.0,0.0,0.0,0.0,0.0,0.0,0.0,0.0,0.0,0.0,0.0,0.0,0.0,0.0,0.0,0.0,0.0,0.0,0.0,0.0,0.0,0.0,0.0,0.0,0.0,0.0,0.0,0.0,0.0,0.0,0.0,0.0,0.0,0.0,0.0,0.0,0.0,0.0,0.0,0.0,0.0,0.0,0.0,0.0,0.0,0.0,0.0,0.0,0.0,0.0,0.0,0.0,0.0,0.0,0.0,0.0,0.0,0.0,0.0,0.0,0.0,0.0,0.0,0.0,0.0,0.0,0.0,0.0,0.0,0.0,0.0,0.0,0.0,0.0,0.0,-1.4082,0.0,0.0,0.0,0.0,0.0,0.0,0.0,0.0,0.0,0.0,0.0,0.0,0.0,0.0,0.0,0.0,0.0,0.0,0.0,0.0,0.0,0.0,0.0,0.0,0.0,0.0,0.0,0.0,0.0,0.0,0.0,0.0,0.0,0.0,0.0,0.0,0.0,0.0,0.0,0.0,0.0,0.0,0.0,0.0,0.0,0.0,0.0,0.0,0.0,0.0,0.0,0.0,0.0,0.0,0.0,0.0,0.0,0.0,0.0,0.0,0.0,0.0,0.0,0.0,0.0,0.0,0.0,0.0,0.0,0.0,0.0,0.0,0.0,0.0,0.0,0.0,0.0,0.0,0.0,0.0,0.0,0.0,0.0,0.0,0.0,0.0,0.0,0.0,0.0,0.0,0.0,0.0,0.0,0.0,0.0,0.0,0.0,0.0,0.0,0.0,0.0,0.0,0.0,0.0,0.0,0.0,0.0,0.0,0.0,0.0,-1.6288,-1.4166,-1.4082,-1.4082,-1.4082,0.0,0.0,0.0,0.0,0.0,0.0,0.0,0.0,0.0,0.0,0.0,0.0,0.0,0.0,0.0,0.0,0.0,0.0,0.0,0.0,0.0,0.0,0.0,0.0,0.0,0.0,0.0,0.0,0.0,0.0,0.0,0.0,0.0,0.0,0.0,0.0,0.0,0.0,0.0,0.0,0.0,0.0,0.0,0.0,0.0,0.0,0.0,0.0,0.0,0.0,0.0,0.0,0.0,0.0,0.0,0.0,0.0,0.0,0.0,0.0,0.0,0.0,0.0,0.0,0.0,0.0,0.0,0.0,0.0,0.0,0.0,0.0,0.0,0.0,0.0,0.0,0.0,0.0,0.0,0.0,0.0,0.0,0.0,0.0,0.0,0.0,0.0,0.0,0.0,0.0,0.0,0.0,0.0,0.0,0.0,0.0,0.0,0.0,0.0,0.0,0.0,0.0,0.0,0.0,0.0,0.0,0.0,0.0,0.0,0.0,0.0,0.0,-1.4082,-1.4082,-1.4082,0.0,0.0,0.0,0.0,0.0,0.0,0.0,0.0,0.0,0.0,0.0,0.0,0.0,0.0,0.0,0.0,0.0,0.0,0.0,0.0,0.0,0.0,0.0,0.0,0.0,0.0,0.0,0.0,0.0,0.0,0.0,0.0,0.0,0.0,0.0,0.0,0.0,0.0,0.0,0.0,0.0,0.0,0.0,0.0,0.0,0.0,0.0,0.0,0.0,0.0,0.0,0.0,0.0,0.0,0.0,0.0,0.0,0.0,0.0,0.0,0.0,0.0,0.0,0.0,0.0,0.0,0.0,0.0,0.0,0.0,0.0,0.0,0.0,0.0,0.0,0.0,0.0,0.0,0.0,0.0,0.0,0.0,0.0,0.0,0.0,0.0,0.0,0.0,0.0,0.0,0.0,0.0,0.0,0.0,0.0,0.0,0.0,0.0,0.0,0.0,0.0,0.0,0.0,0.0,0.0,0.0,0.0,0.0,0.0,0.0,-1.5296,-1.4124,-1.4082,0.0,-1.4082,0.0,0.0,0.0,0.0,0.0,0.0,0.0,0.0,0.0,0.0,0.0,0.0,0.0,0.0,0.0,0.0,0.0,0.0,0.0,0.0,0.0,0.0,0.0,0.0,0.0,0.0,0.0,0.0,0.0,0.0,0.0,0.0,0.0,0.0,0.0,0.0,0.0,0.0,0.0,0.0,0.0,0.0,0.0,0.0,0.0,0.0,0.0,0.0,0.0,0.0,0.0,0.0,0.0,0.0,0.0,0.0,0.0,0.0,0.0,0.0,0.0,0.0,0.0,0.0,0.0,0.0,0.0,0.0,0.0,0.0,0.0,0.0,0.0,0.0,0.0,0.0,0.0,0.0,0.0,0.0,0.0,0.0,0.0,0.0,0.0,0.0,0.0,0.0,0.0,0.0,0.0,0.0,0.0,0.0,0.0,0.0,0.0,0.0,0.0,0.0,0.0,0.0,0.0,0.0,0.0,0.0,0.0,0.0,0.0,0.0,-1.5171,-1.4124,-1.4082,-1.4082,0.0,0.0,0.0,0.0,0.0,0.0,0.0,0.0,0.0,0.0,0.0,0.0,0.0,0.0,0.0,0.0,0.0,0.0,0.0,0.0,0.0,0.0,0.0,0.0,0.0,0.0,0.0,0.0,0.0,0.0,0.0,0.0,0.0,0.0,0.0,0.0,0.0,0.0,0.0,0.0,0.0,0.0,0.0,0.0,0.0,0.0,0.0,0.0,0.0,0.0,0.0,0.0,0.0,0.0,0.0,0.0,0.0,0.0,0.0,0.0,0.0,0.0,0.0,0.0,0.0,0.0,0.0,0.0,0.0,0.0,0.0,0.0,0.0,0.0,0.0,0.0,0.0,0.0,0.0,0.0,0.0,0.0,0.0,0.0,0.0,0.0,0.0,0.0,0.0,0.0,0.0,0.0,0.0,0.0,0.0,0.0,0.0,0.0,0.0,0.0,0.0,0.0,0.0,0.0,0.0,0.0,0.0,0.0,0.0,0.0,-1.5255,-1.4894,-1.4166,-1.4082,-1.4082,-1.4082,0.0,0.0,0.0,0.0,0.0,0.0,0.0,0.0,0.0,0.0,0.0,0.0,0.0,0.0,0.0,0.0,0.0,0.0,0.0,0.0,0.0,0.0,0.0,0.0,0.0,0.0,0.0,0.0,0.0,0.0,0.0,0.0,0.0,0.0,0.0,0.0,0.0,0.0,0.0,0.0,0.0,0.0,0.0,0.0,0.0,0.0,0.0,0.0,0.0,0.0,0.0,0.0,0.0,0.0,0.0,0.0,0.0,0.0,0.0,0.0,0.0,0.0,0.0,0.0,0.0,0.0,0.0,0.0,0.0,0.0,0.0,0.0,0.0,0.0,0.0,0.0,0.0,0.0,0.0,0.0,0.0,0.0,0.0,0.0,0.0,0.0,0.0,0.0,0.0,0.0,0.0,0.0,0.0,0.0,0.0,0.0,0.0,0.0,0.0,0.0,0.0,0.0,0.0,0.0,0.0,0.0,0.0,0.0,-1.4166,-1.4208,-1.4166,-1.4082,-1.4082,-1.4082,0.0,0.0,0.0,0.0,0.0,0.0,0.0,0.0,0.0,0.0,0.0,0.0,0.0,0.0,0.0,0.0,0.0,0.0,0.0,0.0,0.0,0.0,0.0,0.0,0.0,0.0,0.0,0.0,0.0,0.0,0.0,0.0,0.0,0.0,0.0,0.0,0.0,0.0,0.0,0.0,0.0,0.0,0.0,0.0,0.0,0.0,0.0,0.0,0.0,0.0,0.0,0.0,0.0,0.0,0.0,0.0,0.0,0.0,0.0,0.0,0.0,0.0,0.0,0.0,0.0,0.0,0.0,0.0,0.0,0.0,0.0,0.0,0.0,0.0,0.0,0.0,0.0,0.0,0.0,0.0,0.0,0.0,0.0,0.0,0.0,0.0,0.0,0.0,0.0,0.0,0.0,0.0,0.0,0.0,0.0,0.0,0.0,0.0,0.0,0.0,0.0,0.0,0.0,0.0,0.0,0.0,0.0,0.0,0.0,-1.4082,-1.4082,-1.4082,-1.4082,-1.4082,-1.4082,0.0,0.0,0.0,0.0,0.0,0.0,0.0,0.0,0.0,0.0,0.0,0.0,0.0,0.0,0.0,0.0,0.0,0.0,0.0,0.0,0.0,0.0,0.0,0.0,0.0,0.0,0.0,0.0,0.0,0.0,0.0,0.0,0.0,0.0,0.0,0.0,0.0,0.0,0.0,0.0,0.0,0.0,0.0,0.0,0.0,0.0,0.0,0.0,0.0,0.0,0.0,0.0,0.0,0.0,0.0,0.0,0.0,0.0,0.0,0.0,0.0,0.0,0.0,0.0,0.0,0.0,0.0,0.0,0.0,0.0,0.0,0.0,0.0,0.0,0.0,0.0,0.0,0.0,0.0,0.0,0.0,0.0,0.0,0.0,0.0,0.0,0.0,0.0,0.0,0.0,0.0,0.0,0.0,0.0,0.0,0.0,0.0,0.0,0.0,0.0,0.0,0.0,0.0,0.0,0.0,0.0,0.0,0.0,0.0,-1.4082,0.0,-1.4082,-1.4082,-1.4082,-1.4082,0.0,0.0,0.0,0.0,0.0,0.0,0.0,0.0,0.0,0.0,0.0,0.0,0.0,0.0,0.0,0.0,0.0,0.0,0.0,0.0,0.0,0.0,0.0,0.0,0.0,0.0,0.0,0.0,0.0,0.0,0.0,0.0,0.0,0.0,0.0,0.0,0.0,0.0,0.0,0.0,0.0,0.0,0.0,0.0,0.0,0.0,0.0,0.0,0.0,0.0,0.0,0.0,0.0,0.0,0.0,0.0,0.0,0.0,0.0,0.0,0.0,0.0,0.0,0.0,0.0,0.0,0.0,0.0,0.0,0.0,0.0,0.0,0.0,0.0,0.0,0.0,0.0,0.0,0.0,0.0,0.0,0.0,0.0,0.0,0.0,0.0,0.0,0.0,0.0,0.0,0.0,0.0,0.0,0.0,0.0,0.0,0.0,0.0,0.0,0.0,0.0,0.0,0.0,0.0,0.0,0.0,0.0,0.0,-1.4082,-1.4082,-1.4082,-1.4082,-1.4082,-1.4082,-1.4082,0.0,0.0,0.0,0.0,0.0,0.0,0.0,0.0,0.0,0.0,0.0,0.0,0.0,0.0,0.0,0.0,0.0,0.0,0.0,0.0,0.0,0.0,0.0,0.0,0.0,0.0,0.0,0.0,0.0,0.0,0.0,0.0,0.0,0.0,0.0,0.0,0.0,0.0,0.0,0.0,0.0,0.0,0.0,0.0,0.0,0.0,0.0,0.0,0.0,0.0,0.0,0.0,0.0,0.0,0.0,0.0,0.0,0.0,0.0,0.0,0.0,0.0,0.0,0.0,0.0,0.0,0.0,0.0,0.0,0.0,0.0,0.0,0.0,0.0,0.0,0.0,0.0,0.0,0.0,0.0,0.0,0.0,0.0,0.0,0.0,0.0,0.0,0.0,0.0,0.0,0.0,0.0,0.0,0.0,0.0,0.0,0.0,0.0,0.0,0.0,0.0,0.0,0.0,0.0,0.0,0.0,0.0,0.0,0.0,-1.4082,-1.4082,-1.4082,-1.4082,-1.4082,-1.4082,0.0,0.0,0.0,0.0,0.0,0.0,0.0,0.0,0.0,0.0,0.0,0.0,0.0,0.0,0.0,0.0,0.0,0.0,0.0,0.0,0.0,0.0,0.0,0.0,0.0,0.0,0.0,0.0,0.0,0.0,0.0,0.0,0.0,0.0,0.0,0.0,0.0,0.0,0.0,0.0,0.0,0.0,0.0,0.0,0.0,0.0,0.0,0.0,0.0,0.0,0.0,0.0,0.0,0.0,0.0,0.0,0.0,0.0,0.0,0.0,0.0,0.0,0.0,0.0,0.0,0.0,0.0,0.0,0.0,0.0,0.0,0.0,0.0,0.0,0.0,0.0,0.0,0.0,0.0,0.0,0.0,0.0,0.0,0.0,0.0,0.0,0.0,0.0,0.0,0.0,0.0,0.0,0.0,0.0,0.0,0.0,0.0,0.0,0.0,0.0,0.0,0.0,0.0,0.0,0.0,0.0,0.0,0.0,0.0,-1.4576,-1.4576,-1.4576,-1.4576,-1.4576,-1.4416,-1.4108,0.0,0.0,0.0,0.0,0.0,0.0,0.0,0.0,0.0,0.0,0.0,0.0,0.0,0.0,0.0,0.0,0.0,0.0,0.0,0.0,0.0,0.0,0.0,0.0,0.0,0.0,0.0,0.0,0.0,0.0,0.0,0.0,0.0,0.0,0.0,0.0,0.0,0.0,0.0,0.0,0.0,0.0,0.0,0.0,0.0,0.0,0.0,0.0,0.0,0.0,0.0,0.0,0.0,0.0,0.0,0.0,0.0,0.0,0.0,0.0,0.0,0.0,0.0,0.0,0.0,0.0,0.0,0.0,0.0,0.0,0.0,0.0,0.0,0.0,0.0,0.0,0.0,0.0,0.0,0.0,0.0,0.0,0.0,0.0,0.0,0.0,0.0,0.0,0.0,0.0,0.0,0.0,0.0,0.0,0.0,0.0,0.0,0.0,0.0,0.0,0.0,0.0,0.0,0.0,0.0,0.0,0.0,0.0,-1.5471,-1.5524,-1.5511,-1.5431,-1.5404,-1.5003,0.0,0.0,0.0,0.0,0.0,0.0,0.0,0.0,0.0,0.0,0.0,0.0,0.0,0.0,0.0,0.0,0.0,0.0,0.0,0.0,0.0,0.0,0.0,0.0,0.0,0.0,0.0,0.0,0.0,0.0,0.0,0.0,0.0,0.0,0.0,0.0,0.0,0.0,0.0,0.0,0.0,0.0,0.0,0.0,0.0,0.0,0.0,0.0,0.0,0.0,0.0,0.0,0.0,0.0,0.0,0.0,0.0,0.0,0.0,0.0,0.0,0.0,0.0,0.0,0.0,0.0,0.0,0.0,0.0,0.0,0.0,0.0,0.0,0.0,0.0,0.0,0.0,0.0,0.0,0.0,0.0,0.0,0.0,0.0,0.0,0.0,0.0,0.0,0.0,0.0,0.0,0.0,0.0,0.0,0.0,0.0,0.0,0.0,0.0,0.0,0.0,0.0,0.0,0.0,0.0,0.0,0.0,0.0,0.0,-1.6353,-1.6994,-1.6927,-1.6072,-1.5618,-1.519,0.0,0.0,0.0,0.0,0.0,0.0,0.0,0.0,0.0,0.0,0.0,0.0,0.0,0.0,0.0,0.0,0.0,0.0,0.0,0.0,0.0,0.0,0.0,0.0,0.0,0.0,0.0,0.0,0.0,0.0,0.0,0.0,0.0,0.0,0.0,0.0,0.0,0.0,0.0,0.0,0.0,0.0,0.0,0.0,0.0,0.0,0.0,0.0,0.0,0.0,0.0,0.0,0.0,0.0,0.0,0.0,0.0,0.0,0.0,0.0,0.0,0.0,0.0,0.0,0.0,0.0,0.0,0.0,0.0,0.0,0.0,0.0,0.0,0.0,0.0,0.0,0.0,0.0,0.0,0.0,0.0,0.0,0.0,0.0,0.0,0.0,0.0,0.0,0.0,0.0,0.0,0.0,0.0,0.0,0.0,0.0,0.0,0.0,0.0,0.0,0.0,0.0,0.0,0.0,0.0,0.0,0.0,0.0,-1.6192,-1.6714,-1.7943,-1.8196,-1.7408,-1.6446,-1.5631,0.0,0.0,0.0,0.0,0.0,0.0,0.0,0.0,0.0,0.0,0.0,0.0,0.0,0.0,0.0,0.0,0.0,0.0,0.0,0.0,0.0,0.0,0.0,0.0,0.0,0.0,0.0,0.0,0.0,0.0,0.0,0.0,0.0,0.0,0.0,0.0,0.0,0.0,0.0,0.0,0.0,0.0,0.0,0.0,0.0,0.0,0.0,0.0,0.0,0.0,0.0,0.0,0.0,0.0,0.0,0.0,0.0,0.0,0.0,0.0,0.0,0.0,0.0,0.0,0.0,0.0,0.0,0.0,0.0,0.0,0.0,0.0,0.0,0.0,0.0,0.0,0.0,0.0,0.0,0.0,0.0,0.0,0.0,0.0,0.0,0.0,0.0,0.0,0.0,0.0,0.0,0.0,0.0,0.0,0.0,0.0,0.0,0.0,0.0,0.0,0.0,0.0,0.0,0.0,0.0,0.0,0.0,0.0,-1.6754,-1.686,-1.849,-1.9212,-1.8851,-1.7462,-1.6206,0.0,0.0,0.0,0.0,0.0,0.0,0.0,0.0,0.0,0.0,0.0,0.0,0.0,0.0,0.0,0.0,0.0,0.0,0.0,0.0,0.0,0.0,0.0,0.0,0.0,0.0,0.0,0.0,0.0,0.0,0.0,0.0,0.0,0.0,0.0,0.0,0.0,0.0,0.0,0.0,0.0,0.0,0.0,0.0,0.0,0.0,0.0,0.0,0.0,0.0,0.0,0.0,0.0,0.0,0.0,0.0,0.0,0.0,0.0,0.0,0.0,0.0,0.0,0.0,0.0,0.0,0.0,0.0,0.0,0.0,0.0,0.0,0.0,0.0,0.0,0.0,0.0,0.0,0.0,0.0,0.0,0.0,0.0,0.0,0.0,0.0,0.0,0.0,0.0,0.0,0.0,0.0,0.0,0.0,0.0,0.0,0.0,0.0,0.0,0.0,0.0,0.0,0.0,0.0,0.0,0.0,0.0,0.0,-1.7048,-1.7729,-1.8811,-1.9118,-1.8597,-1.7368,-1.6486,0.0,0.0,0.0,0.0,0.0,0.0,0.0,0.0,0.0,0.0,0.0,0.0,0.0,0.0,0.0,0.0,0.0,0.0,0.0,0.0,0.0,0.0,0.0,0.0,0.0,0.0,0.0,0.0,0.0,0.0,0.0,0.0,0.0,0.0,0.0,0.0,0.0,0.0,0.0,0.0,0.0,0.0,0.0,0.0,0.0,0.0,0.0,0.0,-0.835,0.0,0.0,0.0,0.0,0.0,0.0,0.0,0.0,0.0,0.0,0.0,0.0,0.0,0.0,0.0,0.0,0.0,0.0,0.0,0.0,0.0,0.0,0.0,0.0,0.0,0.0,0.0,0.0,0.0,0.0,0.0,0.0,0.0,0.0,0.0,0.0,0.0,0.0,0.0,0.0,0.0,0.0,0.0,0.0,0.0,0.0,0.0,0.0,0.0,0.0,0.0,0.0,0.0,0.0,0.0,0.0,0.0,0.0,0.0,-1.7128,-1.7996,-1.8771,-1.9011,-1.8677,-1.7662,-1.678,0.0,0.0,0.0,0.0,0.0,0.0,0.0,0.0,0.0,0.0,0.0,0.0,0.0,0.0,0.0,0.0,0.0,0.0,0.0,0.0,0.0,0.0,0.0,0.0,0.0,0.0,0.0,0.0,0.0,0.0,0.0,0.0,0.0,0.0,0.0,0.0,0.0,0.0,0.0,0.0,0.0,0.0,0.0,0.0,0.0,0.0,0.0,0.0,0.0,0.0,0.0,0.0,0.0,0.0,0.0,0.0,0.0,0.0,0.0,0.0,0.0,0.0,0.0,0.0,0.0,0.0,0.0,0.0,0.0,0.0,0.0,0.0,0.0,0.0,0.0,0.0,0.0,0.0,0.0,0.0,0.0,0.0,0.0,0.0,0.0,0.0,0.0,0.0,0.0,0.0,0.0,0.0,0.0,0.0,0.0,0.0,0.0,0.0,0.0,0.0,0.0,0.0,0.0,0.0,0.0,0.0,0.0,-1.6406,-1.7288,-1.8317,-1.8824,-1.9038,-1.8985,-1.813,-1.7114,-1.6005,0.0,0.0,0.0,0.0,0.0,0.0,0.0,0.0,0.0,0.0,0.0,0.0,0.0,0.0,0.0,0.0,0.0,0.0,0.0,0.0,0.0,0.0,0.0,0.0,0.0,0.0,0.0,0.0,0.0,0.0,0.0,0.0,0.0,0.0,0.0,0.0,0.0,0.0,-0.8083,-0.8035,0.0,0.0,0.0,0.0,0.0,0.0,0.0,0.0,-0.8303,0.0,0.0,0.0,0.0,0.0,0.0,0.0,0.0,0.0,0.0,0.0,0.0,0.0,0.0,0.0,0.0,0.0,0.0,0.0,0.0,0.0,0.0,0.0,0.0,0.0,0.0,0.0,0.0,0.0,0.0,0.0,0.0,0.0,0.0,0.0,0.0,0.0,0.0,0.0,0.0,0.0,0.0,0.0,0.0,0.0,0.0,0.0,0.0,0.0,0.0,0.0,0.0,0.0,0.0,0.0,0.0,-1.6884,-1.7058,-1.7983,-1.9754,-1.9733,-1.9546,-1.9279,-1.8437,-1.7528,-1.6607,0.0,0.0,0.0,0.0,0.0,0.0,0.0,0.0,0.0,0.0,0.0,0.0,0.0,0.0,0.0,0.0,0.0,0.0,0.0,0.0,0.0,0.0,0.0,0.0,0.0,0.0,0.0,0.0,0.0,0.0,0.0,0.0,0.0,0.0,0.0,0.0,0.0,0.0,0.0,-0.8275,-0.8143,0.0,0.0,0.0,0.0,0.0,0.0,0.0,0.0,-0.8513,0.0,0.0,0.0,0.0,0.0,0.0,0.0,0.0,0.0,0.0,0.0,0.0,0.0,0.0,0.0,0.0,0.0,0.0,0.0,0.0,0.0,0.0,0.0,0.0,0.0,0.0,0.0,0.0,0.0,0.0,0.0,0.0,0.0,0.0,0.0,0.0,0.0,0.0,0.0,0.0,0.0,0.0,0.0,0.0,0.0,0.0,0.0,0.0,0.0,0.0,0.0,0.0,0.0,0.0,0.0,-1.7367,-1.7836,-1.8771,-2.016,-1.98,-1.9506,-1.9417,-1.8504,-1.737,0.0,0.0,0.0,0.0,0.0,0.0,0.0,0.0,0.0,0.0,0.0,0.0,0.0,0.0,0.0,0.0,0.0,0.0,0.0,0.0,0.0,0.0,0.0,0.0,0.0,0.0,0.0,0.0,0.0,0.0,0.0,0.0,0.0,0.0,0.0,0.0,0.0,0.0,0.0,0.0,-0.8404,-0.8404,-0.8777,0.0,0.0,0.0,0.0,0.0,0.0,-0.8581,-0.8533,0.0,0.0,0.0,0.0,0.0,0.0,0.0,0.0,0.0,0.0,0.0,0.0,0.0,0.0,0.0,0.0,0.0,0.0,0.0,0.0,0.0,0.0,0.0,0.0,0.0,0.0,0.0,0.0,0.0,0.0,0.0,0.0,0.0,0.0,0.0,0.0,0.0,0.0,0.0,0.0,0.0,0.0,0.0,0.0,0.0,0.0,0.0,0.0,0.0,0.0,0.0,0.0,0.0,0.0,0.0,-1.7662,-1.8557,-1.9466,-2.0334,-1.984,-1.9546,-1.9519,-1.8517,-1.7184,0.0,0.0,0.0,0.0,0.0,0.0,0.0,0.0,0.0,0.0,0.0,0.0,0.0,0.0,0.0,0.0,0.0,0.0,0.0,0.0,0.0,0.0,0.0,0.0,0.0,0.0,0.0,0.0,0.0,0.0,0.0,0.0,0.0,0.0,0.0,0.0,0.0,0.0,0.0,0.0,0.0,-0.8608,-0.8933,-0.8696,0.0,0.0,0.0,0.0,-0.8574,-0.8621,0.0,0.0,0.0,0.0,0.0,0.0,0.0,0.0,0.0,0.0,0.0,0.0,0.0,0.0,0.0,0.0,0.0,0.0,0.0,0.0,0.0,0.0,0.0,0.0,0.0,0.0,0.0,0.0,0.0,0.0,0.0,0.0,0.0,0.0,0.0,0.0,0.0,0.0,0.0,0.0,0.0,0.0,0.0,0.0,0.0,0.0,0.0,0.0,0.0,0.0,0.0,0.0,0.0,0.0,0.0,0.0,-1.7956,-1.8851,-1.9867,-2.0922,-2.0428,-2.0134,-2.0107,-1.8517,-1.7556,0.0,0.0,0.0,0.0,0.0,0.0,0.0,0.0,0.0,0.0,0.0,0.0,0.0,0.0,0.0,0.0,0.0,0.0,0.0,0.0,0.0,0.0,0.0,0.0,0.0,0.0,0.0,0.0,0.0,0.0,0.0,0.0,0.0,0.0,0.0,0.0,0.0,0.0,0.0,0.0,0.0,-0.8642,-0.9125,-0.8811,-0.8531,0.0,0.0,0.0,-0.8886,-0.9103,0.0,0.0,0.0,0.0,0.0,0.0,0.0,0.0,0.0,0.0,0.0,0.0,0.0,0.0,0.0,0.0,0.0,0.0,0.0,0.0,0.0,0.0,0.0,0.0,0.0,0.0,0.0,0.0,0.0,0.0,0.0,0.0,0.0,0.0,0.0,0.0,0.0,0.0,0.0,0.0,0.0,0.0,0.0,0.0,0.0,0.0,0.0,0.0,0.0,0.0,0.0,0.0,0.0,0.0,0.0,-1.7903,-1.8317,-1.9653,-2.0521,-2.0842,-2.0454,-2.01,-1.9987,-1.8424,-1.7252,0.0,0.0,0.0,0.0,0.0,0.0,0.0,0.0,0.0,0.0,0.0,0.0,0.0,0.0,0.0,0.0,0.0,0.0,0.0,0.0,0.0,0.0,0.0,0.0,0.0,0.0,0.0,0.0,0.0,0.0,0.0,0.0,0.0,0.0,0.0,0.0,0.0,0.0,0.0,0.0,0.0,0.0,-0.9008,-0.8866,0.0,0.0,0.0,-0.9147,-0.9923,0.0,0.0,0.0,0.0,0.0,0.0,0.0,0.0,0.0,0.0,0.0,0.0,0.0,0.0,0.0,0.0,0.0,0.0,0.0,0.0,0.0,0.0,0.0,0.0,0.0,0.0,0.0,0.0,0.0,0.0,0.0,0.0,0.0,0.0,0.0,0.0,0.0,0.0,0.0,0.0,0.0,0.0,0.0,0.0,0.0,0.0,0.0,0.0,0.0,0.0,0.0,0.0,0.0,0.0,0.0,0.0,0.0,-1.8531,-2.0214,-2.0975,-2.0681,-2.0388,-2.0094,-1.9786,-1.8504,0.0,0.0,0.0,0.0,0.0,0.0,0.0,0.0,0.0,0.0,0.0,0.0,0.0,0.0,0.0,0.0,0.0,0.0,0.0,0.0,0.0,0.0,0.0,0.0,0.0,0.0,0.0,-0.8123,0.0,0.0,0.0,0.0,0.0,0.0,0.0,0.0,0.0,0.0,0.0,0.0,0.0,0.0,-0.894,-0.894,-0.894,-0.8905,0.0,0.0,-0.9263,-1.0329,-1.0988,-1.1102,0.0,0.0,0.0,0.0,0.0,0.0,0.0,0.0,0.0,0.0,0.0,0.0,0.0,0.0,0.0,0.0,0.0,0.0,0.0,0.0,0.0,0.0,0.0,0.0,0.0,0.0,0.0,0.0,0.0,0.0,0.0,0.0,0.0,0.0,0.0,0.0,0.0,0.0,0.0,0.0,0.0,0.0,0.0,0.0,0.0,0.0,0.0,0.0,0.0,0.0,0.0,0.0,0.0,0.0,0.0,-1.8557,-2.0214,-2.0962,-2.0681,-2.0388,-2.0094,-1.98,-1.8905,-1.8102,0.0,0.0,0.0,0.0,0.0,0.0,0.0,0.0,0.0,0.0,0.0,0.0,0.0,0.0,0.0,0.0,0.0,0.0,0.0,0.0,0.0,0.0,0.0,0.0,0.0,0.0,0.0,0.0,0.0,0.0,0.0,0.0,0.0,0.0,0.0,0.0,0.0,0.0,0.0,0.0,0.0,-0.894,-0.894,-0.894,-0.9035,0.0,0.0,-0.9022,-0.9451,-0.9755,-0.971,-0.9168,0.0,0.0,0.0,0.0,0.0,0.0,0.0,0.0,0.0,0.0,0.0,0.0,0.0,0.0,0.0,0.0,0.0,0.0,0.0,0.0,0.0,0.0,0.0,0.0,0.0,0.0,0.0,0.0,0.0,0.0,0.0,0.0,0.0,0.0,0.0,0.0,0.0,0.0,0.0,0.0,0.0,0.0,0.0,0.0,0.0,0.0,0.0,0.0,0.0,0.0,0.0,0.0,0.0,-1.849,-1.8517,-2.0214,-2.0975,-2.0681,-2.0388,-2.0094,-1.98,-1.8945,-1.821,0.0,0.0,0.0,0.0,0.0,0.0,0.0,0.0,0.0,0.0,0.0,0.0,0.0,0.0,0.0,0.0,0.0,0.0,0.0,0.0,0.0,0.0,0.0,0.0,0.0,0.0,0.0,0.0,-1.1817,-1.1368,-1.0069,0.0,0.0,0.0,0.0,0.0,0.0,0.0,0.0,0.0,0.0,-0.9931,-0.9298,-1.0196,0.0,0.0,-1.1977,-1.2954,-1.3658,-1.3255,-1.2601,-1.1872,-1.0992,0.0,0.0,0.0,0.0,0.0,0.0,0.0,0.0,0.0,0.0,0.0,0.0,0.0,0.0,0.0,0.0,0.0,0.0,0.0,0.0,0.0,0.0,0.0,0.0,0.0,0.0,0.0,0.0,0.0,0.0,0.0,0.0,0.0,0.0,0.0,0.0,0.0,0.0,0.0,0.0,0.0,0.0,0.0,0.0,0.0,0.0,0.0,0.0,0.0,0.0,0.0,0.0,-1.8357,-1.8357,-2.0,-2.0708,-2.0414,-2.0214,-1.996,-1.9666,-1.9078,-1.8477,0.0,0.0,0.0,0.0,0.0,0.0,0.0,0.0,0.0,0.0,0.0,0.0,0.0,0.0,0.0,0.0,0.0,0.0,0.0,0.0,0.0,0.0,0.0,0.0,0.0,0.0,0.0,0.0,-1.3462,-1.2908,-1.1407,0.0,0.0,0.0,0.0,0.0,0.0,0.0,0.0,0.0,0.0,-1.1677,-1.0825,-1.1512,-1.2261,-1.2601,-1.2968,-1.3606,-1.4802,-1.4358,-1.3664,-1.3171,0.0,0.0,0.0,0.0,0.0,0.0,0.0,0.0,0.0,0.0,0.0,0.0,0.0,0.0,0.0,0.0,0.0,0.0,0.0,0.0,0.0,0.0,0.0,0.0,0.0,0.0,0.0,0.0,0.0,0.0,0.0,0.0,0.0,0.0,0.0,0.0,0.0,0.0,0.0,0.0,0.0,0.0,0.0,0.0,0.0,0.0,0.0,0.0,0.0,0.0,0.0,0.0,0.0,0.0,-1.8022,-1.9474,-2.0134,-1.9853,-1.9813,-1.9679,-1.947,-1.9417,-1.9122,-1.8477,0.0,0.0,0.0,0.0,0.0,0.0,0.0,0.0,0.0,0.0,0.0,0.0,0.0,0.0,0.0,0.0,0.0,0.0,0.0,0.0,0.0,0.0,0.0,0.0,0.0,0.0,-1.2221,-1.2382,-1.2707,0.0,0.0,0.0,0.0,0.0,0.0,0.0,0.0,0.0,0.0,-1.2995,-1.4302,-1.3613,-1.273,-1.2536,-1.3554,-1.122,-0.9783,-1.1674,-1.1782,-1.1659,0.0,0.0,0.0,0.0,0.0,0.0,0.0,0.0,0.0,0.0,0.0,0.0,0.0,0.0,0.0,0.0,0.0,0.0,0.0,0.0,0.0,0.0,0.0,0.0,0.0,0.0,0.0,-1.8549,-1.8856,0.0,0.0,0.0,0.0,0.0,0.0,0.0,0.0,0.0,0.0,0.0,-1.809,-1.8036,0.0,0.0,0.0,0.0,0.0,0.0,0.0,0.0,0.0,0.0,0.0,0.0,-1.8237,-1.8116,-1.9679,-2.0388,-2.0094,-1.9907,-1.9746,-1.9653,-1.9466,-1.9185,-1.8784,0.0,0.0,0.0,0.0,0.0,0.0,0.0,0.0,0.0,0.0,0.0,0.0,0.0,0.0,0.0,0.0,0.0,0.0,0.0,0.0,0.0,0.0,0.0,0.0,0.0,-1.5766,0.0,0.0,0.0,0.0,0.0,0.0,0.0,0.0,0.0,0.0,0.0,-1.3519,-1.2847,-1.4058,-1.4646,-1.3846,-1.4458,-1.5286,0.0,0.0,0.0,0.0,0.0,0.0,0.0,0.0,0.0,0.0,0.0,0.0,0.0,0.0,-1.2608,-1.2079,-1.144,-1.1005,-1.106,0.0,0.0,0.0,0.0,0.0,0.0,0.0,0.0,0.0,0.0,0.0,0.0,0.0,0.0,0.0,0.0,-2.0726,0.0,0.0,0.0,0.0,0.0,0.0,0.0,0.0,-1.829,-1.8677,-1.8945,-1.8945,-1.8945,0.0,-1.8637,-1.7889,0.0,0.0,0.0,0.0,0.0,0.0,0.0,0.0,-1.8223,-1.809,-1.9666,-2.0428,-2.018,-2.0054,-1.9947,-1.9947,-1.9773,-1.9626,-1.9533,-1.8677,-1.817,0.0,0.0,0.0,0.0,0.0,0.0,0.0,0.0,0.0,0.0,0.0,0.0,0.0,0.0,0.0,0.0,0.0,0.0,0.0,0.0,0.0,0.0,0.0,-1.7166,0.0,0.0,0.0,0.0,0.0,0.0,0.0,0.0,0.0,-1.3112,-1.4545,-1.5414,-1.4789,-1.5923,-1.6426,-1.5333,0.0,0.0,0.0,0.0,0.0,0.0,0.0,-1.6523,-1.6369,-1.6286,-1.6158,-1.6001,-1.6537,-1.6785,-1.6215,0.0,0.0,-1.4685,-1.3276,-1.2526,-1.2707,-1.1324,-1.0195,-1.0399,-1.0351,-1.031,0.0,0.0,0.0,0.0,0.0,0.0,0.0,0.0,-2.6823,-2.8024,0.0,-2.6253,0.0,0.0,0.0,0.0,0.0,0.0,0.0,0.0,-2.0347,-2.0628,-1.9867,-1.984,-1.984,-1.9786,-1.9011,-1.8597,-1.8571,-1.8571,0.0,0.0,0.0,0.0,0.0,0.0,-1.8009,-1.8116,-1.9519,-2.018,-2.018,-2.0167,-2.0227,-2.0227,-2.0227,-2.0347,-2.0615,-1.9826,-1.9506,-1.9746,-1.8197,0.0,0.0,0.0,0.0,0.0,0.0,0.0,0.0,0.0,0.0,0.0,0.0,0.0,0.0,0.0,0.0,0.0,0.0,0.0,0.0,-1.6727,0.0,0.0,0.0,0.0,0.0,0.0,0.0,0.0,0.0,0.0,-1.3953,-1.5347,-1.6534,-1.6534,0.0,0.0,0.0,0.0,-1.7784,-1.8055,-1.6004,-1.4923,-1.6384,-1.7016,-1.7565,-1.8106,0.0,0.0,-1.9683,-2.0195,-2.0172,-1.8569,-2.0055,-2.0374,-1.653,-1.4595,-1.3409,-1.3474,-1.2169,-1.0884,-1.0765,-1.0819,-1.0799,-2.0758,0.0,0.0,0.0,0.0,-2.2939,-2.4207,-2.579,-2.6626,-2.7025,-2.6987,-2.6467,0.0,0.0,0.0,0.0,0.0,0.0,-1.9128,-1.9794,-2.008,-2.0374,-2.0735,-2.0735,-2.0735,-2.0722,-2.0481,-2.0361,-2.0361,-2.0361,-1.9265,-1.7233,0.0,0.0,0.0,0.0,-1.8571,-1.9011,-2.0013,-2.0441,-2.018,-2.018,-2.018,-2.018,-2.018,-2.0374,-2.0668,-2.0227,-1.9933,-1.9786,-1.9118,0.0,0.0,0.0,0.0,0.0,0.0,0.0,0.0,0.0,0.0,0.0,0.0,0.0,0.0,0.0,0.0,0.0,0.0,0.0,-1.7072,-1.7208,-1.7088,0.0,0.0,0.0,0.0,0.0,0.0,0.0,0.0,0.0,-1.7735,-1.7597,-1.7634,0.0,0.0,-1.8448,-1.8384,-1.8827,-1.9337,-1.9847,0.0,0.0,0.0,-2.0125,-2.0035,-2.019,-2.1159,-2.1726,-2.1319,-2.1793,-2.2071,-2.1567,-2.2111,-2.2149,-2.1251,-1.9519,-1.7841,-1.654,-1.4903,-1.3239,-1.2007,-1.1681,-1.1746,-2.2921,-2.275,-2.2364,-2.2833,-2.3927,-2.5104,-2.6628,-2.8232,-2.878,-2.9106,-2.92,-2.8521,-2.7359,-2.5737,-2.3165,0.0,0.0,0.0,-2.0094,-2.0909,-2.0628,-2.0708,-2.1096,-2.1109,-2.1109,-2.1109,-2.1109,-2.1109,-2.1096,-2.0882,-1.996,-1.841,0.0,0.0,-1.7702,-1.8677,-1.9359,-1.9733,-2.0695,-2.1109,-2.0935,-2.0922,-2.0922,-2.0922,-2.0815,-2.0842,-2.1078,-2.0735,-2.0494,-2.0321,-1.9813,-1.9132,0.0,0.0,0.0,0.0,0.0,0.0,0.0,0.0,0.0,0.0,0.0,-1.6553,0.0,0.0,0.0,0.0,-1.7208,-1.742,-1.7488,-1.7448,0.0,0.0,0.0,0.0,0.0,0.0,0.0,-1.7876,-1.8784,-1.9506,-1.9679,-1.9452,-1.9372,-1.9666,-1.9653,-1.9586,-1.9533,0.0,-2.0882,-2.1015,-2.1269,-2.1577,-2.1924,-2.1884,-2.1924,-2.2285,-2.2619,-2.2859,-2.2873,-2.3166,-2.334,-2.3343,-2.3313,-2.3447,-2.3634,-2.2731,-2.1387,-1.9354,-1.755,-1.6037,-1.4894,-1.4694,-1.4469,-2.4915,-2.5308,-2.4667,-2.4393,-2.458,-2.7362,-2.9441,-3.1066,-3.2262,-3.3066,-3.3281,-3.1777,-3.0407,-2.8874,-2.4357,0.0,0.0,-2.1797,-2.1243,-2.2004,-2.1724,-2.143,-2.1149,-2.1162,-2.1162,-2.1149,-2.1176,-2.1176,-2.1162,-2.0641,-2.0334,-2.0193,-2.0,-1.9426,-1.8664,-1.9626,-2.0201,-2.0207,-2.1323,-2.1911,-2.1977,-2.1991,-2.1991,-2.1977,-2.1724,-2.1655,-2.1641,-2.1323,-2.1176,-2.1122,-2.0374,-1.9893,-1.976,0.0,0.0,0.0,0.0,0.0,0.0,0.0,0.0,0.0,0.0,0.0,0.0,0.0,0.0,0.0,-1.7662,0.0,-1.8102,-1.7662,0.0,0.0,0.0,-1.7916,-1.8504,-1.8865,-1.8994,-1.8968,0.0,0.0,0.0,0.0,-2.1376,-2.1789,-2.1871,-2.1764,-2.1256,-2.1884,-2.2298,-2.1804,-2.1991,-2.2218,-2.2378,-2.2712,-2.3247,-2.3928,-2.4262,-2.4222,-2.4222,-2.4275,-2.4182,-2.3995,-2.4128,-2.4315,-2.4315,-2.4442,-2.4018,-2.1957,-2.0087,-1.8779,-1.8355,-1.8052,-1.7303,-2.6304,-2.7687,-2.8738,-2.8974,-2.8776,-2.9807,-3.1013,-3.2368,-3.2976,-3.334,-3.3379,-3.3008,-3.1903,-3.0194,-2.6376,-2.482,-2.4973,-2.2918,-2.2111,-2.2285,-2.2017,-2.1724,-2.1534,-2.167,-2.1657,-2.147,-2.167,-2.1777,-2.1777,-2.163,-2.1229,-2.0601,-2.0494,-2.0027,-1.9256,-1.9439,-1.9907,-2.0561,-2.0842,-2.1309,-2.1964,-2.1991,-2.1991,-2.1991,-2.1924,-2.1884,-2.1884,-2.1817,-2.167,-2.1456,-2.1306,-2.0722,-1.984,-1.8771,0.0,0.0,0.0,0.0,0.0,0.0,0.0,0.0,0.0,-1.6513,-1.6024,0.0,-1.7152,0.0,-1.8331,-1.9065,-1.9359,-1.9065,0.0,0.0,-1.8557,-1.8744,-1.9118,-1.9813,-2.0174,-1.9947,-2.0695,-2.1323,-2.155,-2.2084,-2.2726,-2.3434,-2.2458,-2.1683,-2.1777,-2.2539,-2.306,-2.2993,-2.35,-2.3995,-2.3981,-2.4115,-2.4275,-2.4502,-2.4716,-2.4863,-2.4877,-2.5064,-2.517,-2.5117,-2.5144,-2.5197,-2.5184,-2.5264,-2.5113,-2.449,-2.2527,-2.0447,-1.9167,-1.7673,-1.6414,-2.8129,-2.9996,-3.1598,-3.172,-3.076,-3.1003,-3.1751,-3.2793,-3.2851,-3.3066,-3.3418,-3.3418,-3.2892,-3.1771,-2.9065,-2.7883,-2.7685,-2.5137,-2.3933,-2.3739,-2.2917,-2.2418,-2.2217,-2.2298,-2.2218,-2.1951,-2.2098,-2.2111,-2.2004,-2.2111,-2.1924,-2.1456,-2.159,-2.1279,-2.0408,-1.9826,-1.98,-2.0281,-2.0802,-2.1483,-2.2338,-2.2378,-2.2191,-2.1882,-2.1657,-2.1416,-2.1029,-2.0882,-2.0748,-2.065,-2.0454,-2.0147,-1.9626,-1.8637,-1.7929,0.0,0.0,0.0,0.0,0.0,0.0,0.0,0.0,0.0,0.0,0.0,-1.7795,0.0,-1.8787,0.0,-1.9412,-1.9265,-1.9239,-1.9439,-1.9613,-1.992,-2.0468,-2.0962,-2.1243,-2.1216,-2.1871,-2.2458,-2.2752,-2.3287,-2.3821,-2.4329,-2.3541,-2.2979,-2.3166,-2.3607,-2.3955,-2.4102,-2.4516,-2.489,-2.4997,-2.5024,-2.5024,-2.5037,-2.5157,-2.5277,-2.5277,-2.5398,-2.5518,-2.5518,-2.5518,-2.5518,-2.5518,-2.5518,-2.5518,-2.5312,-2.4403,-2.3101,-2.2042,-2.0913,-2.0029,-3.0383,-3.2206,-3.3578,-3.3262,-3.1836,-3.1777,-3.1973,-3.2285,-3.1973,-3.2363,-3.3281,-3.3476,-3.3594,-3.3447,-3.1727,-3.0933,-3.0757,-2.782,-2.611,-2.5599,-2.433,-2.3485,-2.2995,-2.3035,-2.2819,-2.2539,-2.2579,-2.2458,-2.2231,-2.2472,-2.2512,-2.2378,-2.2619,-2.2285,-2.144,-2.0361,-1.9853,-1.9867,-2.0975,-2.199,-2.274,-2.2646,-2.2164,-2.148,-2.1136,-2.0641,-1.9893,-1.9613,-1.9524,-1.9412,-1.9185,-1.9185,-1.9551,-1.8492,-1.7969,0.0,-1.7528,0.0,0.0,0.0,0.0,0.0,0.0,0.0,0.0,-1.8544,-1.8597,-1.8704,-1.9212,-1.9466,-1.9265,-1.9292,-1.9733,-2.0762,-2.0895,-2.1216,-2.1991,-2.2124,-2.2258,-2.2498,-2.306,-2.3541,-2.3768,-2.4302,-2.4562,-2.4676,-2.4623,-2.4556,-2.4629,-2.4663,-2.4743,-2.509,-2.513,-2.5211,-2.5411,-2.5478,-2.5478,-2.5491,-2.5531,-2.5571,-2.5571,-2.5625,-2.5638,-2.5638,-2.5665,-2.5651,-2.5625,-2.5638,-2.5638,-2.5665,-2.5561,-2.5458,-2.5264,-2.4701,-2.456,-3.3053,-3.4632,-3.4595,-3.4199,-3.3574,-3.3203,-3.1758,-2.9668,-2.9941,-3.0996,-3.248,-3.3848,-3.4453,-3.4323,-3.2625,-3.183,-3.1763,-2.9716,-2.7926,-2.6379,-2.6091,-2.5015,-2.333,-2.3487,-2.3447,-2.318,-2.3394,-2.3487,-2.3434,-2.3487,-2.302,-2.2098,-2.2124,-2.159,-2.0535,0.0,0.0,0.0,-2.1082,-2.1695,-2.1829,-2.1096,-2.0655,-2.0481,-2.0428,0.0,-2.016,-2.0094,-1.996,-1.9733,-1.9666,0.0,0.0,0.0,0.0,0.0,0.0,0.0,0.0,0.0,0.0,0.0,-1.9492,-1.9172,-1.8865,-1.8838,-1.9132,-1.9826,-2.0227,-2.0601,-2.1015,-2.1269,-2.159,-2.2017,-2.2084,-2.2245,-2.2659,-2.2913,-2.31,-2.3153,-2.3674,-2.4048,-2.4142,-2.4422,-2.473,-2.4957,-2.4997,-2.509,-2.5304,-2.513,-2.5117,-2.5371,-2.5438,-2.5451,-2.5504,-2.5545,-2.5571,-2.5545,-2.5732,-2.5852,-2.5879,-2.6066,-2.6213,-2.6199,-2.6226,-2.6213,-2.6213,-2.6226,-2.6186,-2.6226,-2.6213,-2.6159,-2.5919,-2.4518,-2.3146,-3.3997,0.0,-3.5215,-3.4551,0.0,-3.3301,-3.1894,-2.998,-3.125,-3.2402,-3.3476,-3.4316,-3.4687,-3.4583,-3.2891,-3.2147,-3.2046,-2.9559,-2.7816,-2.6838,-2.6072,-2.5127,-2.391,-2.4128,-2.4048,-2.3768,-2.3915,-2.3915,-2.3781,-2.3781,-2.346,-2.2873,-2.2873,-2.2565,-2.2004,-2.1977,-2.1697,-2.1109,-2.1537,-2.2424,-2.3672,-2.3326,-2.3218,-2.3458,0.0,0.0,0.0,0.0,0.0,0.0,0.0,0.0,0.0,0.0,0.0,-2.2991,-2.2642,-2.2244,-2.1833,-2.1897,-2.1832,-2.1561,-2.1537,-2.1162,-2.0294,-2.0347,-2.0735,-2.1456,-2.167,-2.1817,-2.1964,-2.2245,-2.2485,-2.2632,-2.2779,-2.2979,-2.326,-2.3447,-2.3594,-2.3754,-2.4022,-2.4302,-2.4609,-2.4756,-2.497,-2.5237,-2.5291,-2.5398,-2.5638,-2.5478,-2.5398,-2.5678,-2.5865,-2.5945,-2.5945,-2.5945,-2.5945,-2.5972,-2.6079,-2.6159,-2.6172,-2.6293,-2.64,-2.64,-2.64,-2.64,-2.64,-2.64,-2.64,-2.64,-2.64,-2.636,-2.6199,-2.5282,-2.4585,-3.4703,-3.6094,-3.5684,-3.4863,-3.3848,-3.3516,-3.2773,-3.1894,0.0,0.0,0.0,-3.4785,-3.4922,-3.4844,-3.3476,-3.2851,-3.2711,-3.0111,-2.8667,-2.8114,-2.6941,-2.6095,-2.5611,-2.5272,-2.5002,-2.4784,-2.4421,-2.4155,-2.3928,-2.3915,-2.3901,-2.3848,-2.3848,-2.3848,-2.3919,-2.4317,-2.4008,-2.3092,-2.2736,-2.3662,-2.5801,-2.6072,-2.6336,-2.6689,-2.6717,-2.6308,-2.5526,-2.5534,-2.5534,-2.5476,-2.5371,-2.5473,-2.583,-2.5703,-2.5805,-2.6159,-2.5894,-2.5394,-2.4683,-2.4544,-2.4128,-2.3423,-2.369,-2.3215,-2.1923,-2.2004,-2.2311,-2.2739,-2.2886,-2.2846,-2.2605,-2.2846,-2.3115,-2.3169,-2.3327,-2.3581,-2.3808,-2.3901,-2.4022,-2.4235,-2.4342,-2.4556,-2.5064,-2.5157,-2.5264,-2.5518,-2.5598,-2.5692,-2.5932,-2.5838,-2.5772,-2.5999,-2.6186,-2.636,-2.6386,-2.636,-2.64,-2.6346,-2.636,-2.64,-2.64,-2.64,-2.64,-2.64,-2.64,-2.64,-2.64,-2.644,-2.6453,-2.6466,-2.6507,-2.6547,-2.6547,-2.6547,-2.6454,-3.6355,-3.6543,-3.6113,-3.582,-3.5644,-3.5586,-3.5469,-3.5195,-3.4043,-3.3555,-3.3691,-3.5176,-3.584,-3.582,-3.5586,-3.5469,-3.5469,-3.5006,-3.3951,0.0,-3.2102,-3.1111,-2.9456,-2.7852,-2.7055,-2.6939,-2.5364,-2.4556,-2.4516,-2.4516,-2.4382,-2.4168,-2.4142,-2.4155,-2.4313,-2.6157,-2.7199,-2.7243,-2.5695,-2.5024,-2.5408,-2.6229,-2.6577,-2.6296,-2.6372,-2.6042,-2.5493,-2.5584,-2.5534,-2.5551,-2.5846,-2.6397,-2.7147,-2.7575,-2.8053,-2.871,-2.7347,-2.6406,-2.6253,-2.4777,-2.385,-2.3816,-2.5027,-2.493,-2.293,-2.2712,-2.274,-2.2539,-2.2993,-2.3247,-2.322,-2.3531,-2.387,-2.3941,-2.4048,-2.4102,-2.4168,-2.4369,-2.4529,-2.4596,-2.481,-2.5064,-2.5371,-2.5451,-2.5558,-2.5812,-2.5892,-2.5999,-2.6213,-2.6293,-2.6279,-2.6319,-2.636,-2.64,-2.64,-2.64,-2.64,-2.64,-2.64,-2.64,-2.64,-2.64,-2.64,-2.64,-2.64,-2.64,-2.64,-2.66,-2.6694,-2.6747,-2.6894,-2.7081,-2.7081,-2.7094,-2.7041,-3.7012,-3.6953,-3.6562,-3.6367,-3.6348,-3.6133,-3.6035,-3.5957,-3.5176,-3.4824,-3.4902,-3.5664,-3.6035,-3.5937,-3.5039,-3.4609,-3.457,-3.3652,-3.2732,-3.1835,-3.1805,-3.1285,-3.0331,-2.9401,-2.9043,-2.8972,-2.8125,-2.7692,-2.7635,-2.6793,-2.6322,-2.6267,-2.6498,-2.6583,-2.6731,-2.8746,-2.9854,-2.9965,-2.8994,-2.8956,-2.9917,-3.0386,-3.0853,-3.146,-3.1524,-3.132,-3.0869,-3.0851,-3.074,-3.05,-3.0666,-3.0972,-3.1377,-3.1598,-3.1862,-3.2193,-3.1474,-3.0597,-2.9646,-2.8051,-2.7201,-2.7367,-2.8006,-2.7981,-2.6809,-2.5608,-2.4567,-2.3665,-2.3888,-2.3968,-2.3834,-2.4983,-2.5366,-2.4268,-2.5326,-2.574,-2.4925,-2.4943,-2.5104,-2.5117,-2.5224,-2.5424,-2.5718,-2.5758,-2.5865,-2.6132,-2.6186,-2.6253,-2.6373,-2.64,-2.64,-2.6386,-2.64,-2.64,-2.64,-2.64,-2.64,-2.64,-2.64,-2.64,-2.64,-2.64,-2.64,-2.64,-2.64,-2.64,-2.64,-2.6627,-2.6787,-2.6854,-2.7068,-2.7241,-2.735,-2.7375,-2.7388,-3.7441,-3.7402,-3.6992,-3.6758,-3.6641,-3.6309,-3.6113,-3.6035,-3.6016,-3.6035,-3.6035,-3.6035,-3.6035,-3.5879,-3.459,-3.4004,-3.3828,-3.2656,-3.1989,-3.1828,-3.1854,-3.1778,-3.1494,-3.1158,-3.0946,-3.0892,-3.0605,-3.0442,-3.0332,-2.9299,-2.8753,-2.8783,-2.9164,-2.9407,-2.9407,-3.1466,-3.2476,-3.2532,-3.2753,-3.3249,-3.3963,-3.4317,-3.5065,-3.6054,-3.6084,-3.5957,-3.5566,-3.5449,-3.5215,-3.4883,-3.4863,-3.4863,-3.4863,-3.4941,-3.5,-3.4934,-3.4583,-3.3546,-3.1844,-3.065,-3.0083,-3.0277,-3.0734,-3.0688,-2.9983,-2.8884,-2.7443,-2.6098,-2.5965,-2.5864,-2.5984,-2.7184,-2.7578,-2.6084,-2.7452,-2.8132,-2.6869,-2.6782,-2.6889,-2.6932,-2.6946,-2.7211,-2.7326,-2.7037,-2.6666,-2.6477,-2.64,-2.64,-2.64,-2.64,-2.64,-2.64,-2.64,-2.64,-2.64,-2.64,-2.64,-2.64,-2.64,-2.64,-2.64,-2.64,-2.64,-2.64,-2.64,-2.64,-2.6413,-2.6627,-2.6827,-2.6934,-2.7201,-2.7402,-2.7509,-2.7655,-2.7696,-3.7851,-3.7793,-3.7422,-3.7012,-3.6699,-3.6621,-3.6387,-3.6055,-3.6035,-3.6035,-3.6035,-3.6035,-3.6035,-3.6016,-3.5801,-3.5703,-3.5703,-3.5605,-3.5412,-3.5327,-3.5491,-3.5452,-3.5139,-3.3743,-3.2961,-3.2788,-3.1728,-3.1308,-3.1253,-3.1257,-3.1219,-3.1269,-3.1581,-3.1687,-3.1944,-3.4005,-3.5166,-3.5166,-3.6974,-3.6815,-3.4702,-3.6129,-3.6891,-3.6621,-3.6621,-3.6406,-3.6035,-3.5586,-3.5391,-3.5332,-3.5332,-3.5332,-3.5371,-3.5664,-3.5898,-3.5811,-3.4321,-3.2489,-3.0775,-3.0314,-3.0402,-3.0451,-3.2018,-3.2228,-3.0771,-3.1721,-3.1705,-3.0029,-2.9666,-2.9527,-2.9796,-3.0304,-3.0428,-2.9962,-3.0681,-3.1162,-3.0794,-3.1031,-3.1162,-3.143,-3.0937,-3.1517,-3.1201,-3.0038,-2.8472,-2.7213,-2.7162,-2.7162,-2.7083,-2.7083,-2.7004,-2.6768,-2.6544,-2.6623,-2.6623,-2.6386,-2.6544,-2.6465,-2.6386,-2.6386,-2.64,-2.64,-2.64,-2.6466,-2.6426,-2.644,-2.652,-2.6627,-2.6947,-2.7201,-2.7455,-2.7736,-2.7976,-2.814,-2.8033,-3.832,-3.8281,-3.7851,-3.7422,-3.707,-3.7051,-3.6797,-3.6406,-3.6406,-3.6269,-3.6035,-3.6035,-3.6035,-3.6035,-3.6035,-3.6035,-3.6035,-3.6035,-3.6035,-3.6035,-3.6035,-3.6035,-3.5899,-3.5582,-3.5243,-3.5281,-3.4867,-3.475,-3.4609,-3.398,-3.3106,-3.2417,-3.3391,-3.4075,-3.4224,-3.6257,-3.7345,-3.7345,-3.819,-3.8016,-3.72,-3.7667,-3.7969,-3.7832,-3.7793,-3.7598,-3.7187,-3.6973,-3.666,-3.6211,-3.6152,-3.6035,-3.5781,-3.5937,-3.6035,-3.5947,-3.5295,-3.4521,-3.3725,-3.3656,-3.3656,-3.3656,-3.4383,-3.4615,-3.4213,-3.4826,-3.4896,-3.4183,-3.2118,-3.0778,-3.1154,-3.2261,-3.2636,-3.1817,-3.2616,-3.315,-3.1952,-3.2077,-3.2217,-3.2258,-3.2291,-3.2399,-3.238,-3.1819,-3.09,-3.013,-2.9975,-2.9759,-2.9913,-2.9991,-2.9991,-2.9991,-2.9991,-2.9371,-2.8452,-2.7069,-2.7083,-2.7619,-2.7162,-2.6465,-2.6479,-2.64,-2.644,-2.6613,-2.664,-2.672,-2.6921,-2.7121,-2.7388,-2.7562,-2.7749,-2.8003,-2.8207,-2.8234,-2.8154,-3.8574,-3.8535,-3.8242,-3.7851,-3.748,-3.7461,-3.7226,-3.6875,-3.6836,-3.666,-3.6387,-3.625,-3.6191,-3.6172,-3.6074,-3.6035,-3.6035,-3.6035,-3.6094,-3.6191,-3.6191,-3.6269,-3.6406,-3.668,-3.6836,-3.6914,-3.7195,-3.7449,-3.7514,-3.6576,-3.5318,-3.4584,-3.5664,-3.6349,-3.6497,-3.7951,-3.8574,-3.8574,-3.8574,-3.8574,-3.8574,-3.8574,-3.8574,-3.8574,-3.8574,-3.8418,-3.8125,-3.7988,-3.7656,-3.7051,-3.6914,-3.6641,-3.623,-3.6191,-3.6152,-3.6035,-3.6035,-3.6035,-3.6035,-3.6133,-3.6191,-3.6211,-3.6289,-3.6504,-3.6758,-3.6855,-3.7031,-3.7061,-3.4682,-3.3101,-3.3261,-3.4523,-3.4722,-3.3652,-3.4939,-3.5247,-3.414,-3.403,-3.4301,-3.4169,-3.4509,-3.3868,-3.349,-3.3322,-3.3095,-3.2429,-3.2353,-3.2505,-3.2505,-3.2353,-3.2353,-3.2505,-3.2429,-3.1803,-3.0438,-2.9371,-2.8997,-2.906,-2.8764,-2.7504,-2.7165,-2.7048,-2.6613,-2.6881,-2.6907,-2.6974,-2.7094,-2.7388,-2.7642,-2.7736,-2.7923,-2.8207,-2.8221,-2.8234,-2.8234,-3.8574,-3.8574,-3.8555,-3.8281,-3.7891,-3.791,-3.7656,-3.7285,-3.7266,-3.7246,-3.7129,-3.6797,-3.6641,-3.6621,-3.6269,-3.6035,-3.6035,-3.6055,-3.6289,-3.6641,-3.668,-3.6855,-3.7226,-3.7266,-3.7285,-3.7363,-3.7715,-3.8086,-3.8437,-3.835,-3.8409,-3.8263,-3.819,-3.8355,-3.8336,-3.8501,-3.8574,-3.8574,-3.8574,-3.8574,-3.8574,-3.8574,-3.8574,-3.8574,-3.8574,-3.8555,-3.8496,-3.8144,-3.7891,-3.7871,-3.7461,-3.707,-3.6699,-3.6621,-3.6445,-3.6074,-3.6035,-3.6035,-3.6094,-3.6426,-3.6641,-3.668,-3.6953,-3.7226,-3.7266,-3.7266,-3.7461,-3.778,-3.7402,-3.7033,-3.6803,-3.7052,-3.7441,-3.7316,-3.788,-3.8093,-3.8151,-3.762,-3.8263,-3.8044,-3.7731,-3.7051,-3.5589,-3.5348,-3.4601,-3.349,-3.2733,-3.2885,-3.3112,-3.2885,-3.2961,-3.3037,-3.2961,-3.2581,-3.2429,-3.1437,-3.1666,-3.1879,-3.0839,-2.9398,-2.8913,-2.84,-2.7848,-2.7541,-2.8163,-2.8205,-2.7595,-2.7362,-2.7535,-2.7709,-2.7949,-2.8194,-2.8221,-2.8234,-2.8234,-3.8574,-3.8574,-3.8574,-3.8476,-3.834,-3.834,-3.8086,-3.7715,-3.7715,-3.7539,-3.7305,-3.7129,-3.707,-3.707,-3.6914,-3.6699,-3.6445,-3.6426,-3.6816,-3.7402,-3.7461,-3.7695,-3.8086,-3.8105,-3.8125,-3.8144,-3.8262,-3.8418,-3.8555,-3.8574,-3.8574,-3.8574,-3.8574,-3.8574,-3.8574,-3.8574,-3.8574,-3.8574,-3.8574,-3.8574,-3.8574,-3.8574,-3.8574,-3.8574,-3.8574,-3.8574,-3.8574,-3.8418,-3.8223,-3.7949,-3.7773,-3.7519,-3.7109,-3.6816,-3.6484,-3.6113,-3.6289,-3.6445,-3.6484,-3.6836,-3.707,-3.709,-3.7207,-3.7441,-3.7637,-3.7715,-3.7891,-3.8223,-3.834,-3.8262,-3.8203,-3.8262,-3.834,-3.8359,-3.8476,-3.8574,-3.8574,-3.8574,-3.8574,-3.8574,-3.8574,-3.819,-3.7658,-3.7492,-3.7198,-3.659,-3.6368,-3.6294,-3.6368,-3.6368,-3.6146,-3.6368,-3.6442,-3.6368,-3.6368,-3.3868,-3.2641,-3.3322,-3.2977,-3.2013,-3.137,-3.1183,-3.0709,-3.1002,-3.1043,-3.0565,-3.0284,-2.9019,-2.8869,-2.8606,-2.8769,-2.9104,-2.8221,-2.8628,-2.8558,-3.8918,-3.9333,-3.8865,-3.8991,-3.9478,-3.9478,-3.8957,-3.8288,-3.8751,-3.8521,-3.7786,-3.7559,-3.75,-3.7461,-3.7363,-3.7246,-3.709,-3.709,-3.7461,-3.8105,-3.8281,-3.8574,-3.8926,-3.8848,-3.8789,-3.875,-3.8633,-3.8574,-3.8574,-3.8574,-3.8574,-3.8574,-3.8574,-3.8574,-3.8574,-3.8574,-3.8574,-3.8574,-3.8574,-3.8574,-3.8574,-3.8574,-3.8574,-3.8574,-3.8574,-3.8574,-3.8574,-3.8574,-3.8437,-3.8184,-3.8125,-3.793,-3.7519,-3.7109,-3.6738,-3.6504,-3.6699,-3.6875,-3.6914,-3.7266,-3.75,-3.7519,-3.7637,-3.7851,-3.8105,-3.8125,-3.8301,-3.8496,-3.8574,-3.8574,-3.8574,-3.8574,-3.8574,-3.8574,-3.8574,-3.8574,-3.8574,-3.8574,-3.8574,-3.8574,-3.8574,-3.8574,-3.8574,-3.8574,-3.8501,-3.8574,-3.8574,-3.8574,-3.8574,-3.8574,-3.8574,-3.8574,-3.8355,-3.819,-3.8044,-3.6146,-3.516,-3.5682,-3.4843,-3.4074,-3.3864,-3.3751,-3.382,-3.4246,-3.416,-3.3629,-3.2667,-3.1212,-3.0509,-3.0191,-3.0744,-3.1309,-3.0343,-2.937,-2.9202,-3.9674,-4.085,-3.9405,-3.9818,-4.0992,-4.1276,-4.03,-3.9438,-4.0595,-4.034,-3.8918,-3.823,-3.8125,-3.7851,-3.7598,-3.7559,-3.7832,-3.7949,-3.8242,-3.8652,-3.9043,-3.9453,-3.9863,-3.9414,-3.9141,-3.9062,-3.875,-3.8574,-3.8574,-3.8574,-3.8574,-3.8574,-3.8574,-3.8574,-3.8574,-3.8574,-3.8574,-3.8574,-3.8574,-3.8574,-3.8574,-3.8574,-3.8594,-3.8613,-3.8633,-3.8652,-3.8652,-3.8613,-3.8574,-3.8594,-3.8574,-3.8379,-3.7988,-3.7598,-3.7305,-3.7266,-3.7305,-3.7305,-3.7344,-3.7695,-3.793,-3.7969,-3.8301,-3.8457,-3.8476,-3.8516,-3.8535,-3.8555,-3.8574,-3.8574,-3.8574,-3.8574,-3.8574,-3.8574,-3.8574,-3.8574,-3.8574,-3.8574,-3.8574,-3.8574,-3.8574,-3.8574,-3.8574,-3.8574,-3.8574,-3.8574,-3.8574,-3.8574,-3.8574,-3.8574,-3.8574,-3.8574,-3.8574,-3.8574,-3.8574,-3.8501,-3.8428,-3.819,-3.6682,-3.5695,-3.5986,-3.6024,-3.5877,-3.6184,-3.5675,-3.5231,-3.4892,-3.3676,-3.3283,-3.312,-3.3512,-3.3267,-3.2217,-3.1159,-3.0024,-4.0779,-4.1397,-4.2101,-4.189,-4.1538,-4.264,-4.287,-4.2452,-4.3057,-4.2171,-4.0687,-4.0279,-3.9616,-3.8557,-3.8223,-3.8242,-3.8418,-3.8965,-3.9355,-3.9531,-3.9922,-4.0332,-4.0547,-4.0019,-3.9355,-3.8848,-3.8633,-3.8574,-3.8574,-3.8574,-3.8574,-3.8574,-3.8574,-3.8574,-3.8574,-3.8574,-3.8574,-3.8574,-3.8574,-3.8574,-3.8574,-3.8594,-3.8711,-3.8965,-3.9004,-3.9141,-3.9434,-3.8906,-3.873,-3.8984,-3.9004,-3.8945,-3.875,-3.8418,-3.8047,-3.7773,-3.7734,-3.7734,-3.7773,-3.8105,-3.8359,-3.8398,-3.8496,-3.8574,-3.8574,-3.8574,-3.8574,-3.8574,-3.8574,-3.8574,-3.8574,-3.8574,-3.8574,-3.8574,-3.8574,-3.8574,-3.8574,-3.8574,-3.8574,-3.8574,-3.8574,-3.8574,-3.8574,-3.8574,-3.8574,-3.8574,-3.8574,-3.8574,-3.8574,-3.8574,-3.8574,-3.8574,-3.8574,-3.8574,-3.8574,-3.8594,-3.8613,-3.8691,-3.7884,-3.7296,-3.7745,-3.7982,-3.7947,-3.7886,-3.7312,-3.7002,-3.6682,-3.6281,-3.588,-3.5234,-3.4911,-3.4327,-3.3676,-3.2874,-3.197,-4.2709,-4.3382,-4.3887,-4.3887,-4.3451,-4.4641,-4.4732,-4.4322,-4.4846,-4.368,-4.1679,-4.1255,-4.03,-3.8885,-3.873,-3.8809,-3.8906,-3.9726,-4.0117,-4.0195,-4.0566,-4.0918,-4.1035,-4.0293,-3.9434,-3.873,-3.8574,-3.8574,-3.8574,-3.8574,-3.8574,-3.8574,-3.8574,-3.8574,-3.8574,-3.8574,-3.8574,-3.8594,-3.873,-3.8809,-3.8848,-3.8965,-3.9199,-3.9434,-3.9453,-3.9609,-3.9844,-3.9355,-3.918,-3.9414,-3.9453,-3.9453,-3.9434,-3.9199,-3.8867,-3.8516,-3.8398,-3.834,-3.8242,-3.8418,-3.8574,-3.8574,-3.8574,-3.8574,-3.8574,-3.8574,-3.8574,-3.8574,-3.8574,-3.8574,-3.8574,-3.8574,-3.8574,-3.8574,-3.8574,-3.8574,-3.8574,-3.8574,-3.8574,-3.8574,-3.8574,-3.8574,-3.8574,-3.8574,-3.8574,-3.8574,-3.8574,-3.8574,-3.8574,-3.8574,-3.8574,-3.8574,-3.8574,-3.8574,-3.8574,-3.8613,-3.8652,-3.8769,-3.872,-3.8754,-3.9086,-3.9375,-3.951,-3.9736,-3.9453,-3.9295,-3.8961,-3.8469,-3.7993,-3.7179,-3.662,-3.6682,-3.6522,-3.5379,-3.4408,-4.5254,-4.6532,-4.5118,-4.5389,-4.6465,-4.6798,-4.613,-4.4982,-4.6197,-4.5095,-4.236,-4.215,-4.082,-3.9347,-3.9499,-3.951,-3.9394,-4.0059,-4.0449,-4.0586,-4.0879,-4.1094,-4.0859,-4.0215,-3.9434,-3.8691,-3.8574,-3.8574,-3.8574,-3.8574,-3.8574,-3.8574,-3.8574,-3.8613,-3.8652,-3.8633,-3.8691,-3.8828,-3.9082,-3.9238,-3.9258,-3.9609,-3.9863,-3.9922,-3.9922,-3.998,-4.0059,-4.0,-3.9941,-3.9941,-3.998,-4.0019,-3.998,-3.9961,-3.9668,-3.9219,-3.9199,-3.8906,-3.8652,-3.8555,-3.8574,-3.8574,-3.8574,-3.8574,-3.8574,-3.8574,-3.8574,-3.8574,-3.8574,-3.8574,-3.8574,-3.8574,-3.8574,-3.8574,-3.8574,-3.8574,-3.8574,-3.8574,-3.8574,-3.8574,-3.8574,-3.8574,-3.8574,-3.8574,-3.8574,-3.8574,-3.8574,-3.8574,-3.8574,-3.8574,-3.8574,-3.8574,-3.8574,-3.8574,-3.8574,-3.8789,-3.8867,-3.9004,-3.9219,-3.9668,-3.998,-4.0312,-4.0586,-4.088,-4.0997,-4.1016,-4.0841,-4.0021,-3.9864,-3.9629,-3.9531,-3.9707,-3.8961,-3.7578,-3.6362,-4.6398,-4.6865,-4.7797,-4.7641,-4.7088,-4.8191,-4.8608,-4.8216,-4.8542,-4.7353,-4.5569,-4.5366,-4.358,-4.1276,-4.1203,-4.0739,-4.0235,-4.0369,-4.0527,-4.0586,-4.0976,-4.0762,-4.0332,-4.0019,-3.9434,-3.8691,-3.8594,-3.8574,-3.8574,-3.8574,-3.8594,-3.8574,-3.8613,-3.875,-3.8984,-3.9043,-3.9238,-3.9492,-3.9629,-3.9707,-3.9726,-3.9844,-4.0059,-4.0332,-4.0351,-4.0508,-4.0781,-4.084,-4.0664,-4.041,-4.0684,-4.084,-4.0762,-4.0508,-4.0156,-3.9726,-3.9375,-3.9023,-3.8691,-3.8574,-3.8574,-3.8574,-3.8574,-3.8574,-3.8574,-3.8574,-3.8574,-3.8574,-3.8574,-3.8574,-3.8574,-3.8574,-3.8574,-3.8574,-3.8574,-3.8574,-3.8574,-3.8574,-3.8574,-3.8574,-3.8574,-3.8574,-3.8574,-3.8574,-3.8574,-3.8574,-3.8574,-3.8574,-3.8574,-3.8574,-3.8574,-3.8574,-3.8574,-3.8574,-3.8652,-3.8906,-3.9101,-3.9258,-3.9629,-4.0215,-4.0469,-4.0703,-4.0918,-4.1172,-4.1094,-4.1094,-4.1172,-4.0763,-4.1172,-4.1172,-4.0997,-4.0509,-4.0021,-3.904,-3.8073,-4.7994,-4.806,-4.9177,-4.8958,-4.8126,-4.9177,-4.959,-4.959,-4.9525,-4.8542,-4.7088,-4.6798,-4.5461,-4.3355,-4.3429,-4.2731,-4.1623,-4.1822,-4.1586,-4.082,-4.1055,-4.0801,-4.0273,-4.0,-3.9512,-3.8887,-3.8652,-3.8594,-3.8574,-3.8574,-3.8672,-3.8828,-3.8828,-3.9062,-3.9473,-3.9492,-3.9609,-3.9863,-4.0039,-4.0156,-4.0156,-4.0351,-4.0547,-4.0762,-4.0801,-4.0937,-4.1152,-4.1172,-4.1035,-4.0898,-4.1035,-4.1172,-4.1152,-4.0937,-4.0527,-3.9961,-3.9629,-3.9238,-3.8711,-3.8574,-3.8574,-3.8574,-3.8574,-3.8574,-3.8574,-3.8574,-3.8574,-3.8574,-3.8574,-3.8574,-3.8574,-3.8574,-3.8574,-3.8574,-3.8574,-3.8574,-3.8574,-3.8574,-3.8574,-3.8574,-3.8574,-3.8574,-3.8574,-3.8574,-3.8574,-3.8574,-3.8574,-3.8574,-3.8574,-3.8574,-3.8574,-3.8574,-3.8594,-3.8594,-3.8652,-3.8848,-3.9394,-3.959,-4.0078,-4.0684,-4.0801,-4.0976,-4.1074,-4.1172,-4.1172,-4.1172,-4.1172,-4.1172,-4.1172,-4.1172,-4.1172,-4.1094,-4.0607,-4.0275,-3.9374,-4.959,-4.959,-4.959,-4.959,-4.9525,-4.959,-4.959,-4.959,-4.959,-4.8763,-4.7509,-4.7202,-4.6643,-4.5294,-4.5743,-4.5213,-4.3859,-4.4144,-4.3353,-4.2673,-4.2233,-4.1935,-4.1039,-4.019,-3.9645,-3.9043,-3.8711,-3.8672,-3.8691,-3.8691,-3.8906,-3.918,-3.9277,-3.9531,-3.9863,-3.9961,-3.998,-4.0176,-4.0449,-4.0586,-4.0644,-4.0859,-4.1016,-4.1055,-4.1094,-4.1113,-4.1152,-4.1172,-4.1152,-4.1152,-4.1172,-4.1172,-4.1172,-4.1172,-4.0742,-4.0078,-3.9805,-3.9473,-3.8769,-3.8574,-3.8574,-3.8574,-3.8574,-3.8574,-3.8574,-3.8574,-3.8574,-3.8574,-3.8574,-3.8574,-3.8574,-3.8574,-3.8574,-3.8574,-3.8574,-3.8574,-3.8574,-3.8574,-3.8574,-3.8574,-3.8574,-3.8574,-3.8574,-3.8574,-3.8574,-3.8574,-3.8574,-3.8574,-3.8574,-3.8574,-3.8574,-3.8574,-3.8594,-3.8613,-3.8691,-3.8789,-3.9453,-3.9961,-4.0547,-4.1016,-4.1016,-4.1113,-4.1133,-4.1172,-4.1172,-4.1172,-4.1172,-4.1172,-4.1172,-4.1172,-4.1172,-4.1172,-4.1094,-4.0919,-4.0275,-4.959,-4.959,-4.959,-4.959,-4.959,-4.959,-4.959,-4.959,-4.959,-4.9307,-4.9122,-4.9404,-4.8761,-4.7582,-4.8006,-4.7551,-4.6293,-4.6249,-4.6093,-4.5945,-4.5723,-4.4571,-4.2828,-4.1038,-3.9567,-3.9019,-3.8652,-3.8769,-3.8984,-3.9101,-3.9297,-3.9687,-3.9766,-3.9961,-4.0332,-4.041,-4.0586,-4.084,-4.0976,-4.0996,-4.0996,-4.1074,-4.1172,-4.1172,-4.1172,-4.1172,-4.1172,-4.1172,-4.1172,-4.1172,-4.1172,-4.1172,-4.1172,-4.1172,-4.0762,-4.0156,-3.9883,-3.9512,-3.8789,-3.8594,-3.8574,-3.8574,-3.8574,-3.8574,-3.8574,-3.8574,-3.8574,-3.8574,-3.8574,-3.8574,-3.8574,-3.8574,-3.8574,-3.8574,-3.8574,-3.8574,-3.8574,-3.8574,-3.8574,-3.8574,-3.8574,-3.8574,-3.8574,-3.8574,-3.8574,-3.8574,-3.8574,-3.8574,-3.8574,-3.8574,-3.8574,-3.8574,-3.8594,-3.8633,-3.8828,-3.9023,-3.9609,-4.0156,-4.0742,-4.1172,-4.1172,-4.1172,-4.1172,-4.1172,-4.1172,-4.1172,-4.1172,-4.1172,-4.1172,-4.1172,-4.1172,-4.1172,-4.1172,-4.1172,-4.1172,-4.959,-4.959,-4.959,-4.959,-4.959,-4.959,-4.959,-4.959,-4.959,-4.959,-4.9715,-5.0167,-5.0099,-4.9786,-5.0162,-4.9743,-4.839,-4.7394,-4.6955,-4.6882,-4.6882,-4.6175,-4.4798,-4.2675,-4.0887,-3.9515,-3.8965,-3.9121,-3.9414,-3.9551,-3.9746,-4.0156,-4.0195,-4.043,-4.0762,-4.082,-4.0918,-4.1074,-4.1172,-4.1172,-4.1172,-4.1172,-4.1172,-4.1172,-4.1172,-4.1172,-4.1172,-4.1172,-4.1172,-4.1172,-4.1172,-4.1172,-4.1172,-4.1152,-4.082,-4.0332,-3.9961,-3.9609,-3.9043,-3.8691,-3.8574,-3.8574,-3.8574,-3.8574,-3.8574,-3.8574,-3.8574,-3.8574,-3.8574,-3.8574,-3.8574,-3.8574,-3.8574,-3.8574,-3.8574,-3.8574,-3.8574,-3.8574,-3.8574,-3.8574,-3.8574,-3.8574,-3.8574,-3.8574,-3.8574,-3.8574,-3.8574,-3.8574,-3.8574,-3.8574,-3.8574,-3.8574,-3.8574,-3.8672,-3.8926,-3.9277,-3.9805,-4.0273,-4.0703,-4.1035,-4.1172,-4.1172,-4.1172,-4.1172,-4.1172,-4.1172,-4.1172,-4.1172,-4.1172,-4.1172,-4.1172,-4.1172,-4.1172,-4.1172,-4.1172,-4.959,-4.959,-4.959,-4.959,-4.959,-4.959,-4.959,-4.959,-4.959,-4.959,-4.9741,-5.0243,-5.0738,-5.1281,-5.1865,-5.1398,-5.0314,-4.9105,-4.8601,-4.8763,-4.8763,-4.8194,-4.7006,-4.5105,-4.2915,-4.0698,-3.97,-3.959,-3.9883,-4.0019,-4.0215,-4.0547,-4.0625,-4.0781,-4.1074,-4.1152,-4.1133,-4.1172,-4.1172,-4.1172,-4.1172,-4.1172,-4.1172,-4.1172,-4.1172,-4.1172,-4.1172,-4.1172,-4.1172,-4.1172,-4.1172,-4.1172,-4.1172,-4.1152,-4.0976,-4.0547,-4.0195,-3.9766,-3.9238,-3.8887,-3.8691,-3.8613,-3.8574,-3.8574,-3.8574,-3.8574,-3.8574,-3.8574,-3.8574,-3.8574,-3.8574,-3.8574,-3.8574,-3.8574,-3.8574,-3.8574,-3.8574,-3.8574,-3.8574,-3.8574,-3.8574,-3.8574,-3.8574,-3.8574,-3.8574,-3.8574,-3.8574,-3.8574,-3.8574,-3.8574,-3.8574,-3.8574,-3.8574,-3.8965,-3.9258,-3.9824,-4.0312,-4.0469,-4.082,-4.0976,-4.1172,-4.1172,-4.1172,-4.1172,-4.1172,-4.1172,-4.1172,-4.1172,-4.1172,-4.1172,-4.1172,-4.1172,-4.1172,-4.1172,-4.1172,-4.959,-4.959,-4.959,-4.959,-4.959,-4.959,-4.959,-4.959,-4.959,-4.959,-4.9741,-5.067,-5.1147,-5.1523,-5.2377,-5.2529,-5.2025,-5.1446,-5.1687,-5.1981,-5.1983,-5.1436,-4.9792,-4.7636,-4.5505,-4.3323,-4.1554,-4.0567,-4.0332,-4.043,-4.0625,-4.0976,-4.1035,-4.1113,-4.1133,-4.1172,-4.1172,-4.1172,-4.1172,-4.1172,-4.123,-4.123,-4.1191,-4.1191,-4.1172,-4.1172,-4.1172,-4.1172,-4.1172,-4.1172,-4.1172,-4.1327,-4.1618,-4.1618,-4.1266,-4.0644,-4.06,-4.0243,-3.9449,-3.9121,-3.8887,-3.8691,-3.8574,-3.8574,-3.8574,-3.8574,-3.8574,-3.8574,-3.8574,-3.8574,-3.8574,-3.8574,-3.8574,-3.8574,-3.8574,-3.8574,-3.8574,-3.8574,-3.8574,-3.8574,-3.8574,-3.8574,-3.8574,-3.8574,-3.8574,-3.8574,-3.8574,-3.8574,-3.8574,-3.8574,-3.8574,-3.8574,-3.8574,-3.9101,-3.9629,-4.0332,-4.0879,-4.0801,-4.0976,-4.1035,-4.1172,-4.1172,-4.1172,-4.1172,-4.1172,-4.1172,-4.1172,-4.1172,-4.1172,-4.1172,-4.1172,-4.1172,-4.1172,-4.1172,-4.1172,-4.959,-4.959,-4.959,-4.959,-4.959,-4.959,-4.959,-4.959,-4.959,-4.959,-4.9941,-5.0745,-5.1272,-5.1574,-5.2427,-5.2836,-5.298,-5.3256,-5.3457,-5.3733,-5.3914,-5.3653,-5.2252,-5.0029,-4.8569,-4.6911,-4.4823,-4.2275,-4.0994,-4.0859,-4.1034,-4.1094,-4.1172,-4.1172,-4.1172,-4.1172,-4.1172,-4.1172,-4.1172,-4.1367,-4.1543,-4.1563,-4.1406,-4.1308,-4.125,-4.1172,-4.1172,-4.1172,-4.1753,-4.2483,-4.2693,-4.3228,-4.3815,-4.3945,-4.3201,-4.1549,-4.1399,-4.0998,-3.981,-3.9219,-3.875,-3.8633,-3.8647,-3.8574,-3.8574,-3.8574,-3.8574,-3.8574,-3.8574,-3.8574,-3.8574,-3.8574,-3.8574,-3.8574,-3.8574,-3.8574,-3.8574,-3.8574,-3.8574,-3.8574,-3.8574,-3.8574,-3.8574,-3.8574,-3.8574,-3.8574,-3.8574,-3.8574,-3.8574,-3.8574,-3.8574,-3.8672,-3.873,-3.9238,-3.9824,-4.0469,-4.1035,-4.1055,-4.1094,-4.1152,-4.1172,-4.1172,-4.1172,-4.1172,-4.1172,-4.1172,-4.1172,-4.1172,-4.1172,-4.1172,-4.1172,-4.1172,-4.1172,-4.1172,-4.1172,-4.959,-4.959,-4.959,-4.959,-4.959,-4.959,-4.959,-4.959,-4.959,-4.9665,-4.9916,-5.0795,-5.1348,-5.1724,-5.2477,-5.3105,-5.313,-5.3632,-5.3959,-5.421,-5.4536,-5.4486,-5.379,-5.2111,-5.0433,-4.9572,-4.7394,-4.5223,-4.2576,-4.2002,-4.1656,-4.1327,-4.1172,-4.1172,-4.1172,-4.1172,-4.1172,-4.1172,-4.1172,-4.1465,-4.221,-4.1916,-4.2189,-4.2356,-4.2122,-4.1907,-4.2042,-4.2637,-4.3075,-4.389,-4.4473,-4.5351,-4.6735,-4.7321,-4.5945,-4.3256,-4.3171,-4.2299,-4.0915,-3.9937,-3.9407,-3.8739,-3.8991,-3.8991,-3.8574,-3.8574,-3.8574,-3.8574,-3.8574,-3.8574,-3.8574,-3.8574,-3.8574,-3.8574,-3.8574,-3.8574,-3.8574,-3.8574,-3.8574,-3.8574,-3.8574,-3.8574,-3.8574,-3.8574,-3.8574,-3.8574,-3.8574,-3.8574,-3.8574,-3.8574,-3.8613,-3.875,-3.8965,-3.9414,-3.9922,-4.043,-4.0859,-4.0996,-4.1074,-4.1152,-4.1172,-4.1172,-4.1172,-4.1172,-4.1172,-4.1172,-4.1172,-4.1172,-4.1172,-4.1172,-4.1172,-4.1172,-4.1172,-4.1172,-4.1172,-4.959,-4.959,-4.959,-4.959,-4.959,-4.959,-4.959,-4.959,-4.959,-4.9891,-5.0293,-5.1021,-5.1599,-5.2277,-5.3155,-5.3582,-5.3783,-5.4185,-5.4637,-5.4963,-5.5189,-5.5415,-5.5251,-5.2793,-5.185,-5.1129,-4.8733,-4.5989,-4.4096,-4.3663,-4.2637,-4.154,-4.1172,-4.1172,-4.1172,-4.1172,-4.1172,-4.125,-4.1425,-4.2436,-4.3798,-4.2672,-4.3849,-4.5233,-4.4911,-4.3739,-4.3945,-4.4849,-4.55,-4.4677,-4.5923,-4.6662,-4.7248,-4.8794,-4.8289,-4.6894,-4.5881,-4.4794,-4.2857,-4.1845,-4.0843,-3.9991,-4.0228,-3.9962,-3.9405,-3.8918,-3.8846,-3.8574,-3.8574,-3.8574,-3.8574,-3.8574,-3.8574,-3.8574,-3.8574,-3.8574,-3.8574,-3.8574,-3.8574,-3.8574,-3.8574,-3.8574,-3.8574,-3.8574,-3.8574,-3.8574,-3.8574,-3.8574,-3.8574,-3.8574,-3.8828,-3.9023,-3.9277,-3.9726,-4.0195,-4.0664,-4.082,-4.0976,-4.1055,-4.1172,-4.1172,-4.1172,-4.1172,-4.1172,-4.1172,-4.1172,-4.1172,-4.1172,-4.1172,-4.1172,-4.1172,-4.1172,-4.1172,-4.1172,-4.1172,-4.959,-4.959,-4.959,-4.959,-4.959,-4.959,-4.959,-4.959,-4.9615,-4.9916,-5.0544,-5.1398,-5.2352,-5.3381,-5.4059,-5.4185,-5.431,-5.4787,-5.5139,-5.5465,-5.5666,-5.5817,-5.5346,-5.4171,-5.3246,-5.2327,-5.1008,-4.8768,-4.6588,-4.4473,-4.3075,-4.1463,-4.1172,-4.1172,-4.125,-4.125,-4.1907,-4.3009,-4.4405,-4.5522,-4.5826,-4.5707,-4.5923,-4.7313,-4.6352,-4.5871,-4.5998,-4.6293,-4.7394,-4.7175,-4.8434,-4.9296,-5.0198,-5.1163,-5.1068,-5.0574,-4.9525,-4.7656,-4.4909,-4.4042,-4.2806,-4.218,-4.2241,-4.2031,-4.0657,-4.0033,-3.955,-3.8647,-3.8574,-3.8574,-3.8574,-3.8574,-3.8574,-3.8574,-3.8574,-3.8574,-3.8574,-3.8574,-3.8574,-3.8574,-3.8574,-3.8574,-3.8574,-3.8574,-3.8574,-3.8574,-3.8574,-3.8574,-3.8574,-3.8574,-3.8945,-3.9434,-3.9707,-4.0039,-4.0527,-4.0996,-4.0996,-4.1094,-4.1094,-4.1172,-4.1172,-4.1172,-4.1172,-4.1172,-4.1172,-4.1172,-4.1172,-4.1172,-4.1172,-4.1172,-4.1172,-4.1172,-4.1172,-4.1191,-4.1328,-4.959,-4.959,-4.959,-4.959,-4.959,-4.959,-4.959,-4.9615,-4.9766,-5.0193,-5.1046,-5.2176,-5.3482,-5.4361,-5.4662,-5.4762,-5.4813,-5.534,-5.5541,-5.5767,-5.5917,-5.5942,-5.5519,-5.4917,-5.429,-5.3884,-5.2814,-5.067,-4.8289,-4.6293,-4.4548,-4.1405,-4.1172,-4.1172,-4.1308,-4.1985,-4.306,-4.5126,-4.6906,-4.785,-4.822,-4.8142,-4.8384,-4.8461,-4.814,-4.7759,-4.7781,-4.8506,-4.9534,-4.9391,-5.041,-5.1303,-5.2258,-5.2316,-5.2285,-5.188,-5.1166,-4.9762,-4.7442,-4.6059,-4.505,-4.4388,-4.4162,-4.3473,-4.3035,-4.215,-4.0992,-3.955,-3.8793,-3.872,-3.8574,-3.8574,-3.8574,-3.8574,-3.8574,-3.8574,-3.8574,-3.8574,-3.8574,-3.8574,-3.8574,-3.8574,-3.8574,-3.8574,-3.8574,-3.8574,-3.8574,-3.8574,-3.8613,-3.8633,-3.8984,-3.9512,-3.998,-4.0254,-4.0586,-4.0976,-4.1055,-4.1172,-4.1172,-4.1172,-4.1172,-4.1172,-4.1172,-4.1172,-4.1172,-4.1172,-4.1172,-4.1172,-4.1172,-4.1172,-4.1172,-4.1172,-4.1172,-4.123,-4.1523,-4.959,-4.959,-4.9615,-4.9615,-4.9615,-4.959,-4.9615,-4.9715,-5.0167,-5.0996,-5.2126,-5.3532,-5.4381,-5.4737,-5.5139,-5.534,-5.5365,-5.5917,-5.6043,-5.6093,-5.6194,-5.6143,-5.5742,-5.5139,-5.4582,-5.426,-5.3362,-5.1702,-5.0127,-4.8938,-4.5797,-4.2062,-4.1907,-4.1463,-4.2082,-4.3594,-4.5406,-4.7314,-4.8708,-4.9855,-5.001,-4.996,-4.9899,-5.1771,-5.0958,-4.9819,-4.989,-5.1068,-5.1373,-5.0481,-5.1513,-5.2159,-5.2591,-5.2477,-5.2327,-5.2,-5.1548,-5.0439,-4.926,-4.7753,-4.6025,-4.4801,-4.4505,-4.5118,-4.5298,-4.2896,-4.1538,-4.1113,-4.03,-3.9405,-3.9063,-3.8647,-3.9063,-3.8991,-3.8991,-3.8574,-3.8574,-3.8574,-3.8574,-3.8574,-3.8574,-3.8574,-3.8574,-3.8574,-3.8574,-3.8574,-3.8574,-3.8574,-3.8711,-3.8789,-3.9043,-3.9492,-4.0098,-4.041,-4.0547,-4.0801,-4.1094,-4.1172,-4.1172,-4.1172,-4.1172,-4.1172,-4.1172,-4.1172,-4.1172,-4.1172,-4.1172,-4.1172,-4.1172,-4.1172,-4.1172,-4.1211,-4.1406,-4.1582,-4.1894,-4.959,-4.964,-4.9941,-4.9916,-4.9615,-4.9967,-5.0092,-5.0193,-5.072,-5.1774,-5.313,-5.4135,-5.4938,-5.5465,-5.5717,-5.5892,-5.5917,-5.6068,-5.6194,-5.6219,-5.6219,-5.6219,-5.5817,-5.5265,-5.4536,-5.4336,-5.3437,-5.1886,-5.0127,-5.0198,-4.8217,-4.5425,-4.3739,-4.3151,-4.3856,-4.6015,-4.8378,-4.975,-5.1269,-5.2889,-5.2376,-5.2571,-5.2421,-5.2695,-5.2665,-5.1816,-5.1886,-5.2396,-5.2327,-5.2189,-5.256,-5.2616,-5.2503,-5.2201,-5.1925,-5.1574,-5.1046,-5.067,-5.0469,-4.9438,-4.8516,-4.7911,-4.7533,-4.7311,-4.7154,-4.5231,-4.4071,-4.3266,-4.2312,-4.1488,-4.1912,-4.0992,-4.03,-4.0033,-3.9602,-3.9208,-3.8991,-3.9208,-3.9353,-3.9694,-3.9063,-3.8574,-3.8574,-3.8574,-3.8574,-3.8574,-3.8574,-3.8613,-3.8769,-3.9023,-3.9316,-3.9668,-4.0273,-4.0664,-4.082,-4.0996,-4.1172,-4.1172,-4.1172,-4.1172,-4.1172,-4.1172,-4.1172,-4.1172,-4.1172,-4.1172,-4.1172,-4.1172,-4.1172,-4.1172,-4.123,-4.1289,-4.1543,-4.1855,-4.2246,-4.9841,-4.9891,-5.0444,-5.0368,-4.9941,-5.0444,-5.067,-5.077,-5.1272,-5.2452,-5.3984,-5.4587,-5.5315,-5.6018,-5.6194,-5.6194,-5.6168,-5.6194,-5.6219,-5.6219,-5.6219,-5.6219,-5.5892,-5.539,-5.4762,-5.4411,-5.3638,-5.2272,-5.1163,-5.0928,-4.9605,-4.7999,-4.6588,-4.5871,-4.5788,-4.8369,-5.0962,-5.2402,-5.3607,-5.4838,-5.4039,-5.4144,-5.3798,-5.3155,-5.2723,-5.2723,-5.2629,-5.2861,-5.2861,-5.2723,-5.2785,-5.256,-5.2277,-5.19,-5.1574,-5.1046,-5.0544,-5.0193,-5.0193,-5.0142,-4.9992,-4.9162,-4.9242,-4.8608,-4.7994,-4.7154,-4.5727,-4.505,-4.4436,-4.4185,-4.4185,-4.2801,-4.2171,-4.1961,-4.163,-4.1205,-4.0728,-4.0728,-4.0728,-4.08,-4.0177,-3.9818,-4.03,-4.03,-3.9136,-3.8991,-3.8574,-3.8711,-3.8965,-3.9258,-3.9648,-4.0039,-4.0508,-4.084,-4.1113,-4.1152,-4.1172,-4.1172,-4.1172,-4.1172,-4.1172,-4.1172,-4.1172,-4.1172,-4.1172,-4.1172,-4.1172,-4.1172,-4.1172,-4.1172,-4.125,-4.1328,-4.168,-4.2012,-4.2461,-5.0393,-5.0469,-5.1021,-5.0946,-5.0544,-5.1021,-5.1272,-5.1348,-5.1875,-5.298,-5.4411,-5.5013,-5.5591,-5.6093,-5.6219,-5.6219,-5.6219,-5.6219,-5.6219,-5.6219,-5.6219,-5.6219,-5.5993,-5.5566,-5.4963,-5.4511,-5.3884,-5.3167,-5.256,-5.2327,-5.1303,-5.0481,-4.9463,-4.8624,-4.7344,-4.9056,-5.158,-5.4031,-5.4591,-5.4712,-5.4511,-5.4511,-5.3959,-5.3206,-5.2861,-5.2861,-5.2861,-5.2861,-5.2861,-5.2861,-5.2804,-5.2503,-5.2051,-5.1523,-5.1046,-5.0469,-4.9967,-4.969,-4.964,-4.964,-4.964,-4.9615,-4.959,-4.9332,-4.9047,-4.8126,-4.7088,-4.6689,-4.575,-4.4801,-4.439,-4.4185,-4.4094,-4.3818,-4.3473,-4.287,-4.2312,-4.2031,-4.2101,-4.2101,-4.182,-4.1679,-4.229,-4.2241,-4.0443,-3.9478,-3.8865,-3.8769,-3.9082,-3.9453,-3.9844,-4.0273,-4.0684,-4.0918,-4.1152,-4.1152,-4.1172,-4.1172,-4.1172,-4.1172,-4.1172,-4.1172,-4.1172,-4.1172,-4.1172,-4.1172,-4.1172,-4.1172,-4.123,-4.1289,-4.1269,-4.1406,-4.1758,-4.2207,-4.2695,-5.0645,-5.1046,-5.1599,-5.1724,-5.1574,-5.1724,-5.1825,-5.1925,-5.2452,-5.3381,-5.4411,-5.4813,-5.539,-5.5968,-5.6219,-5.6219,-5.6219,-5.6219,-5.6219,-5.6219,-5.6219,-5.6219,-5.6043,-5.5691,-5.5114,-5.4536,-5.3984,-5.3507,-5.2792,-5.2911,-5.2723,-5.2025,-5.1537,-5.1051,-5.058,-5.168,-5.3985,-5.4992,-5.5365,-5.5365,-5.4687,-5.4511,-5.4059,-5.2936,-5.2861,-5.2861,-5.2861,-5.2861,-5.2861,-5.2854,-5.2703,-5.2176,-5.1649,-5.1071,-5.0494,-5.0042,-4.9615,-4.9615,-4.959,-4.9615,-4.9615,-4.964,-4.964,-4.9665,-4.9396,-4.9112,-4.8698,-4.8616,-4.7877,-4.7455,-4.7821,-4.6512,-4.6019,-4.5524,-4.5027,-4.4094,-4.3473,-4.3404,-4.3357,-4.3426,-4.3266,-4.3127,-4.3473,-4.2918,-4.1347,-3.9858,-3.9123,-3.8941,-3.918,-3.957,-4.0056,-4.041,-4.0781,-4.1016,-4.1172,-4.1172,-4.1172,-4.1172,-4.1172,-4.1172,-4.1172,-4.1172,-4.1172,-4.1172,-4.1172,-4.1172,-4.1191,-4.123,-4.1387,-4.1445,-4.1562,-4.1758,-4.2148,-4.2578,-4.3027,-5.1222,-5.1624,-5.2151,-5.2402,-5.2377,-5.2402,-5.2402,-5.2452,-5.2804,-5.3557,-5.4386,-5.4587,-5.5189,-5.5942,-5.6219,-5.6219,-5.6219,-5.6219,-5.6219,-5.6219,-5.6219,-5.6219,-5.6068,-5.5817,-5.529,-5.4712,-5.4386,-5.4009,-5.3281,-5.3206,-5.2942,-5.2817,-5.2886,-5.2565,-5.2536,-5.3548,-5.434,-5.4963,-5.5315,-5.5365,-5.4813,-5.4411,-5.4009,-5.3256,-5.2861,-5.2861,-5.2861,-5.2861,-5.2861,-5.2779,-5.2402,-5.185,-5.1297,-5.0745,-5.0167,-4.9791,-4.9816,-4.9941,-5.0193,-5.0268,-5.0318,-5.0293,-5.0017,-4.9992,-5.0117,-5.0162,-5.0137,-5.0112,-5.0142,-5.0077,-4.9791,-4.8349,-4.8052,-4.7652,-4.7175,-4.6323,-4.5887,-4.5843,-4.5526,-4.5458,-4.5141,-4.4914,-4.4162,-4.3079,-4.1961,-4.0647,-3.94,-3.9425,-3.9519,-3.9987,-4.0325,-4.0547,-4.0879,-4.1074,-4.1172,-4.1172,-4.1172,-4.1172,-4.1172,-4.1172,-4.1172,-4.1172,-4.1172,-4.1172,-4.1172,-4.1172,-4.1211,-4.1308,-4.1543,-4.1836,-4.2109,-4.2324,-4.2598,-4.291,-4.3262,-5.2101,-5.2201,-5.2703,-5.2836,-5.2836,-5.2854,-5.2879,-5.2929,-5.2955,-5.3582,-5.4632,-5.4612,-5.5265,-5.6068,-5.6219,-5.6219,-5.6219,-5.6219,-5.6219,-5.6219,-5.6219,-5.6219,-5.6219,-5.6093,-5.5516,-5.5114,-5.4813,-5.4561,-5.3808,-5.3557,-5.3331,-5.3055,-5.3055,-5.3178,-5.3553,-5.4069,-5.4436,-5.5089,-5.544,-5.529,-5.4737,-5.4536,-5.3934,-5.3281,-5.2861,-5.2861,-5.2861,-5.2861,-5.2861,-5.2754,-5.2402,-5.1875,-5.1322,-5.077,-5.0193,-4.9992,-5.0243,-5.0645,-5.0971,-5.0996,-5.1147,-5.1046,-5.0795,-5.0896,-5.0946,-5.0971,-5.0896,-5.0921,-5.0896,-5.1046,-5.0897,-5.0705,-5.0489,-5.0207,-4.9983,-4.9405,-4.8953,-4.8608,-4.8206,-4.7828,-4.7269,-4.6622,-4.505,-4.3818,-4.2731,-4.1055,-4.0092,-4.0371,-4.0492,-4.0833,-4.1048,-4.0723,-4.0976,-4.1113,-4.1172,-4.1172,-4.1172,-4.1172,-4.1172,-4.1172,-4.1172,-4.1172,-4.1172,-4.1172,-4.1172,-4.123,-4.1367,-4.1562,-4.1777,-4.2109,-4.2519,-4.2656,-4.2851,-4.3066,-4.3359,-5.2327,-5.2703,-5.2854,-5.2861,-5.2861,-5.2861,-5.2861,-5.298,-5.3306,-5.3909,-5.4587,-5.4988,-5.5491,-5.6168,-5.6219,-5.6219,-5.6219,-5.6219,-5.6219,-5.6219,-5.6219,-5.6219,-5.6219,-5.6168,-5.5717,-5.5415,-5.5189,-5.5064,-5.4336,-5.3984,-5.3482,-5.303,-5.3331,-5.3582,-5.3858,-5.4386,-5.5013,-5.5516,-5.5792,-5.5315,-5.4787,-5.4561,-5.3858,-5.3256,-5.2861,-5.2861,-5.2861,-5.2861,-5.2861,-5.2804,-5.2377,-5.195,-5.1875,-5.1348,-5.0896,-5.087,-5.0996,-5.1122,-5.1247,-5.1297,-5.1473,-5.18,-5.1649,-5.1423,-5.1398,-5.1398,-5.1398,-5.1498,-5.1523,-5.1574,-5.1599,-5.1498,-5.1373,-5.1197,-5.1021,-5.0779,-5.0297,-5.0006,-4.9578,-4.9264,-4.8748,-4.7575,-4.5996,-4.4778,-4.3542,-4.158,-4.074,-4.1193,-4.1363,-4.169,-4.1881,-4.1549,-4.1035,-4.1152,-4.1172,-4.1172,-4.1172,-4.1172,-4.1172,-4.1172,-4.1172,-4.1172,-4.1172,-4.1211,-4.1289,-4.1445,-4.1621,-4.1855,-4.2148,-4.2539,-4.293,-4.3008,-4.3105,-4.3301,-4.3437,-5.2628,-5.2836,-5.2861,-5.2861,-5.2861,-5.2861,-5.303,-5.3231,-5.3356,-5.3808,-5.4561,-5.4888,-5.5491,-5.6143,-5.6219,-5.6219,-5.6219,-5.6219,-5.6219,-5.6219,-5.6219,-5.6219,-5.6219,-5.6168,-5.5842,-5.5616,-5.5465,-5.534,-5.4687,-5.4235,-5.3758,-5.3055,-5.3607,-5.3783,-5.4034,-5.4737,-5.5541,-5.5942,-5.6018,-5.5516,-5.5013,-5.4536,-5.3884,-5.3181,-5.2886,-5.2861,-5.2861,-5.2861,-5.2854,-5.2653,-5.2176,-5.1975,-5.185,-5.1423,-5.1473,-5.1473,-5.1574,-5.1774,-5.1975,-5.2,-5.2176,-5.2327,-5.2402,-5.2277,-5.2126,-5.2101,-5.2076,-5.2076,-5.2026,-5.1975,-5.195,-5.1925,-5.1774,-5.1649,-5.1574,-5.1498,-5.1247,-5.0946,-5.0604,-5.0303,-4.9495,-4.8445,-4.7178,-4.5862,-4.4664,-4.3214,-4.2689,-4.3055,-4.2818,-4.2429,-4.2716,-4.2657,-4.1788,-4.1172,-4.1172,-4.1172,-4.1172,-4.1172,-4.1172,-4.1172,-4.1172,-4.123,-4.1269,-4.1367,-4.1465,-4.1699,-4.1973,-4.2266,-4.2578,-4.2949,-4.3223,-4.332,-4.3398,-4.3496,-4.3613,-5.2861,-5.2861,-5.2861,-5.2861,-5.2861,-5.2861,-5.3206,-5.3632,-5.3256,-5.3632,-5.4536,-5.4737,-5.539,-5.6118,-5.6219,-5.6219,-5.6219,-5.6219,-5.6219,-5.6219,-5.6219,-5.6219,-5.6219,-5.6168,-5.5968,-5.5817,-5.5691,-5.5541,-5.4838,-5.4461,-5.4084,-5.308,-5.411,-5.4411,-5.426,-5.5114,-5.5742,-5.5892,-5.6018,-5.5742,-5.4988,-5.4511,-5.4084,-5.3231,-5.298,-5.2861,-5.2886,-5.2879,-5.2754,-5.2427,-5.2226,-5.2076,-5.1774,-5.1624,-5.185,-5.2,-5.2151,-5.2327,-5.2553,-5.2628,-5.2703,-5.276,-5.2861,-5.2779,-5.2628,-5.2578,-5.2553,-5.2528,-5.2477,-5.2477,-5.2477,-5.2452,-5.2352,-5.2226,-5.2151,-5.2051,-5.1875,-5.1498,-5.1046,-5.0695,-5.0062,-4.8879,-4.7287,-4.5929,-4.5254,-4.4389,-4.3972,-4.4283,-4.4679,-4.3961,-4.3573,-4.3802,-4.2896,-4.1965,-4.1172,-4.1172,-4.1172,-4.1172,-4.1405,-4.1172,-4.1172,-4.1269,-4.1406,-4.1621,-4.1855,-4.2109,-4.2383,-4.2637,-4.2871,-4.3164,-4.3418,-4.3613,-4.3691,-4.3691,-4.3691,-5.2861,-5.2861,-5.2861,-5.2861,-5.2861,-5.2861,-5.3231,-5.3683,-5.3582,-5.416,-5.5114,-5.5616,-5.5892,-5.6143,-5.6219,-5.6219,-5.6219,-5.6219,-5.6219,-5.6219,-5.6219,-5.6219,-5.6219,-5.6194,-5.6093,-5.6118,-5.5993,-5.5641,-5.4938,-5.4762,-5.4461,-5.3306,-5.4285,-5.4838,-5.421,-5.5164,-5.5917,-5.5842,-5.5993,-5.5892,-5.5315,-5.4712,-5.421,-5.3557,-5.3256,-5.2936,-5.3055,-5.3306,-5.3356,-5.3331,-5.3331,-5.3055,-5.2603,-5.2528,-5.2578,-5.2703,-5.2653,-5.2779,-5.2829,-5.2861,-5.2861,-5.2861,-5.2861,-5.2861,-5.2836,-5.2861,-5.2861,-5.2861,-5.2861,-5.2861,-5.2861,-5.2904,-5.2879,-5.2779,-5.2678,-5.2553,-5.2427,-5.195,-5.1448,-5.0946,-5.0419,-4.9142,-4.7612,-4.6579,-4.5727,-4.5005,-4.4344,-4.459,-4.6265,-4.6325,-4.509,-4.4949,-4.4154,-4.3186,-4.233,-4.2082,-4.2544,-4.2296,-4.2393,-4.191,-4.1444,-4.1934,-4.2446,-4.2209,-4.2324,-4.2558,-4.2734,-4.291,-4.3144,-4.3398,-4.3516,-4.3672,-4.3691,-4.3691,-4.3691,-5.2861,-5.2861,-5.2861,-5.2861,-5.298,-5.3181,-5.3582,-5.4059,-5.4336,-5.4938,-5.5641,-5.5842,-5.5968,-5.6168,-5.6219,-5.6219,-5.6219,-5.6219,-5.6219,-5.6219,-5.6219,-5.6219,-5.6219,-5.6219,-5.6194,-5.6194,-5.5892,-5.5465,-5.4963,-5.4737,-5.4336,-5.3607,-5.4561,-5.5013,-5.4361,-5.539,-5.6068,-5.5817,-5.6093,-5.5993,-5.5616,-5.5013,-5.431,-5.3733,-5.3306,-5.3105,-5.3306,-5.3582,-5.3632,-5.3582,-5.3406,-5.3432,-5.3105,-5.298,-5.2836,-5.2836,-5.2836,-5.2861,-5.2861,-5.2861,-5.2861,-5.2861,-5.2861,-5.2861,-5.2861,-5.2861,-5.2861,-5.2861,-5.2861,-5.2861,-5.2861,-5.2836,-5.2836,-5.2854,-5.2829,-5.2779,-5.2578,-5.2226,-5.19,-5.1599,-5.1071,-5.0347,-4.9166,-4.8854,-4.8094,-4.7762,-4.6808,-4.7014,-4.8315,-4.8913,-4.7626,-4.6703,-4.6345,-4.5596,-4.4827,-4.4612,-4.4676,-4.4209,-4.3766,-4.3875,-4.404,-4.3702,-4.3632,-4.3519,-4.3318,-4.2949,-4.3125,-4.3549,-4.3441,-4.3574,-4.3633,-4.3691,-4.3691,-4.3691,-4.3691,-5.2861,-5.2861,-5.2861,-5.2861,-5.3005,-5.3482,-5.4009,-5.4587,-5.5114,-5.5641,-5.6068,-5.5742,-5.5842,-5.6068,-5.6219,-5.6219,-5.6219,-5.6219,-5.6219,-5.6219,-5.6219,-5.6219,-5.6219,-5.6219,-5.6219,-5.6093,-5.5842,-5.5491,-5.5089,-5.4913,-5.4612,-5.4084,-5.4461,-5.5114,-5.5064,-5.5541,-5.6143,-5.6093,-5.6194,-5.6219,-5.5767,-5.5239,-5.4536,-5.3884,-5.3381,-5.3306,-5.3557,-5.3783,-5.3808,-5.3808,-5.3658,-5.3432,-5.3281,-5.3105,-5.3005,-5.2861,-5.2861,-5.2861,-5.2861,-5.2861,-5.2861,-5.2861,-5.2861,-5.2861,-5.2861,-5.2861,-5.2861,-5.2861,-5.2861,-5.2861,-5.2861,-5.2861,-5.2861,-5.2861,-5.2861,-5.2861,-5.2703,-5.2503,-5.2327,-5.2101,-5.1649,-5.103,-5.0729,-5.0503,-5.0303,-5.0067,-5.0293,-5.0896,-5.128,-5.1245,-5.0666,-5.0056,-4.974,-4.8872,-4.7326,-4.7017,-4.6823,-4.6655,-4.6269,-4.6452,-4.6536,-4.6201,-4.5733,-4.5101,-4.4805,-4.4886,-4.446,-4.456,-4.4373,-4.3939,-4.3691,-4.3691,-4.3691,-4.3691,-4.3691,-5.2861,-5.2861,-5.2861,-5.2861,-5.3005,-5.3507,-5.4034,-5.4587,-5.5164,-5.5691,-5.6068,-5.6143,-5.6143,-5.6219,-5.6219,-5.6219,-5.6219,-5.6219,-5.6219,-5.6219,-5.6219,-5.6219,-5.6219,-5.6219,-5.6219,-5.6118,-5.5942,-5.5566,-5.5164,-5.5064,-5.4486,-5.3356,-5.4712,-5.5114,-5.4863,-5.5491,-5.6219,-5.6219,-5.6219,-5.6219,-5.6068,-5.5541,-5.5013,-5.4411,-5.3884,-5.3733,-5.3783,-5.4185,-5.4612,-5.4762,-5.4461,-5.3833,-5.3381,-5.308,-5.2955,-5.2861,-5.2861,-5.2861,-5.2861,-5.2861,-5.2861,-5.2861,-5.2861,-5.2861,-5.2861,-5.2861,-5.2861,-5.2861,-5.2861,-5.2861,-5.2861,-5.2861,-5.2861,-5.2861,-5.2861,-5.2861,-5.2829,-5.2729,-5.2603,-5.2377,-5.2051,-5.1599,-5.1222,-5.1147,-5.1247,-5.1096,-5.1272,-5.1875,-5.2503,-5.2986,-5.3298,-5.2985,-5.2543,-5.0622,-4.8583,-4.8885,-4.8822,-4.8734,-4.8915,-4.911,-4.9108,-4.8761,-4.8177,-4.7261,-4.7511,-4.7813,-4.7246,-4.6001,-4.5128,-4.4638,-4.3939,-4.3691,-4.3691,-4.3691,-4.3691]},{"header":{"parameterUnit":"m.s-1","parameterCategory":1,"la1":31.0,"la2":29.5877,"lo1":-88.7671,"lo2":-86.6584,"dx":0.0162,"dy":0.0185,"nx":115,"ny":88,"refTime":"2023-02-02T06:00:00:Z","depth":0,"parameterNumber":3,"parameterNumberName":"V-component_of_WINDS"},"data":[0.0,0.0,0.0,0.0,0.0,0.0,0.0,0.0,0.0,0.0,0.0,0.0,0.0,0.0,0.0,0.0,0.0,0.0,0.0,0.0,0.0,0.0,0.0,0.0,0.0,0.0,0.0,0.0,0.0,0.0,0.0,0.0,0.0,0.0,0.0,0.0,0.0,0.0,0.0,0.0,0.0,0.0,0.0,0.0,0.0,0.0,0.0,0.0,0.0,0.0,0.0,0.0,0.0,0.0,0.0,0.0,0.0,0.0,0.0,0.0,0.0,0.0,0.0,0.0,0.0,0.0,0.0,0.0,0.0,0.0,0.0,0.0,0.0,0.0,0.0,0.0,0.0,0.0,0.0,0.0,0.0,0.0,0.0,0.0,0.0,0.0,0.0,0.0,0.0,0.0,0.0,0.0,0.0,0.0,0.0,0.0,0.0,0.0,0.0,0.0,0.0,0.0,0.0,0.0,0.0,0.0,0.0,0.0,0.0,0.0,0.0,0.0,0.0,0.0,0.0,0.0,0.0,0.0,0.0,0.0,0.0,0.0,0.0,0.0,0.0,0.0,0.0,0.0,0.0,0.0,0.0,0.0,0.0,0.0,0.0,0.0,0.0,0.0,0.0,0.0,0.0,0.0,0.0,0.0,0.0,0.0,0.0,0.0,0.0,0.0,0.0,0.0,0.0,0.0,0.0,0.0,0.0,0.0,0.0,0.0,0.0,0.0,0.0,0.0,0.0,0.0,0.0,0.0,0.0,0.0,0.0,0.0,0.0,0.0,0.0,0.0,0.0,0.0,0.0,0.0,0.0,0.0,0.0,0.0,0.0,0.0,0.0,0.0,0.0,0.0,0.0,0.0,0.0,0.0,0.0,0.0,0.0,0.0,0.0,0.0,0.0,0.0,0.0,0.0,0.0,0.0,0.0,0.0,0.0,0.0,0.0,0.0,0.0,0.0,0.0,0.0,0.0,0.0,0.0,0.0,0.0,0.0,0.0,0.0,0.0,0.0,0.0,0.0,0.0,0.0,0.0,0.0,0.0,0.0,0.0,0.0,0.0,0.0,0.0,0.0,0.0,0.0,0.0,0.0,0.0,0.0,0.0,0.0,0.0,0.0,0.0,0.0,0.0,0.0,0.0,0.0,0.0,0.0,0.0,0.0,0.0,0.0,0.0,0.0,0.0,0.0,0.0,0.0,0.0,0.0,0.0,0.0,0.0,0.0,0.0,0.0,0.0,0.0,0.0,0.0,0.0,0.0,0.0,0.0,0.0,0.0,0.0,0.0,0.0,0.0,0.0,0.0,0.0,0.0,0.0,0.0,0.0,0.0,0.0,0.0,0.0,0.0,0.0,0.0,0.0,0.0,0.0,0.0,0.0,0.0,0.0,0.0,0.0,0.0,0.0,0.0,0.0,0.0,0.0,0.0,0.0,0.0,0.0,0.0,0.0,0.0,0.0,0.0,0.0,0.0,0.0,0.0,0.0,0.0,0.0,0.0,0.0,0.0,0.0,0.0,0.0,0.0,0.0,0.0,0.0,0.0,0.0,0.0,0.0,0.0,0.0,0.0,0.0,0.0,0.0,0.0,0.0,0.0,0.0,0.0,0.0,0.0,0.0,0.0,0.0,0.0,0.0,0.0,0.0,0.0,0.0,0.0,0.0,0.0,0.0,0.0,0.0,0.0,0.0,0.0,0.0,0.0,0.0,0.0,0.0,0.0,0.0,0.0,0.0,0.0,0.0,0.0,0.0,0.0,0.0,0.0,0.0,0.0,0.0,0.0,0.0,0.0,0.0,0.0,0.0,0.0,0.0,0.0,0.0,0.0,0.0,0.0,0.0,0.0,0.0,0.0,0.0,0.0,0.0,0.0,0.0,0.0,0.0,0.0,0.0,0.0,0.0,0.0,0.0,0.0,0.0,0.0,0.0,0.0,0.0,0.0,0.0,0.0,0.0,0.0,0.0,0.0,0.0,0.0,0.0,0.0,0.0,0.0,0.0,0.0,0.0,0.0,0.0,0.0,0.0,0.0,0.0,0.0,0.0,0.0,0.0,0.0,0.0,0.0,0.0,0.0,0.0,0.0,0.0,0.0,0.0,0.0,0.0,0.0,0.0,0.0,0.0,0.0,0.0,0.0,0.0,0.0,0.0,0.0,0.0,0.0,0.0,0.0,0.0,0.0,0.0,0.0,0.0,0.0,0.0,0.0,0.0,0.0,0.0,0.0,0.0,0.0,0.0,0.0,0.0,0.0,0.0,0.0,0.0,0.0,0.0,0.0,0.0,0.0,0.0,0.0,0.0,0.0,0.0,0.0,0.0,0.0,0.0,0.0,0.0,0.0,0.0,0.0,0.0,0.0,0.0,0.0,0.0,0.0,0.0,0.0,0.0,0.0,0.0,0.0,0.0,0.0,0.0,0.0,0.0,0.0,0.0,0.0,0.0,0.0,0.0,0.0,0.0,0.0,0.0,0.0,0.0,0.0,0.0,0.0,0.0,0.0,0.0,0.0,0.0,0.0,0.0,0.0,0.0,0.0,0.0,0.0,0.0,0.0,0.0,0.0,0.0,0.0,0.0,0.0,0.0,0.0,0.0,0.0,0.0,0.0,0.0,0.0,0.0,0.0,0.0,0.0,0.0,0.0,0.0,0.0,0.0,0.0,0.0,0.0,0.0,0.0,0.0,0.0,0.0,0.0,0.0,0.0,0.0,0.0,0.0,0.0,0.0,0.0,0.0,0.0,0.0,0.0,0.0,0.0,0.0,0.0,0.0,0.0,0.0,0.0,0.0,0.0,0.0,0.0,0.0,0.0,0.0,0.0,0.0,0.0,0.0,0.0,0.0,0.0,0.0,0.0,0.0,0.0,0.0,0.0,0.0,0.0,0.0,0.0,0.0,0.0,0.0,0.0,0.0,0.0,0.0,0.0,0.0,0.0,0.0,0.0,0.0,0.0,0.0,0.0,0.0,0.0,0.0,0.0,0.0,0.0,0.0,0.0,0.0,0.0,0.0,0.0,0.0,0.0,0.0,0.0,0.0,0.0,0.0,0.0,0.0,0.0,0.0,0.0,0.0,0.0,0.0,0.0,0.0,0.0,0.0,0.0,0.0,0.0,0.0,0.0,0.0,0.0,0.0,0.0,0.0,0.0,0.0,0.0,0.0,0.0,0.0,0.0,0.0,0.0,0.0,0.0,0.0,0.0,0.0,0.0,0.0,0.0,0.0,0.0,0.0,0.0,0.0,0.0,0.0,0.0,0.0,0.0,0.0,0.0,0.0,0.0,0.0,0.0,0.0,0.0,0.0,0.0,0.0,0.0,0.0,0.0,0.0,0.0,0.0,0.0,0.0,0.0,0.0,0.0,0.0,0.0,0.0,0.0,0.0,0.0,0.0,0.0,0.0,0.0,0.0,0.0,0.0,0.0,0.0,0.0,0.0,0.0,0.0,0.0,0.0,0.0,0.0,0.0,0.0,0.0,0.0,0.0,0.0,0.0,0.0,0.0,0.0,0.0,0.0,0.0,0.0,0.0,0.0,0.0,0.0,0.0,0.0,0.0,0.0,0.0,0.0,0.0,0.0,0.0,0.0,0.0,0.0,0.0,0.0,0.0,0.0,0.0,0.0,0.0,0.0,0.0,0.0,0.0,0.0,0.0,0.0,0.0,0.0,0.0,0.0,0.0,0.0,0.0,0.0,0.0,0.0,0.0,0.0,0.0,0.0,0.0,0.0,0.0,0.0,0.0,0.0,0.0,0.0,0.0,0.0,0.0,0.0,0.0,0.0,0.0,0.0,0.0,0.0,0.0,0.0,0.0,0.0,0.0,0.0,0.0,0.0,0.0,0.0,0.0,0.0,0.0,0.0,0.0,0.0,0.0,0.0,0.0,0.0,0.0,0.0,0.0,0.0,0.0,0.0,0.0,0.0,0.0,0.0,0.0,0.0,0.0,0.0,0.0,0.0,0.0,0.0,0.0,0.0,0.0,0.0,0.0,0.0,0.0,0.0,0.0,0.0,0.0,0.0,0.0,0.0,0.0,0.0,0.0,0.0,0.0,0.0,0.0,0.0,0.0,0.0,0.0,0.0,0.0,0.0,0.0,0.0,0.0,0.0,0.0,0.0,0.0,0.0,0.0,0.0,0.0,0.0,0.0,0.0,0.0,0.0,0.0,0.0,0.0,0.0,0.0,0.0,0.0,0.0,0.0,0.0,0.0,0.0,0.0,0.0,0.0,0.0,0.0,0.0,0.0,0.0,0.0,0.0,0.0,0.0,0.0,0.0,0.0,0.0,0.0,3.8689,0.0,0.0,0.0,0.0,0.0,0.0,0.0,0.0,0.0,0.0,0.0,0.0,0.0,0.0,0.0,0.0,0.0,0.0,0.0,0.0,0.0,0.0,0.0,0.0,0.0,0.0,0.0,0.0,0.0,0.0,0.0,0.0,0.0,0.0,0.0,0.0,0.0,0.0,0.0,0.0,0.0,0.0,0.0,0.0,0.0,0.0,0.0,0.0,0.0,0.0,0.0,0.0,0.0,0.0,0.0,0.0,0.0,0.0,0.0,0.0,0.0,0.0,0.0,0.0,0.0,0.0,0.0,0.0,0.0,0.0,0.0,0.0,0.0,0.0,0.0,0.0,0.0,0.0,0.0,0.0,0.0,0.0,0.0,0.0,0.0,0.0,0.0,0.0,0.0,0.0,0.0,0.0,0.0,0.0,0.0,0.0,0.0,0.0,0.0,0.0,0.0,0.0,0.0,0.0,0.0,0.0,0.0,0.0,0.0,0.0,3.7685,3.8658,3.8689,3.8689,3.8689,0.0,0.0,0.0,0.0,0.0,0.0,0.0,0.0,0.0,0.0,0.0,0.0,0.0,0.0,0.0,0.0,0.0,0.0,0.0,0.0,0.0,0.0,0.0,0.0,0.0,0.0,0.0,0.0,0.0,0.0,0.0,0.0,0.0,0.0,0.0,0.0,0.0,0.0,0.0,0.0,0.0,0.0,0.0,0.0,0.0,0.0,0.0,0.0,0.0,0.0,0.0,0.0,0.0,0.0,0.0,0.0,0.0,0.0,0.0,0.0,0.0,0.0,0.0,0.0,0.0,0.0,0.0,0.0,0.0,0.0,0.0,0.0,0.0,0.0,0.0,0.0,0.0,0.0,0.0,0.0,0.0,0.0,0.0,0.0,0.0,0.0,0.0,0.0,0.0,0.0,0.0,0.0,0.0,0.0,0.0,0.0,0.0,0.0,0.0,0.0,0.0,0.0,0.0,0.0,0.0,0.0,0.0,0.0,0.0,0.0,0.0,0.0,3.8689,3.8689,3.8689,0.0,0.0,0.0,0.0,0.0,0.0,0.0,0.0,0.0,0.0,0.0,0.0,0.0,0.0,0.0,0.0,0.0,0.0,0.0,0.0,0.0,0.0,0.0,0.0,0.0,0.0,0.0,0.0,0.0,0.0,0.0,0.0,0.0,0.0,0.0,0.0,0.0,0.0,0.0,0.0,0.0,0.0,0.0,0.0,0.0,0.0,0.0,0.0,0.0,0.0,0.0,0.0,0.0,0.0,0.0,0.0,0.0,0.0,0.0,0.0,0.0,0.0,0.0,0.0,0.0,0.0,0.0,0.0,0.0,0.0,0.0,0.0,0.0,0.0,0.0,0.0,0.0,0.0,0.0,0.0,0.0,0.0,0.0,0.0,0.0,0.0,0.0,0.0,0.0,0.0,0.0,0.0,0.0,0.0,0.0,0.0,0.0,0.0,0.0,0.0,0.0,0.0,0.0,0.0,0.0,0.0,0.0,0.0,0.0,0.0,3.8099,3.8673,3.8689,0.0,3.8689,0.0,0.0,0.0,0.0,0.0,0.0,0.0,0.0,0.0,0.0,0.0,0.0,0.0,0.0,0.0,0.0,0.0,0.0,0.0,0.0,0.0,0.0,0.0,0.0,0.0,0.0,0.0,0.0,0.0,0.0,0.0,0.0,0.0,0.0,0.0,0.0,0.0,0.0,0.0,0.0,0.0,0.0,0.0,0.0,0.0,0.0,0.0,0.0,0.0,0.0,0.0,0.0,0.0,0.0,0.0,0.0,0.0,0.0,0.0,0.0,0.0,0.0,0.0,0.0,0.0,0.0,0.0,0.0,0.0,0.0,0.0,0.0,0.0,0.0,0.0,0.0,0.0,0.0,0.0,0.0,0.0,0.0,0.0,0.0,0.0,0.0,0.0,0.0,0.0,0.0,0.0,0.0,0.0,0.0,0.0,0.0,0.0,0.0,0.0,0.0,0.0,0.0,0.0,0.0,0.0,0.0,0.0,0.0,0.0,0.0,3.8148,3.8673,3.8689,3.8689,0.0,0.0,0.0,0.0,0.0,0.0,0.0,0.0,0.0,0.0,0.0,0.0,0.0,0.0,0.0,0.0,0.0,0.0,0.0,0.0,0.0,0.0,0.0,0.0,0.0,0.0,0.0,0.0,0.0,0.0,0.0,0.0,0.0,0.0,0.0,0.0,0.0,0.0,0.0,0.0,0.0,0.0,0.0,0.0,0.0,0.0,0.0,0.0,0.0,0.0,0.0,0.0,0.0,0.0,0.0,0.0,0.0,0.0,0.0,0.0,0.0,0.0,0.0,0.0,0.0,0.0,0.0,0.0,0.0,0.0,0.0,0.0,0.0,0.0,0.0,0.0,0.0,0.0,0.0,0.0,0.0,0.0,0.0,0.0,0.0,0.0,0.0,0.0,0.0,0.0,0.0,0.0,0.0,0.0,0.0,0.0,0.0,0.0,0.0,0.0,0.0,0.0,0.0,0.0,0.0,0.0,0.0,0.0,0.0,0.0,3.8115,3.83,3.8658,3.8689,3.8689,3.8689,0.0,0.0,0.0,0.0,0.0,0.0,0.0,0.0,0.0,0.0,0.0,0.0,0.0,0.0,0.0,0.0,0.0,0.0,0.0,0.0,0.0,0.0,0.0,0.0,0.0,0.0,0.0,0.0,0.0,0.0,0.0,0.0,0.0,0.0,0.0,0.0,0.0,0.0,0.0,0.0,0.0,0.0,0.0,0.0,0.0,0.0,0.0,0.0,0.0,0.0,0.0,0.0,0.0,0.0,0.0,0.0,0.0,0.0,0.0,0.0,0.0,0.0,0.0,0.0,0.0,0.0,0.0,0.0,0.0,0.0,0.0,0.0,0.0,0.0,0.0,0.0,0.0,0.0,0.0,0.0,0.0,0.0,0.0,0.0,0.0,0.0,0.0,0.0,0.0,0.0,0.0,0.0,0.0,0.0,0.0,0.0,0.0,0.0,0.0,0.0,0.0,0.0,0.0,0.0,0.0,0.0,0.0,0.0,3.8658,3.8643,3.8658,3.8689,3.8689,3.8689,0.0,0.0,0.0,0.0,0.0,0.0,0.0,0.0,0.0,0.0,0.0,0.0,0.0,0.0,0.0,0.0,0.0,0.0,0.0,0.0,0.0,0.0,0.0,0.0,0.0,0.0,0.0,0.0,0.0,0.0,0.0,0.0,0.0,0.0,0.0,0.0,0.0,0.0,0.0,0.0,0.0,0.0,0.0,0.0,0.0,0.0,0.0,0.0,0.0,0.0,0.0,0.0,0.0,0.0,0.0,0.0,0.0,0.0,0.0,0.0,0.0,0.0,0.0,0.0,0.0,0.0,0.0,0.0,0.0,0.0,0.0,0.0,0.0,0.0,0.0,0.0,0.0,0.0,0.0,0.0,0.0,0.0,0.0,0.0,0.0,0.0,0.0,0.0,0.0,0.0,0.0,0.0,0.0,0.0,0.0,0.0,0.0,0.0,0.0,0.0,0.0,0.0,0.0,0.0,0.0,0.0,0.0,0.0,0.0,3.8689,3.8689,3.8689,3.8689,3.8689,3.8689,0.0,0.0,0.0,0.0,0.0,0.0,0.0,0.0,0.0,0.0,0.0,0.0,0.0,0.0,0.0,0.0,0.0,0.0,0.0,0.0,0.0,0.0,0.0,0.0,0.0,0.0,0.0,0.0,0.0,0.0,0.0,0.0,0.0,0.0,0.0,0.0,0.0,0.0,0.0,0.0,0.0,0.0,0.0,0.0,0.0,0.0,0.0,0.0,0.0,0.0,0.0,0.0,0.0,0.0,0.0,0.0,0.0,0.0,0.0,0.0,0.0,0.0,0.0,0.0,0.0,0.0,0.0,0.0,0.0,0.0,0.0,0.0,0.0,0.0,0.0,0.0,0.0,0.0,0.0,0.0,0.0,0.0,0.0,0.0,0.0,0.0,0.0,0.0,0.0,0.0,0.0,0.0,0.0,0.0,0.0,0.0,0.0,0.0,0.0,0.0,0.0,0.0,0.0,0.0,0.0,0.0,0.0,0.0,0.0,3.8689,0.0,3.8689,3.8689,3.8689,3.8689,0.0,0.0,0.0,0.0,0.0,0.0,0.0,0.0,0.0,0.0,0.0,0.0,0.0,0.0,0.0,0.0,0.0,0.0,0.0,0.0,0.0,0.0,0.0,0.0,0.0,0.0,0.0,0.0,0.0,0.0,0.0,0.0,0.0,0.0,0.0,0.0,0.0,0.0,0.0,0.0,0.0,0.0,0.0,0.0,0.0,0.0,0.0,0.0,0.0,0.0,0.0,0.0,0.0,0.0,0.0,0.0,0.0,0.0,0.0,0.0,0.0,0.0,0.0,0.0,0.0,0.0,0.0,0.0,0.0,0.0,0.0,0.0,0.0,0.0,0.0,0.0,0.0,0.0,0.0,0.0,0.0,0.0,0.0,0.0,0.0,0.0,0.0,0.0,0.0,0.0,0.0,0.0,0.0,0.0,0.0,0.0,0.0,0.0,0.0,0.0,0.0,0.0,0.0,0.0,0.0,0.0,0.0,0.0,3.8689,3.8689,3.8689,3.8689,3.8689,3.8689,3.8689,0.0,0.0,0.0,0.0,0.0,0.0,0.0,0.0,0.0,0.0,0.0,0.0,0.0,0.0,0.0,0.0,0.0,0.0,0.0,0.0,0.0,0.0,0.0,0.0,0.0,0.0,0.0,0.0,0.0,0.0,0.0,0.0,0.0,0.0,0.0,0.0,0.0,0.0,0.0,0.0,0.0,0.0,0.0,0.0,0.0,0.0,0.0,0.0,0.0,0.0,0.0,0.0,0.0,0.0,0.0,0.0,0.0,0.0,0.0,0.0,0.0,0.0,0.0,0.0,0.0,0.0,0.0,0.0,0.0,0.0,0.0,0.0,0.0,0.0,0.0,0.0,0.0,0.0,0.0,0.0,0.0,0.0,0.0,0.0,0.0,0.0,0.0,0.0,0.0,0.0,0.0,0.0,0.0,0.0,0.0,0.0,0.0,0.0,0.0,0.0,0.0,0.0,0.0,0.0,0.0,0.0,0.0,0.0,0.0,3.8689,3.8689,3.8689,3.8689,3.8689,3.8689,0.0,0.0,0.0,0.0,0.0,0.0,0.0,0.0,0.0,0.0,0.0,0.0,0.0,0.0,0.0,0.0,0.0,0.0,0.0,0.0,0.0,0.0,0.0,0.0,0.0,0.0,0.0,0.0,0.0,0.0,0.0,0.0,0.0,0.0,0.0,0.0,0.0,0.0,0.0,0.0,0.0,0.0,0.0,0.0,0.0,0.0,0.0,0.0,0.0,0.0,0.0,0.0,0.0,0.0,0.0,0.0,0.0,0.0,0.0,0.0,0.0,0.0,0.0,0.0,0.0,0.0,0.0,0.0,0.0,0.0,0.0,0.0,0.0,0.0,0.0,0.0,0.0,0.0,0.0,0.0,0.0,0.0,0.0,0.0,0.0,0.0,0.0,0.0,0.0,0.0,0.0,0.0,0.0,0.0,0.0,0.0,0.0,0.0,0.0,0.0,0.0,0.0,0.0,0.0,0.0,0.0,0.0,0.0,0.0,4.0047,4.0047,4.0047,4.0047,4.0047,3.9606,3.8762,0.0,0.0,0.0,0.0,0.0,0.0,0.0,0.0,0.0,0.0,0.0,0.0,0.0,0.0,0.0,0.0,0.0,0.0,0.0,0.0,0.0,0.0,0.0,0.0,0.0,0.0,0.0,0.0,0.0,0.0,0.0,0.0,0.0,0.0,0.0,0.0,0.0,0.0,0.0,0.0,0.0,0.0,0.0,0.0,0.0,0.0,0.0,0.0,0.0,0.0,0.0,0.0,0.0,0.0,0.0,0.0,0.0,0.0,0.0,0.0,0.0,0.0,0.0,0.0,0.0,0.0,0.0,0.0,0.0,0.0,0.0,0.0,0.0,0.0,0.0,0.0,0.0,0.0,0.0,0.0,0.0,0.0,0.0,0.0,0.0,0.0,0.0,0.0,0.0,0.0,0.0,0.0,0.0,0.0,0.0,0.0,0.0,0.0,0.0,0.0,0.0,0.0,0.0,0.0,0.0,0.0,0.0,0.0,4.2506,4.2653,4.2616,4.2396,4.2323,4.1222,0.0,0.0,0.0,0.0,0.0,0.0,0.0,0.0,0.0,0.0,0.0,0.0,0.0,0.0,0.0,0.0,0.0,0.0,0.0,0.0,0.0,0.0,0.0,0.0,0.0,0.0,0.0,0.0,0.0,0.0,0.0,0.0,0.0,0.0,0.0,0.0,0.0,0.0,0.0,0.0,0.0,0.0,0.0,0.0,0.0,0.0,0.0,0.0,0.0,0.0,0.0,0.0,0.0,0.0,0.0,0.0,0.0,0.0,0.0,0.0,0.0,0.0,0.0,0.0,0.0,0.0,0.0,0.0,0.0,0.0,0.0,0.0,0.0,0.0,0.0,0.0,0.0,0.0,0.0,0.0,0.0,0.0,0.0,0.0,0.0,0.0,0.0,0.0,0.0,0.0,0.0,0.0,0.0,0.0,0.0,0.0,0.0,0.0,0.0,0.0,0.0,0.0,0.0,0.0,0.0,0.0,0.0,0.0,0.0,4.4929,4.6691,4.6507,4.4158,4.291,4.1735,0.0,0.0,0.0,0.0,0.0,0.0,0.0,0.0,0.0,0.0,0.0,0.0,0.0,0.0,0.0,0.0,0.0,0.0,0.0,0.0,0.0,0.0,0.0,0.0,0.0,0.0,0.0,0.0,0.0,0.0,0.0,0.0,0.0,0.0,0.0,0.0,0.0,0.0,0.0,0.0,0.0,0.0,0.0,0.0,0.0,0.0,0.0,0.0,0.0,0.0,0.0,0.0,0.0,0.0,0.0,0.0,0.0,0.0,0.0,0.0,0.0,0.0,0.0,0.0,0.0,0.0,0.0,0.0,0.0,0.0,0.0,0.0,0.0,0.0,0.0,0.0,0.0,0.0,0.0,0.0,0.0,0.0,0.0,0.0,0.0,0.0,0.0,0.0,0.0,0.0,0.0,0.0,0.0,0.0,0.0,0.0,0.0,0.0,0.0,0.0,0.0,0.0,0.0,0.0,0.0,0.0,0.0,0.0,4.4488,4.592,4.9297,4.9994,4.7829,4.5186,4.2947,0.0,0.0,0.0,0.0,0.0,0.0,0.0,0.0,0.0,0.0,0.0,0.0,0.0,0.0,0.0,0.0,0.0,0.0,0.0,0.0,0.0,0.0,0.0,0.0,0.0,0.0,0.0,0.0,0.0,0.0,0.0,0.0,0.0,0.0,0.0,0.0,0.0,0.0,0.0,0.0,0.0,0.0,0.0,0.0,0.0,0.0,0.0,0.0,0.0,0.0,0.0,0.0,0.0,0.0,0.0,0.0,0.0,0.0,0.0,0.0,0.0,0.0,0.0,0.0,0.0,0.0,0.0,0.0,0.0,0.0,0.0,0.0,0.0,0.0,0.0,0.0,0.0,0.0,0.0,0.0,0.0,0.0,0.0,0.0,0.0,0.0,0.0,0.0,0.0,0.0,0.0,0.0,0.0,0.0,0.0,0.0,0.0,0.0,0.0,0.0,0.0,0.0,0.0,0.0,0.0,0.0,0.0,0.0,4.603,4.6324,5.0802,5.2784,5.1793,4.7976,4.4525,0.0,0.0,0.0,0.0,0.0,0.0,0.0,0.0,0.0,0.0,0.0,0.0,0.0,0.0,0.0,0.0,0.0,0.0,0.0,0.0,0.0,0.0,0.0,0.0,0.0,0.0,0.0,0.0,0.0,0.0,0.0,0.0,0.0,0.0,0.0,0.0,0.0,0.0,0.0,0.0,0.0,0.0,0.0,0.0,0.0,0.0,0.0,0.0,0.0,0.0,0.0,0.0,0.0,0.0,0.0,0.0,0.0,0.0,0.0,0.0,0.0,0.0,0.0,0.0,0.0,0.0,0.0,0.0,0.0,0.0,0.0,0.0,0.0,0.0,0.0,0.0,0.0,0.0,0.0,0.0,0.0,0.0,0.0,0.0,0.0,0.0,0.0,0.0,0.0,0.0,0.0,0.0,0.0,0.0,0.0,0.0,0.0,0.0,0.0,0.0,0.0,0.0,0.0,0.0,0.0,0.0,0.0,0.0,4.6838,4.871,5.1683,5.2527,5.1096,4.7719,4.5296,0.0,0.0,0.0,0.0,0.0,0.0,0.0,0.0,0.0,0.0,0.0,0.0,0.0,0.0,0.0,0.0,0.0,0.0,0.0,0.0,0.0,0.0,0.0,0.0,0.0,0.0,0.0,0.0,0.0,0.0,0.0,0.0,0.0,0.0,0.0,0.0,0.0,0.0,0.0,0.0,0.0,0.0,0.0,0.0,0.0,0.0,0.0,0.0,4.7355,0.0,0.0,0.0,0.0,0.0,0.0,0.0,0.0,0.0,0.0,0.0,0.0,0.0,0.0,0.0,0.0,0.0,0.0,0.0,0.0,0.0,0.0,0.0,0.0,0.0,0.0,0.0,0.0,0.0,0.0,0.0,0.0,0.0,0.0,0.0,0.0,0.0,0.0,0.0,0.0,0.0,0.0,0.0,0.0,0.0,0.0,0.0,0.0,0.0,0.0,0.0,0.0,0.0,0.0,0.0,0.0,0.0,0.0,0.0,4.7058,4.9444,5.1573,5.2234,5.1316,4.8526,4.6104,0.0,0.0,0.0,0.0,0.0,0.0,0.0,0.0,0.0,0.0,0.0,0.0,0.0,0.0,0.0,0.0,0.0,0.0,0.0,0.0,0.0,0.0,0.0,0.0,0.0,0.0,0.0,0.0,0.0,0.0,0.0,0.0,0.0,0.0,0.0,0.0,0.0,0.0,0.0,0.0,0.0,0.0,0.0,0.0,0.0,0.0,0.0,0.0,0.0,0.0,0.0,0.0,0.0,0.0,0.0,0.0,0.0,0.0,0.0,0.0,0.0,0.0,0.0,0.0,0.0,0.0,0.0,0.0,0.0,0.0,0.0,0.0,0.0,0.0,0.0,0.0,0.0,0.0,0.0,0.0,0.0,0.0,0.0,0.0,0.0,0.0,0.0,0.0,0.0,0.0,0.0,0.0,0.0,0.0,0.0,0.0,0.0,0.0,0.0,0.0,0.0,0.0,0.0,0.0,0.0,0.0,0.0,4.5076,4.7498,5.0325,5.172,5.2307,5.216,4.9811,4.7021,4.3975,0.0,0.0,0.0,0.0,0.0,0.0,0.0,0.0,0.0,0.0,0.0,0.0,0.0,0.0,0.0,0.0,0.0,0.0,0.0,0.0,0.0,0.0,0.0,0.0,0.0,0.0,0.0,0.0,0.0,0.0,0.0,0.0,0.0,0.0,0.0,0.0,0.0,0.0,4.6133,4.5864,0.0,0.0,0.0,0.0,0.0,0.0,0.0,0.0,4.7086,0.0,0.0,0.0,0.0,0.0,0.0,0.0,0.0,0.0,0.0,0.0,0.0,0.0,0.0,0.0,0.0,0.0,0.0,0.0,0.0,0.0,0.0,0.0,0.0,0.0,0.0,0.0,0.0,0.0,0.0,0.0,0.0,0.0,0.0,0.0,0.0,0.0,0.0,0.0,0.0,0.0,0.0,0.0,0.0,0.0,0.0,0.0,0.0,0.0,0.0,0.0,0.0,0.0,0.0,0.0,0.0,4.6232,4.6709,4.9407,5.4458,5.4216,5.3702,5.2968,5.0655,4.8159,4.5626,0.0,0.0,0.0,0.0,0.0,0.0,0.0,0.0,0.0,0.0,0.0,0.0,0.0,0.0,0.0,0.0,0.0,0.0,0.0,0.0,0.0,0.0,0.0,0.0,0.0,0.0,0.0,0.0,0.0,0.0,0.0,0.0,0.0,0.0,0.0,0.0,0.0,0.0,0.0,4.6932,4.6479,0.0,0.0,0.0,0.0,0.0,0.0,0.0,0.0,4.8279,0.0,0.0,0.0,0.0,0.0,0.0,0.0,0.0,0.0,0.0,0.0,0.0,0.0,0.0,0.0,0.0,0.0,0.0,0.0,0.0,0.0,0.0,0.0,0.0,0.0,0.0,0.0,0.0,0.0,0.0,0.0,0.0,0.0,0.0,0.0,0.0,0.0,0.0,0.0,0.0,0.0,0.0,0.0,0.0,0.0,0.0,0.0,0.0,0.0,0.0,0.0,0.0,0.0,0.0,0.0,4.7553,4.9003,5.1573,5.539,5.4399,5.3592,5.3167,5.0839,4.8714,0.0,0.0,0.0,0.0,0.0,0.0,0.0,0.0,0.0,0.0,0.0,0.0,0.0,0.0,0.0,0.0,0.0,0.0,0.0,0.0,0.0,0.0,0.0,0.0,0.0,0.0,0.0,0.0,0.0,0.0,0.0,0.0,0.0,0.0,0.0,0.0,0.0,0.0,0.0,0.0,4.7663,4.7663,4.9779,0.0,0.0,0.0,0.0,0.0,0.0,4.8663,4.8394,0.0,0.0,0.0,0.0,0.0,0.0,0.0,0.0,0.0,0.0,0.0,0.0,0.0,0.0,0.0,0.0,0.0,0.0,0.0,0.0,0.0,0.0,0.0,0.0,0.0,0.0,0.0,0.0,0.0,0.0,0.0,0.0,0.0,0.0,0.0,0.0,0.0,0.0,0.0,0.0,0.0,0.0,0.0,0.0,0.0,0.0,0.0,0.0,0.0,0.0,0.0,0.0,0.0,0.0,0.0,4.8526,5.0986,5.3482,5.5868,5.4509,5.3702,5.3628,5.0875,4.8863,0.0,0.0,0.0,0.0,0.0,0.0,0.0,0.0,0.0,0.0,0.0,0.0,0.0,0.0,0.0,0.0,0.0,0.0,0.0,0.0,0.0,0.0,0.0,0.0,0.0,0.0,0.0,0.0,0.0,0.0,0.0,0.0,0.0,0.0,0.0,0.0,0.0,0.0,0.0,0.0,0.0,4.8817,5.0664,4.9317,0.0,0.0,0.0,0.0,4.8625,4.8894,0.0,0.0,0.0,0.0,0.0,0.0,0.0,0.0,0.0,0.0,0.0,0.0,0.0,0.0,0.0,0.0,0.0,0.0,0.0,0.0,0.0,0.0,0.0,0.0,0.0,0.0,0.0,0.0,0.0,0.0,0.0,0.0,0.0,0.0,0.0,0.0,0.0,0.0,0.0,0.0,0.0,0.0,0.0,0.0,0.0,0.0,0.0,0.0,0.0,0.0,0.0,0.0,0.0,0.0,0.0,0.0,4.9334,5.1793,5.4583,5.7483,5.6124,5.5317,5.5244,5.0875,4.8399,0.0,0.0,0.0,0.0,0.0,0.0,0.0,0.0,0.0,0.0,0.0,0.0,0.0,0.0,0.0,0.0,0.0,0.0,0.0,0.0,0.0,0.0,0.0,0.0,0.0,0.0,0.0,0.0,0.0,0.0,0.0,0.0,0.0,0.0,0.0,0.0,0.0,0.0,0.0,0.0,0.0,4.9009,5.1423,4.9654,4.8077,0.0,0.0,0.0,5.0394,5.1625,0.0,0.0,0.0,0.0,0.0,0.0,0.0,0.0,0.0,0.0,0.0,0.0,0.0,0.0,0.0,0.0,0.0,0.0,0.0,0.0,0.0,0.0,0.0,0.0,0.0,0.0,0.0,0.0,0.0,0.0,0.0,0.0,0.0,0.0,0.0,0.0,0.0,0.0,0.0,0.0,0.0,0.0,0.0,0.0,0.0,0.0,0.0,0.0,0.0,0.0,0.0,0.0,0.0,0.0,0.0,4.9187,5.0325,5.3995,5.6381,5.7262,5.6198,5.5412,5.4913,5.0618,4.8383,0.0,0.0,0.0,0.0,0.0,0.0,0.0,0.0,0.0,0.0,0.0,0.0,0.0,0.0,0.0,0.0,0.0,0.0,0.0,0.0,0.0,0.0,0.0,0.0,0.0,0.0,0.0,0.0,0.0,0.0,0.0,0.0,0.0,0.0,0.0,0.0,0.0,0.0,0.0,0.0,0.0,0.0,5.1087,5.0279,0.0,0.0,0.0,5.0268,4.9045,0.0,0.0,0.0,0.0,0.0,0.0,0.0,0.0,0.0,0.0,0.0,0.0,0.0,0.0,0.0,0.0,0.0,0.0,0.0,0.0,0.0,0.0,0.0,0.0,0.0,0.0,0.0,0.0,0.0,0.0,0.0,0.0,0.0,0.0,0.0,0.0,0.0,0.0,0.0,0.0,0.0,0.0,0.0,0.0,0.0,0.0,0.0,0.0,0.0,0.0,0.0,0.0,0.0,0.0,0.0,0.0,0.0,5.0912,5.5537,5.7629,5.6822,5.6014,5.5207,5.4363,5.0839,0.0,0.0,0.0,0.0,0.0,0.0,0.0,0.0,0.0,0.0,0.0,0.0,0.0,0.0,0.0,0.0,0.0,0.0,0.0,0.0,0.0,0.0,0.0,0.0,0.0,0.0,0.0,4.6364,0.0,0.0,0.0,0.0,0.0,0.0,0.0,0.0,0.0,0.0,0.0,0.0,0.0,0.0,5.0702,5.0702,5.0702,5.0827,0.0,0.0,5.0287,4.9121,5.1417,5.2231,0.0,0.0,0.0,0.0,0.0,0.0,0.0,0.0,0.0,0.0,0.0,0.0,0.0,0.0,0.0,0.0,0.0,0.0,0.0,0.0,0.0,0.0,0.0,0.0,0.0,0.0,0.0,0.0,0.0,0.0,0.0,0.0,0.0,0.0,0.0,0.0,0.0,0.0,0.0,0.0,0.0,0.0,0.0,0.0,0.0,0.0,0.0,0.0,0.0,0.0,0.0,0.0,0.0,0.0,0.0,5.0986,5.5537,5.7593,5.6822,5.6014,5.5207,5.4399,5.194,4.9904,0.0,0.0,0.0,0.0,0.0,0.0,0.0,0.0,0.0,0.0,0.0,0.0,0.0,0.0,0.0,0.0,0.0,0.0,0.0,0.0,0.0,0.0,0.0,0.0,0.0,0.0,0.0,0.0,0.0,0.0,0.0,0.0,0.0,0.0,0.0,0.0,0.0,0.0,0.0,0.0,0.0,5.0702,5.0702,5.0702,5.1241,0.0,0.0,5.1164,5.2595,5.4287,5.4374,5.1019,0.0,0.0,0.0,0.0,0.0,0.0,0.0,0.0,0.0,0.0,0.0,0.0,0.0,0.0,0.0,0.0,0.0,0.0,0.0,0.0,0.0,0.0,0.0,0.0,0.0,0.0,0.0,0.0,0.0,0.0,0.0,0.0,0.0,0.0,0.0,0.0,0.0,0.0,0.0,0.0,0.0,0.0,0.0,0.0,0.0,0.0,0.0,0.0,0.0,0.0,0.0,0.0,0.0,5.0802,5.0875,5.5537,5.7629,5.6822,5.6014,5.5207,5.4399,5.205,5.0031,0.0,0.0,0.0,0.0,0.0,0.0,0.0,0.0,0.0,0.0,0.0,0.0,0.0,0.0,0.0,0.0,0.0,0.0,0.0,0.0,0.0,0.0,0.0,0.0,0.0,0.0,0.0,0.0,5.0431,5.0494,4.9215,0.0,0.0,0.0,0.0,0.0,0.0,0.0,0.0,0.0,0.0,5.0796,5.2067,5.2456,0.0,0.0,5.32,5.2689,5.2107,5.3661,5.3778,5.0418,5.0097,0.0,0.0,0.0,0.0,0.0,0.0,0.0,0.0,0.0,0.0,0.0,0.0,0.0,0.0,0.0,0.0,0.0,0.0,0.0,0.0,0.0,0.0,0.0,0.0,0.0,0.0,0.0,0.0,0.0,0.0,0.0,0.0,0.0,0.0,0.0,0.0,0.0,0.0,0.0,0.0,0.0,0.0,0.0,0.0,0.0,0.0,0.0,0.0,0.0,0.0,0.0,0.0,5.0435,5.0435,5.495,5.6895,5.6088,5.5537,5.484,5.4032,5.2417,5.0765,0.0,0.0,0.0,0.0,0.0,0.0,0.0,0.0,0.0,0.0,0.0,0.0,0.0,0.0,0.0,0.0,0.0,0.0,0.0,0.0,0.0,0.0,0.0,0.0,0.0,0.0,0.0,0.0,5.0462,5.0364,4.8922,0.0,0.0,0.0,0.0,0.0,0.0,0.0,0.0,0.0,0.0,5.1345,5.2329,5.3022,5.3375,5.3256,5.3248,5.2847,5.1834,5.289,5.3074,5.07,0.0,0.0,0.0,0.0,0.0,0.0,0.0,0.0,0.0,0.0,0.0,0.0,0.0,0.0,0.0,0.0,0.0,0.0,0.0,0.0,0.0,0.0,0.0,0.0,0.0,0.0,0.0,0.0,0.0,0.0,0.0,0.0,0.0,0.0,0.0,0.0,0.0,0.0,0.0,0.0,0.0,0.0,0.0,0.0,0.0,0.0,0.0,0.0,0.0,0.0,0.0,0.0,0.0,0.0,4.9684,5.3686,5.5317,5.4546,5.4436,5.4069,5.3314,5.3167,5.236,5.0765,0.0,0.0,0.0,0.0,0.0,0.0,0.0,0.0,0.0,0.0,0.0,0.0,0.0,0.0,0.0,0.0,0.0,0.0,0.0,0.0,0.0,0.0,0.0,0.0,0.0,0.0,4.5213,4.703,4.8479,0.0,0.0,0.0,0.0,0.0,0.0,0.0,0.0,0.0,0.0,5.0705,5.246,5.1028,5.1778,5.2468,5.2174,5.1407,5.1222,5.2387,5.2603,5.259,0.0,0.0,0.0,0.0,0.0,0.0,0.0,0.0,0.0,0.0,0.0,0.0,0.0,0.0,0.0,0.0,0.0,0.0,0.0,0.0,0.0,0.0,0.0,0.0,0.0,0.0,0.0,4.2282,4.2103,0.0,0.0,0.0,0.0,0.0,0.0,0.0,0.0,0.0,0.0,0.0,4.9534,4.9554,0.0,0.0,0.0,0.0,0.0,0.0,0.0,0.0,0.0,0.0,0.0,0.0,5.0105,4.9774,5.4069,5.6014,5.5207,5.4693,5.4252,5.3995,5.3482,5.2711,5.161,0.0,0.0,0.0,0.0,0.0,0.0,0.0,0.0,0.0,0.0,0.0,0.0,0.0,0.0,0.0,0.0,0.0,0.0,0.0,0.0,0.0,0.0,0.0,0.0,0.0,4.712,0.0,0.0,0.0,0.0,0.0,0.0,0.0,0.0,0.0,0.0,0.0,4.8137,4.9452,5.0055,5.066,5.1451,5.2134,5.2874,0.0,0.0,0.0,0.0,0.0,0.0,0.0,0.0,0.0,0.0,0.0,0.0,0.0,0.0,5.1527,4.9364,5.0558,5.2052,5.26,0.0,0.0,0.0,0.0,0.0,0.0,0.0,0.0,0.0,0.0,0.0,0.0,0.0,0.0,0.0,0.0,4.3822,0.0,0.0,0.0,0.0,0.0,0.0,0.0,0.0,5.0251,5.1316,5.205,5.205,5.205,0.0,5.1206,4.915,0.0,0.0,0.0,0.0,0.0,0.0,0.0,0.0,5.0068,4.9701,5.4032,5.6124,5.5633,5.5097,5.4803,5.4803,5.4326,5.3922,5.3665,5.1316,4.9921,0.0,0.0,0.0,0.0,0.0,0.0,0.0,0.0,0.0,0.0,0.0,0.0,0.0,0.0,0.0,0.0,0.0,0.0,0.0,0.0,0.0,0.0,0.0,4.7003,0.0,0.0,0.0,0.0,0.0,0.0,0.0,0.0,0.0,4.7481,4.8327,4.945,5.074,5.0887,5.0932,5.1149,0.0,0.0,0.0,0.0,0.0,0.0,0.0,5.2009,5.1525,5.2247,5.3267,5.4455,5.4948,5.5118,5.4962,0.0,0.0,5.207,5.3494,5.5358,5.6158,5.6931,5.7819,5.8973,5.8704,5.8473,0.0,0.0,0.0,0.0,0.0,0.0,0.0,0.0,4.9531,4.8907,0.0,4.605,0.0,0.0,0.0,0.0,0.0,0.0,0.0,0.0,5.5904,5.6675,5.4583,5.4509,5.4509,5.4363,5.2234,5.1096,5.1022,5.1022,0.0,0.0,0.0,0.0,0.0,0.0,4.9647,4.9774,5.3628,5.5633,5.5633,5.5596,5.5574,5.5574,5.5574,5.5904,5.6638,5.4473,5.3592,5.4252,4.9828,0.0,0.0,0.0,0.0,0.0,0.0,0.0,0.0,0.0,0.0,0.0,0.0,0.0,0.0,0.0,0.0,0.0,0.0,0.0,0.0,4.5957,0.0,0.0,0.0,0.0,0.0,0.0,0.0,0.0,0.0,0.0,4.8461,5.0002,5.1267,5.1267,0.0,0.0,0.0,0.0,5.3735,5.0461,5.1148,5.2043,5.1766,5.2958,5.4464,5.5931,0.0,0.0,5.969,5.8238,5.6963,5.652,5.8039,5.8548,5.6254,5.6948,5.8081,5.8948,6.0148,6.095,6.105,6.1358,6.1243,5.5336,0.0,0.0,0.0,0.0,4.9902,4.9908,5.0209,4.9815,4.9644,4.9576,4.8747,0.0,0.0,0.0,0.0,0.0,0.0,5.2732,5.4568,5.517,5.5978,5.6969,5.6969,5.6969,5.6932,5.6271,5.5941,5.5941,5.5941,5.2931,4.7186,0.0,0.0,0.0,0.0,5.1022,5.2234,5.4987,5.6161,5.5633,5.5633,5.5633,5.5633,5.5633,5.5978,5.6785,5.5574,5.4766,5.4363,5.2527,0.0,0.0,0.0,0.0,0.0,0.0,0.0,0.0,0.0,0.0,0.0,0.0,0.0,0.0,0.0,0.0,0.0,0.0,0.0,4.6746,4.7278,4.6948,0.0,0.0,0.0,0.0,0.0,0.0,0.0,0.0,0.0,5.169,5.0746,5.032,0.0,0.0,5.0859,5.0508,5.2798,5.4607,5.4715,0.0,0.0,0.0,5.7228,5.697,5.7413,5.8934,6.01,6.0204,6.0698,6.1055,6.0903,6.1373,6.1691,6.1717,6.1672,6.2219,6.3385,6.4231,6.5073,6.5987,6.6244,6.6192,5.8187,5.5435,5.4496,5.3792,5.3271,5.2337,5.2544,5.3518,5.2869,5.278,5.2951,5.1853,5.1726,5.2334,5.2029,0.0,0.0,0.0,5.5207,5.7446,5.6675,5.6895,5.796,5.7997,5.7997,5.7997,5.7997,5.7997,5.796,5.7373,5.484,5.0582,0.0,0.0,4.8636,5.1316,5.3188,5.4216,5.6859,5.7997,5.7519,5.7483,5.7483,5.7483,5.7189,5.7262,5.7717,5.6969,5.6308,5.5831,5.4436,5.2564,0.0,0.0,0.0,0.0,0.0,0.0,0.0,0.0,0.0,0.0,0.0,4.548,0.0,0.0,0.0,0.0,4.7278,4.77,4.8049,4.7939,0.0,0.0,0.0,0.0,0.0,0.0,0.0,4.9114,5.161,5.3592,5.4069,5.3445,5.3225,5.4032,5.3995,5.3812,5.3665,0.0,5.7373,5.774,5.8437,5.9281,6.0236,6.0126,6.0236,6.1227,6.2144,6.2805,6.2842,6.3649,6.4127,6.3918,6.4053,6.442,6.4934,6.509,6.5338,6.6132,6.6957,6.7777,6.8597,6.876,6.8808,5.9781,6.0168,5.7936,5.6948,5.6698,5.458,5.5662,5.8736,5.7461,5.7273,5.7645,5.504,5.4157,5.4592,5.3291,0.0,0.0,5.7156,5.8364,6.0456,5.9685,5.8877,5.8107,5.8143,5.8143,5.8107,5.818,5.818,5.8143,5.6712,5.5868,5.5669,5.495,5.3371,5.1279,5.3922,5.55,5.5706,5.8584,6.0199,6.0382,6.0419,6.0419,6.0382,5.9685,5.9294,5.9258,5.8584,5.818,5.8033,5.5978,5.4656,5.4289,0.0,0.0,0.0,0.0,0.0,0.0,0.0,0.0,0.0,0.0,0.0,0.0,0.0,0.0,0.0,4.8526,0.0,4.9904,4.8526,0.0,0.0,0.0,4.9224,5.0839,5.183,5.2364,5.2291,0.0,0.0,0.0,0.0,5.8731,5.9661,6.0089,5.9795,5.84,6.0126,6.1263,5.9905,6.0419,6.1043,6.1484,6.2401,6.387,6.5742,6.6659,6.6549,6.6549,6.6696,6.6439,6.5925,6.6292,6.6806,6.6806,6.7383,6.7826,6.7577,6.836,6.9176,6.9411,6.949,6.9721,6.0676,6.023,5.9085,5.8272,5.7716,5.7719,5.7568,5.7356,5.755,5.7746,5.7814,5.7171,5.7259,5.8002,5.8895,5.9736,6.0476,6.0491,6.075,6.1227,6.0493,5.9685,5.8964,5.9538,5.9501,5.8988,5.9538,5.9832,5.9832,5.9428,5.8327,5.6602,5.6308,5.5023,5.2726,5.3408,5.4693,5.6492,5.7262,5.8547,6.0346,6.0419,6.0419,6.0419,6.0236,6.0126,6.0126,5.9942,5.9538,5.8951,5.834,5.6932,5.4509,5.1573,0.0,0.0,0.0,0.0,0.0,0.0,0.0,0.0,0.0,4.5369,4.4176,0.0,4.6966,0.0,5.0195,5.238,5.3188,5.238,0.0,0.0,5.0986,5.1499,5.2527,5.4436,5.5427,5.4803,5.6859,5.8584,5.9208,6.0676,6.2438,6.4383,6.1704,5.9575,5.9832,6.1924,6.3356,6.3172,6.4567,6.5925,6.5888,6.6256,6.6696,6.732,6.7907,6.8311,6.8348,6.8862,6.9155,6.9009,6.9082,6.9229,6.9192,6.9412,6.9467,6.9399,6.9076,6.9027,7.0001,7.0554,7.1098,6.1016,6.0163,5.9426,5.8118,5.6506,5.6952,5.6986,5.6799,5.69,5.7273,5.7881,5.7881,5.8137,5.8668,5.9925,6.0484,6.0575,6.1634,6.1943,6.1641,6.191,6.1594,6.0835,6.1263,6.1043,6.0309,6.0713,6.075,6.0456,6.075,6.0236,5.8951,5.9318,5.8267,5.5882,5.4473,5.4399,5.5721,5.7152,5.9024,6.1374,6.1484,6.097,5.9918,5.9501,5.8841,5.7776,5.7373,5.7005,5.6542,5.6198,5.5354,5.3922,5.1206,4.926,0.0,0.0,0.0,0.0,0.0,0.0,0.0,0.0,0.0,0.0,0.0,4.8727,0.0,5.1442,0.0,5.3335,5.2931,5.2858,5.3408,5.3885,5.473,5.6235,5.7593,5.8364,5.829,6.0089,6.1704,6.2511,6.398,6.5448,6.6843,6.4677,6.3135,6.3649,6.4861,6.5815,6.6219,6.7357,6.8385,6.8678,6.8752,6.8752,6.8788,6.9119,6.9449,6.9449,6.9779,7.011,7.011,7.011,7.011,7.011,7.011,7.011,7.0018,6.9637,6.9545,7.0174,7.06,7.1019,6.1105,6.0253,5.95,5.7611,5.5141,5.504,5.5378,5.5919,5.5378,5.6055,5.7645,5.7983,5.8186,5.8225,5.9047,5.9423,5.9558,6.1757,6.2457,6.1993,6.3381,6.3658,6.2964,6.3074,6.2695,6.1924,6.2034,6.1704,6.108,6.1741,6.1851,6.1484,6.2144,6.1227,5.8707,5.5941,5.4546,5.4583,5.7629,6.0212,6.2266,6.201,6.0896,5.8817,5.807,5.6712,5.4656,5.3885,5.346,5.3335,5.2711,5.2711,5.3534,5.0635,4.937,0.0,4.8159,0.0,0.0,0.0,0.0,0.0,0.0,0.0,0.0,5.0949,5.1096,5.1389,5.2784,5.3482,5.2931,5.3004,5.4216,5.7042,5.7409,5.829,6.0419,6.0786,6.1153,6.1814,6.3356,6.4677,6.5301,6.6769,6.7714,6.7797,6.765,6.7467,6.7898,6.776,6.7981,6.8935,6.9045,6.9265,6.9816,7.0,7.0,7.0036,7.0146,7.0257,7.0257,7.0403,7.044,7.044,7.0513,7.0477,7.0403,7.044,7.044,7.0513,7.0468,7.0422,7.0367,7.0485,7.0575,6.1838,6.1057,6.0224,5.9235,5.8152,5.7509,5.5006,5.1386,5.186,5.3551,5.6258,5.8626,5.9674,5.9749,6.056,6.0982,6.1017,6.2126,6.2908,6.3488,6.3775,6.3912,6.3881,6.453,6.442,6.3686,6.4273,6.453,6.4383,6.453,6.3246,6.0713,6.0786,5.9318,5.6418,0.0,0.0,0.0,5.7923,5.9404,5.9771,5.796,5.6748,5.6271,5.6124,0.0,5.539,5.5207,5.484,5.4216,5.4032,0.0,0.0,0.0,0.0,0.0,0.0,0.0,0.0,0.0,0.0,0.0,5.3555,5.2674,5.183,5.1756,5.2564,5.4473,5.5574,5.6602,5.774,5.8437,5.9318,6.0493,6.0676,6.1117,6.2254,6.2952,6.3466,6.3613,6.5044,6.6072,6.6329,6.71,6.7944,6.8568,6.8678,6.8935,6.9522,6.9045,6.9009,6.9706,6.9889,6.9926,7.0073,7.0183,7.0257,7.0183,7.0697,7.1027,7.1101,7.1615,7.2018,7.1982,7.2055,7.2018,7.2018,7.2055,7.1945,7.2055,7.2018,7.1872,7.1211,7.1458,7.2037,6.2616,0.0,6.0994,5.9844,0.0,5.7679,5.5243,5.1928,5.4126,5.6122,5.7983,5.9438,6.008,6.005,5.9033,5.8597,5.8563,5.8328,5.9481,6.1722,6.2558,6.3994,6.5915,6.6292,6.6072,6.5301,6.5705,6.5705,6.5338,6.5338,6.4457,6.2842,6.2842,6.1998,6.0456,6.0382,5.9612,5.7997,5.9171,6.0176,6.0872,5.979,5.8196,5.6284,0.0,0.0,0.0,0.0,0.0,0.0,0.0,0.0,0.0,0.0,0.0,5.4828,5.383,5.3869,5.5425,5.5946,5.706,5.9038,5.9171,5.8143,5.5757,5.5904,5.6969,5.8951,5.9538,5.9942,6.0346,6.1117,6.1777,6.2181,6.2585,6.3135,6.3906,6.442,6.4824,6.5264,6.5999,6.6769,6.7614,6.8017,6.8605,6.9339,6.9486,6.9779,7.044,7.0,6.9779,7.055,7.1064,7.1284,7.1284,7.1284,7.1284,7.1358,7.1651,7.1872,7.1908,7.2239,7.2532,7.2532,7.2532,7.2532,7.2532,7.2532,7.2532,7.2532,7.2532,7.2422,7.1982,7.2143,7.2425,6.3254,6.2516,6.1806,6.0385,5.8626,5.8051,5.6765,5.5243,0.0,0.0,0.0,6.025,6.0486,6.0351,5.7983,5.69,5.6801,5.5747,5.7028,6.0291,6.1592,6.3985,6.7157,6.7369,6.7094,6.6509,6.6643,6.6366,6.5742,6.5705,6.5668,6.5521,6.5521,6.5521,6.5495,6.5474,6.4213,6.1762,6.081,6.1043,6.229,6.1795,5.9853,5.6429,5.6329,5.5312,5.3218,5.3085,5.3085,5.3112,5.2599,5.281,5.3852,5.3437,5.3648,5.4691,5.4903,5.6209,5.8862,5.9808,6.1448,6.4138,6.3998,6.2716,6.0028,6.0456,6.13,6.2475,6.2879,6.2768,6.2108,6.2768,6.3294,6.3441,6.409,6.4787,6.5411,6.5668,6.5999,6.6586,6.688,6.7467,6.8862,6.9119,6.9412,7.011,7.033,7.0587,7.1248,7.0991,7.0807,7.1431,7.1945,7.2422,7.2496,7.2422,7.2532,7.2386,7.2422,7.2532,7.2532,7.2532,7.2532,7.2532,7.2532,7.2532,7.2532,7.2642,7.2679,7.2716,7.2826,7.2936,7.2936,7.2936,7.2928,6.3447,6.3294,6.255,6.2042,6.1738,6.1637,6.1434,6.096,5.8964,5.8118,5.8355,6.0926,6.2076,6.2042,6.1637,6.1434,6.1434,6.1249,6.1884,0.0,6.3345,6.4142,6.539,6.6217,6.6546,6.6467,6.7167,6.7467,6.7357,6.7357,6.699,6.6402,6.6329,6.6366,6.6349,6.6191,6.6277,6.6385,6.2418,6.0413,6.0591,5.789,5.5876,5.4669,5.4675,5.4141,5.3148,5.319,5.3085,5.312,5.3584,5.488,5.7076,5.7651,5.8981,6.1047,6.1968,6.2587,6.299,6.392,6.4647,6.4992,6.3739,6.2685,6.2363,6.2401,6.2266,6.1924,6.3172,6.387,6.3796,6.4431,6.5139,6.5778,6.6072,6.6219,6.6402,6.6953,6.7393,6.7577,6.8164,6.8862,6.9706,6.9926,7.022,7.0917,7.1138,7.1431,7.2018,7.2239,7.2202,7.2312,7.2422,7.2532,7.2532,7.2532,7.2532,7.2532,7.2532,7.2532,7.2532,7.2532,7.2532,7.2532,7.2532,7.2532,7.2532,7.3083,7.334,7.3487,7.3891,7.4404,7.4404,7.4441,7.4294,6.4106,6.4005,6.3328,6.299,6.2956,6.2584,6.2415,6.2279,6.0926,6.0317,6.0452,6.1772,6.2415,6.2245,6.0689,5.9945,5.9877,5.8287,5.8899,6.1155,6.1259,6.2576,6.486,6.5458,6.5617,6.5649,6.6059,6.6241,6.6307,6.7157,6.7469,6.7113,6.7484,6.7702,6.7644,6.711,6.7053,6.7302,6.4741,6.3172,6.2722,6.1278,5.9904,5.8703,5.8669,5.829,5.7601,5.7567,5.736,5.6913,5.7222,5.7945,5.9012,5.9426,6.0082,6.1188,6.1605,6.2045,6.2505,6.375,6.4668,6.5064,6.4409,6.378,6.335,6.3382,6.3792,6.4798,6.5632,6.5852,6.5485,6.5724,6.608,6.6449,6.6847,6.7275,6.7789,6.8531,6.8972,6.9009,6.9302,6.9853,7.066,7.077,7.1064,7.1798,7.1945,7.2129,7.2459,7.2532,7.2532,7.2496,7.2532,7.2532,7.2532,7.2532,7.2532,7.2532,7.2532,7.2532,7.2532,7.2532,7.2532,7.2532,7.2532,7.2532,7.2532,7.3156,7.3597,7.378,7.4368,7.4845,7.4888,7.5212,7.5249,6.485,6.4783,6.4072,6.3666,6.3463,6.2888,6.255,6.2415,6.2381,6.2415,6.2415,6.2415,6.2415,6.2144,5.9911,5.8896,5.8592,5.6562,5.7121,5.9702,5.9909,6.1537,6.4216,6.4597,6.4698,6.4767,6.5076,6.5282,6.5419,6.6785,6.7532,6.7604,6.8291,6.8654,6.8654,6.7865,6.7517,6.7447,6.66,6.5786,6.5068,6.4882,6.408,6.2764,6.2657,6.2279,6.1603,6.14,6.0994,6.0419,6.0385,6.0385,6.0385,6.052,6.0622,6.066,6.0815,6.1305,6.2162,6.3367,6.4329,6.4928,6.4799,6.4519,6.4117,6.3934,6.4651,6.6466,6.6769,6.6725,6.6175,6.624,6.6374,6.643,6.7102,6.7708,6.8429,6.9092,6.9595,6.9705,6.9741,6.9973,7.0725,7.1128,7.156,7.2255,7.2532,7.2532,7.2532,7.2532,7.2532,7.2532,7.2532,7.2532,7.2532,7.2532,7.2532,7.2532,7.2532,7.2532,7.2532,7.2532,7.2532,7.2532,7.2532,7.2532,7.2569,7.3156,7.3707,7.4001,7.4735,7.5285,7.5579,7.5983,7.6093,6.5561,6.5459,6.4816,6.4106,6.3565,6.3429,6.3024,6.2448,6.2415,6.2415,6.2415,6.2415,6.2415,6.2381,6.2009,6.1839,6.1839,6.167,6.1646,6.1965,6.2096,6.2343,6.2745,6.3462,6.3827,6.4004,6.5232,6.5824,6.5893,6.6841,6.7333,6.7439,6.8113,6.8537,6.8504,6.8204,6.8096,6.8096,6.7221,6.6416,6.5783,6.501,6.422,6.3429,6.3429,6.3057,6.2415,6.1637,6.1298,6.1197,6.1197,6.1197,6.1264,6.1772,6.2178,6.2183,6.2884,6.3763,6.4521,6.4824,6.4827,6.4933,6.4218,6.4113,6.4695,6.4148,6.3764,6.4397,6.4909,6.5358,6.5193,6.5734,6.6193,6.6319,6.6936,6.7403,6.7572,6.7506,6.779,6.857,6.8879,6.8959,6.9873,7.0551,7.1366,7.2064,7.2167,7.2167,7.2197,7.2197,7.2226,7.2314,7.2438,7.2409,7.2409,7.2496,7.2438,7.2467,7.2496,7.2496,7.2532,7.2532,7.2532,7.2716,7.2606,7.2642,7.2863,7.3156,7.4037,7.4735,7.5432,7.6203,7.6864,7.7053,7.676,6.6373,6.6305,6.5561,6.4816,6.4208,6.4174,6.3734,6.3057,6.3057,6.2821,6.2415,6.2415,6.2415,6.2415,6.2415,6.2415,6.2415,6.2415,6.2415,6.2415,6.2415,6.2415,6.2493,6.3212,6.3581,6.3649,6.4721,6.5183,6.5434,6.651,6.7689,6.8541,6.8463,6.8343,6.8269,6.7655,6.7373,6.7373,6.6988,6.6682,6.6425,6.6072,6.5764,6.5527,6.5459,6.5121,6.441,6.4038,6.3497,6.2719,6.2618,6.2415,6.1975,6.2245,6.2415,6.242,6.2702,6.3087,6.3427,6.3464,6.3464,6.3464,6.3162,6.3258,6.4008,6.381,6.3772,6.4289,6.5128,6.5815,6.6243,6.6145,6.6179,6.6707,6.7059,6.7407,6.794,6.8399,6.8894,6.9177,6.9247,6.9283,6.9637,7.0023,7.0434,7.0767,7.0832,7.0966,7.0901,7.0868,7.0868,7.0868,7.0868,7.1127,7.1542,7.216,7.2197,7.1951,7.2167,7.2467,7.2504,7.2532,7.2642,7.312,7.3193,7.3413,7.3964,7.4515,7.5249,7.5726,7.624,7.6937,7.7237,7.731,7.709,6.6812,6.6745,6.6237,6.5561,6.4918,6.4884,6.4478,6.3869,6.3802,6.3497,6.3024,6.2787,6.2685,6.2651,6.2482,6.2415,6.2415,6.2415,6.2516,6.2685,6.2685,6.2821,6.3057,6.3531,6.3802,6.3937,6.4586,6.5026,6.5304,6.6325,6.7665,6.8613,6.8146,6.7827,6.7747,6.7078,6.6812,6.6812,6.6812,6.6812,6.6812,6.6812,6.6812,6.6812,6.6812,6.6542,6.6034,6.5797,6.5222,6.4174,6.3937,6.3463,6.2753,6.2685,6.2618,6.2415,6.2415,6.2415,6.2415,6.2584,6.2685,6.2719,6.2854,6.3226,6.3666,6.3835,6.414,6.4843,6.5572,6.621,6.6348,6.6142,6.617,6.6764,6.6938,6.735,6.7917,6.8628,6.8798,6.8908,6.865,6.9056,6.924,6.9277,6.9386,6.9743,6.9778,6.9708,6.9708,6.9778,6.9778,6.9708,6.9743,6.9988,7.0635,7.1127,7.1323,7.1255,7.1417,7.2121,7.2416,7.2585,7.312,7.3854,7.3927,7.4111,7.4441,7.5249,7.5946,7.6203,7.6717,7.7237,7.7273,7.731,7.731,6.6812,6.6812,6.6779,6.6305,6.5628,6.5662,6.5222,6.458,6.4546,6.4512,6.4309,6.3734,6.3463,6.3429,6.2821,6.2415,6.2415,6.2448,6.2854,6.3463,6.3531,6.3835,6.4478,6.4546,6.458,6.4715,6.5324,6.5967,6.6576,6.6761,6.6862,6.6946,6.6988,6.6938,6.6904,6.6854,6.6812,6.6812,6.6812,6.6812,6.6812,6.6812,6.6812,6.6812,6.6812,6.6779,6.6677,6.6068,6.5628,6.5595,6.4884,6.4208,6.3565,6.3429,6.3125,6.2482,6.2415,6.2415,6.2516,6.3091,6.3463,6.3531,6.4005,6.4478,6.4546,6.4546,6.4884,6.5602,6.5773,6.5623,6.5215,6.5657,6.5841,6.5956,6.6445,6.6818,6.692,6.7175,6.6946,6.7071,6.7202,6.7535,6.8185,6.8266,6.8648,6.924,6.9601,6.9529,6.9421,6.9529,6.9493,6.9457,6.9493,6.9672,6.9743,7.0196,7.0093,6.9953,7.0503,7.1412,7.2241,7.3031,7.3745,7.4402,7.4336,7.4445,7.4799,7.5175,7.5652,7.613,7.679,7.72,7.7273,7.731,7.731,6.6812,6.6812,6.6812,6.6643,6.6406,6.6406,6.5967,6.5324,6.5324,6.5019,6.4613,6.4309,6.4208,6.4208,6.3937,6.3565,6.3125,6.3091,6.3768,6.4783,6.4884,6.529,6.5967,6.6,6.6034,6.6068,6.6271,6.6542,6.6779,6.6812,6.6812,6.6812,6.6812,6.6812,6.6812,6.6812,6.6812,6.6812,6.6812,6.6812,6.6812,6.6812,6.6812,6.6812,6.6812,6.6812,6.6812,6.6542,6.6203,6.573,6.5425,6.4986,6.4275,6.3768,6.3193,6.255,6.2854,6.3125,6.3193,6.3802,6.4208,6.4241,6.4444,6.485,6.5189,6.5324,6.5628,6.6203,6.6406,6.6271,6.617,6.6271,6.6406,6.644,6.6643,6.6812,6.6812,6.6812,6.6812,6.6812,6.6812,6.6988,6.7243,6.7291,6.7454,6.7742,6.7861,6.7901,6.7861,6.7861,6.798,6.7861,6.7822,6.7861,6.7861,6.9056,6.9601,6.9277,6.9529,7.045,7.1294,7.1717,7.2346,7.3706,7.4028,7.448,7.4721,7.5598,7.5948,7.6256,7.6946,7.682,7.7273,7.7082,7.715,6.6567,6.6278,6.6643,6.6525,6.6192,6.6192,6.6137,6.5985,6.5623,6.5396,6.5283,6.5053,6.4952,6.4884,6.4715,6.4512,6.4241,6.4241,6.4884,6.6,6.6305,6.6812,6.7421,6.7286,6.7184,6.7117,6.6914,6.6812,6.6812,6.6812,6.6812,6.6812,6.6812,6.6812,6.6812,6.6812,6.6812,6.6812,6.6812,6.6812,6.6812,6.6812,6.6812,6.6812,6.6812,6.6812,6.6812,6.6812,6.6576,6.6136,6.6034,6.5696,6.4986,6.4275,6.3632,6.3226,6.3565,6.3869,6.3937,6.4546,6.4952,6.4986,6.5189,6.5561,6.6,6.6034,6.6339,6.6677,6.6812,6.6812,6.6812,6.6812,6.6812,6.6812,6.6812,6.6812,6.6812,6.6812,6.6812,6.6812,6.6812,6.6812,6.6812,6.6812,6.6854,6.6812,6.6812,6.6812,6.6812,6.6812,6.6812,6.6812,6.6938,6.6988,6.7071,6.798,6.8451,6.818,6.8569,6.9477,7.0404,7.0761,7.1507,7.2818,7.3677,7.4221,7.4905,7.5819,7.6231,7.6399,7.6094,7.5821,7.6297,7.6761,7.6824,6.6029,6.5215,6.6235,6.5942,6.5126,6.4947,6.5603,6.6124,6.5282,6.5348,6.6069,6.5883,6.5538,6.5561,6.5121,6.5053,6.5527,6.573,6.6237,6.6948,6.7624,6.8335,6.9045,6.8267,6.7793,6.7658,6.7117,6.6812,6.6812,6.6812,6.6812,6.6812,6.6812,6.6812,6.6812,6.6812,6.6812,6.6812,6.6812,6.6812,6.6812,6.6812,6.6846,6.688,6.6914,6.6948,6.6948,6.688,6.6812,6.6846,6.6812,6.6474,6.5797,6.5121,6.4613,6.4546,6.4613,6.4613,6.4681,6.529,6.5696,6.5764,6.6339,6.6609,6.6643,6.6711,6.6745,6.6779,6.6812,6.6812,6.6812,6.6812,6.6812,6.6812,6.6812,6.6812,6.6812,6.6812,6.6812,6.6812,6.6812,6.6812,6.6812,6.6812,6.6812,6.6812,6.6812,6.6812,6.6812,6.6812,6.6812,6.6812,6.6812,6.6812,6.6812,6.6854,6.6896,6.6988,6.7736,6.857,6.9871,7.051,7.1373,7.2573,7.3347,7.3864,7.3981,7.4757,7.4975,7.5048,7.483,7.494,7.544,7.5925,7.6465,6.526,6.4823,6.4368,6.4505,6.4733,6.3966,6.3858,6.4137,6.3685,6.4322,6.5271,6.5249,6.5607,6.6281,6.6203,6.6237,6.6542,6.7489,6.8166,6.847,6.9147,6.9857,7.0229,6.9316,6.8166,6.7286,6.6914,6.6812,6.6812,6.6812,6.6812,6.6812,6.6812,6.6812,6.6812,6.6812,6.6812,6.6812,6.6812,6.6812,6.6812,6.6846,6.7049,6.7489,6.7557,6.7793,6.8301,6.7387,6.7083,6.7523,6.7557,6.7455,6.7117,6.6542,6.5899,6.5425,6.5358,6.5358,6.5425,6.6,6.644,6.6508,6.6677,6.6812,6.6812,6.6812,6.6812,6.6812,6.6812,6.6812,6.6812,6.6812,6.6812,6.6812,6.6812,6.6812,6.6812,6.6812,6.6812,6.6812,6.6812,6.6812,6.6812,6.6812,6.6812,6.6812,6.6812,6.6812,6.6812,6.6812,6.6812,6.6812,6.6812,6.6812,6.6812,6.6846,6.688,6.7015,6.7475,6.8158,6.9337,7.032,7.1181,7.2009,7.2835,7.3212,7.3372,7.3571,7.3768,7.4079,7.4232,7.446,7.4757,7.5156,7.5545,6.3919,6.3417,6.3116,6.3116,6.337,6.2585,6.2568,6.2859,6.2439,6.3259,6.4642,6.4914,6.5603,6.6677,6.7083,6.7218,6.7387,6.8808,6.9485,6.962,7.0263,7.0872,7.1075,6.9789,6.8301,6.7083,6.6812,6.6812,6.6812,6.6812,6.6812,6.6812,6.6812,6.6812,6.6812,6.6812,6.6812,6.6846,6.7083,6.7218,6.7286,6.7489,6.7895,6.8301,6.8335,6.8605,6.9011,6.8166,6.7861,6.8267,6.8335,6.8335,6.8301,6.7895,6.732,6.6711,6.6508,6.6406,6.6237,6.6542,6.6812,6.6812,6.6812,6.6812,6.6812,6.6812,6.6812,6.6812,6.6812,6.6812,6.6812,6.6812,6.6812,6.6812,6.6812,6.6812,6.6812,6.6812,6.6812,6.6812,6.6812,6.6812,6.6812,6.6812,6.6812,6.6812,6.6812,6.6812,6.6812,6.6812,6.6812,6.6812,6.6812,6.6812,6.6812,6.688,6.6948,6.7151,6.7404,6.815,6.9084,6.9773,7.0549,7.1318,7.2099,7.2185,7.2321,7.254,7.279,7.3166,7.3447,7.3372,7.3452,7.3966,7.4423,6.2144,6.1193,6.2242,6.2045,6.1243,6.0989,6.1496,6.2341,6.1445,6.2211,6.4151,6.4289,6.5326,6.6632,6.7223,6.7579,6.8233,6.9383,7.006,7.0297,7.0804,7.1176,7.077,6.9654,6.8301,6.7015,6.6812,6.6812,6.6812,6.6812,6.6812,6.6812,6.6812,6.688,6.6948,6.6914,6.7015,6.7252,6.7692,6.7963,6.7996,6.8605,6.9045,6.9147,6.9147,6.9248,6.9383,6.9282,6.918,6.918,6.9248,6.9316,6.9248,6.9214,6.8707,6.7929,6.7895,6.7387,6.6948,6.6779,6.6812,6.6812,6.6812,6.6812,6.6812,6.6812,6.6812,6.6812,6.6812,6.6812,6.6812,6.6812,6.6812,6.6812,6.6812,6.6812,6.6812,6.6812,6.6812,6.6812,6.6812,6.6812,6.6812,6.6812,6.6812,6.6812,6.6812,6.6812,6.6812,6.6812,6.6812,6.6812,6.6812,6.6812,6.6812,6.7184,6.732,6.7557,6.7929,6.8707,6.9248,6.9823,7.0297,7.0984,7.1367,7.1401,7.1457,7.183,7.1917,7.2047,7.2056,7.2004,7.2321,7.2962,7.3532,6.1294,6.0938,6.0359,6.0432,6.0815,6.0045,5.9758,6.0075,5.9811,6.0609,6.1865,6.2013,6.3707,6.6055,6.6422,6.7302,6.8648,6.9745,7.0195,7.0297,7.0973,7.0601,6.9857,6.9316,6.8301,6.7015,6.6846,6.6812,6.6812,6.6812,6.6846,6.6812,6.688,6.7117,6.7523,6.7624,6.7963,6.8402,6.8639,6.8774,6.8808,6.9011,6.9383,6.9857,6.9891,7.0161,7.0635,7.0737,7.0432,6.9992,7.0466,7.0737,7.0601,7.0161,6.9553,6.8808,6.8199,6.759,6.7015,6.6812,6.6812,6.6812,6.6812,6.6812,6.6812,6.6812,6.6812,6.6812,6.6812,6.6812,6.6812,6.6812,6.6812,6.6812,6.6812,6.6812,6.6812,6.6812,6.6812,6.6812,6.6812,6.6812,6.6812,6.6812,6.6812,6.6812,6.6812,6.6812,6.6812,6.6812,6.6812,6.6812,6.6812,6.6812,6.6948,6.7387,6.7726,6.7996,6.8639,6.9654,7.0094,7.05,7.0872,7.1312,7.1356,7.1356,7.1312,7.1501,7.1312,7.1312,7.1367,7.16,7.183,7.2279,7.2749,6.0202,6.015,5.9392,5.9523,6.0097,5.9392,5.9099,5.9099,5.9153,5.9811,6.0815,6.0989,6.2572,6.5038,6.5458,6.6752,6.8593,6.9432,7.0073,7.0703,7.1109,7.0669,6.9755,6.9282,6.8436,6.7354,6.6948,6.6846,6.6812,6.6812,6.6981,6.7252,6.7252,6.7658,6.8368,6.8402,6.8605,6.9045,6.935,6.9553,6.9553,6.9891,7.0229,7.0601,7.0669,7.0906,7.1278,7.1312,7.1075,7.0838,7.1075,7.1312,7.1278,7.0906,7.0195,6.9214,6.8639,6.7963,6.7049,6.6812,6.6812,6.6812,6.6812,6.6812,6.6812,6.6812,6.6812,6.6812,6.6812,6.6812,6.6812,6.6812,6.6812,6.6812,6.6812,6.6812,6.6812,6.6812,6.6812,6.6812,6.6812,6.6812,6.6812,6.6812,6.6812,6.6812,6.6812,6.6812,6.6812,6.6812,6.6812,6.6812,6.6846,6.6846,6.6948,6.7286,6.8233,6.8571,6.9417,7.0466,7.0669,7.0973,7.1142,7.1312,7.1312,7.1312,7.1312,7.1312,7.1312,7.1312,7.1312,7.1356,7.159,7.1732,7.2142,5.9099,5.9099,5.9099,5.9099,5.9153,5.9099,5.9099,5.9099,5.9099,5.9683,6.0536,6.0825,6.2039,6.3942,6.4725,6.6093,6.8024,6.863,6.9547,7.015,7.0461,7.0138,6.9671,6.9262,6.8494,6.7624,6.7049,6.6981,6.7015,6.7015,6.7387,6.7861,6.803,6.847,6.9045,6.9214,6.9248,6.9586,7.006,7.0297,7.0398,7.077,7.1041,7.1109,7.1176,7.121,7.1278,7.1312,7.1278,7.1278,7.1312,7.1312,7.1312,7.1312,7.0567,6.9417,6.8944,6.8368,6.7151,6.6812,6.6812,6.6812,6.6812,6.6812,6.6812,6.6812,6.6812,6.6812,6.6812,6.6812,6.6812,6.6812,6.6812,6.6812,6.6812,6.6812,6.6812,6.6812,6.6812,6.6812,6.6812,6.6812,6.6812,6.6812,6.6812,6.6812,6.6812,6.6812,6.6812,6.6812,6.6812,6.6812,6.6846,6.688,6.7015,6.7184,6.8335,6.9214,7.0229,7.1041,7.1041,7.121,7.1244,7.1312,7.1312,7.1312,7.1312,7.1312,7.1312,7.1312,7.1312,7.1312,7.1356,7.1412,7.1732,5.9099,5.9099,5.9099,5.9099,5.9099,5.9099,5.9099,5.9099,5.9099,5.9285,5.959,6.0066,6.1439,6.3287,6.3996,6.5448,6.7199,6.7608,6.7856,6.7957,6.8107,6.8307,6.8539,6.8808,6.8359,6.7413,6.6948,6.7151,6.7523,6.7726,6.8064,6.8741,6.8876,6.9214,6.9857,6.9992,7.0297,7.0737,7.0973,7.1007,7.1007,7.1142,7.1312,7.1312,7.1312,7.1312,7.1312,7.1312,7.1312,7.1312,7.1312,7.1312,7.1312,7.1312,7.0601,6.9553,6.9079,6.8436,6.7184,6.6846,6.6812,6.6812,6.6812,6.6812,6.6812,6.6812,6.6812,6.6812,6.6812,6.6812,6.6812,6.6812,6.6812,6.6812,6.6812,6.6812,6.6812,6.6812,6.6812,6.6812,6.6812,6.6812,6.6812,6.6812,6.6812,6.6812,6.6812,6.6812,6.6812,6.6812,6.6812,6.6812,6.6846,6.6914,6.7252,6.759,6.8605,6.9553,7.0567,7.1312,7.1312,7.1312,7.1312,7.1312,7.1312,7.1312,7.1312,7.1312,7.1312,7.1312,7.1312,7.1312,7.1312,7.1312,7.1312,5.9099,5.9099,5.9099,5.9099,5.9099,5.9099,5.9099,5.9099,5.9099,5.9099,5.9249,5.9787,6.091,6.2171,6.2921,6.4243,6.5996,6.6906,6.7215,6.7266,6.7266,6.7185,6.7362,6.8128,6.8216,6.7757,6.7489,6.776,6.8267,6.8504,6.8842,6.9553,6.962,7.0026,7.0601,7.0703,7.0872,7.1142,7.1312,7.1312,7.1312,7.1312,7.1312,7.1312,7.1312,7.1312,7.1312,7.1312,7.1312,7.1312,7.1312,7.1312,7.1312,7.1278,7.0703,6.9857,6.9214,6.8605,6.7624,6.7015,6.6812,6.6812,6.6812,6.6812,6.6812,6.6812,6.6812,6.6812,6.6812,6.6812,6.6812,6.6812,6.6812,6.6812,6.6812,6.6812,6.6812,6.6812,6.6812,6.6812,6.6812,6.6812,6.6812,6.6812,6.6812,6.6812,6.6812,6.6812,6.6812,6.6812,6.6812,6.6812,6.6812,6.6981,6.7421,6.803,6.8944,6.9755,7.05,7.1075,7.1312,7.1312,7.1312,7.1312,7.1312,7.1312,7.1312,7.1312,7.1312,7.1312,7.1312,7.1312,7.1312,7.1312,7.1312,5.9099,5.9099,5.9099,5.9099,5.9099,5.9099,5.9099,5.9099,5.9099,5.9099,5.9279,5.9877,6.0736,6.125,6.2085,6.333,6.469,6.5759,6.6132,6.6352,6.6352,6.6333,6.6511,6.7345,6.8347,6.8919,6.8417,6.8571,6.9079,6.9316,6.9654,7.0229,7.0364,7.0635,7.1142,7.1278,7.1244,7.1312,7.1312,7.1312,7.1312,7.1312,7.1312,7.1312,7.1312,7.1312,7.1312,7.1312,7.1312,7.1312,7.1312,7.1312,7.1312,7.1278,7.0973,7.0229,6.962,6.8876,6.7963,6.7354,6.7015,6.688,6.6812,6.6812,6.6812,6.6812,6.6812,6.6812,6.6812,6.6812,6.6812,6.6812,6.6812,6.6812,6.6812,6.6812,6.6812,6.6812,6.6812,6.6812,6.6812,6.6812,6.6812,6.6812,6.6812,6.6812,6.6812,6.6812,6.6812,6.6812,6.6812,6.6812,6.6812,6.7489,6.7996,6.8977,6.9823,7.0094,7.0703,7.0973,7.1312,7.1312,7.1312,7.1312,7.1312,7.1312,7.1312,7.1312,7.1312,7.1312,7.1312,7.1312,7.1312,7.1312,7.1312,5.9099,5.9099,5.9099,5.9099,5.9099,5.9099,5.9099,5.9099,5.9099,5.9099,5.9279,6.0386,6.0954,6.1403,6.2421,6.3159,6.3676,6.4244,6.4401,6.4767,6.4915,6.5101,6.5927,6.6783,6.7782,6.8829,6.8818,6.9042,6.9857,7.0026,7.0364,7.0973,7.1075,7.121,7.1244,7.1312,7.1312,7.1312,7.1312,7.1312,7.1413,7.1413,7.1345,7.1345,7.1312,7.1312,7.1312,7.1312,7.1312,7.1312,7.1312,7.1222,7.1007,7.1007,7.076,7.0398,6.9792,6.9005,6.8156,6.776,6.7354,6.7015,6.6812,6.6812,6.6812,6.6812,6.6812,6.6812,6.6812,6.6812,6.6812,6.6812,6.6812,6.6812,6.6812,6.6812,6.6812,6.6812,6.6812,6.6812,6.6812,6.6812,6.6812,6.6812,6.6812,6.6812,6.6812,6.6812,6.6812,6.6812,6.6812,6.6812,6.6812,6.7726,6.8639,6.9857,7.0804,7.0669,7.0973,7.1075,7.1312,7.1312,7.1312,7.1312,7.1312,7.1312,7.1312,7.1312,7.1312,7.1312,7.1312,7.1312,7.1312,7.1312,7.1312,5.9099,5.9099,5.9099,5.9099,5.9099,5.9099,5.9099,5.9099,5.9099,5.9099,5.9518,6.0475,6.1104,6.1463,6.248,6.3107,6.3139,6.3468,6.3707,6.4036,6.4394,6.451,6.525,6.609,6.6543,6.7151,6.772,6.9156,7.0647,7.077,7.0895,7.1176,7.1312,7.1312,7.1312,7.1312,7.1312,7.1312,7.1312,7.147,7.1774,7.1808,7.1718,7.1368,7.1267,7.1312,7.1312,7.1312,7.0882,7.0356,7.0183,6.9855,6.9442,6.9313,6.9642,7.0186,6.9412,6.8741,6.8263,6.7929,6.7117,6.6914,6.677,6.6812,6.6812,6.6812,6.6812,6.6812,6.6812,6.6812,6.6812,6.6812,6.6812,6.6812,6.6812,6.6812,6.6812,6.6812,6.6812,6.6812,6.6812,6.6812,6.6812,6.6812,6.6812,6.6812,6.6812,6.6812,6.6812,6.6812,6.6812,6.6981,6.7083,6.7963,6.8977,7.0094,7.1075,7.1109,7.1176,7.1278,7.1312,7.1312,7.1312,7.1312,7.1312,7.1312,7.1312,7.1312,7.1312,7.1312,7.1312,7.1312,7.1312,7.1312,7.1312,5.9099,5.9099,5.9099,5.9099,5.9099,5.9099,5.9099,5.9099,5.9099,5.9189,5.9488,6.0535,6.1194,6.1642,6.254,6.3288,6.3318,6.3917,6.4306,6.4605,6.4994,6.4934,6.5107,6.5513,6.6323,6.6385,6.6906,6.8486,7.0163,7.0599,7.0894,7.1222,7.1312,7.1312,7.1312,7.1312,7.1312,7.1312,7.1312,7.1639,7.1837,7.2054,7.1623,7.0842,7.08,7.0791,7.0666,7.0263,6.9949,6.9394,6.8976,6.8355,6.7368,6.6958,6.7957,6.9561,6.8093,6.7857,6.7926,6.7463,6.6733,6.6762,6.6525,6.6525,6.6812,6.6812,6.6812,6.6812,6.6812,6.6812,6.6812,6.6812,6.6812,6.6812,6.6812,6.6812,6.6812,6.6812,6.6812,6.6812,6.6812,6.6812,6.6812,6.6812,6.6812,6.6812,6.6812,6.6812,6.6812,6.6812,6.688,6.7117,6.7489,6.8267,6.9147,7.0026,7.077,7.1007,7.1142,7.1278,7.1312,7.1312,7.1312,7.1312,7.1312,7.1312,7.1312,7.1312,7.1312,7.1312,7.1312,7.1312,7.1312,7.1312,7.1312,5.9099,5.9099,5.9099,5.9099,5.9099,5.9099,5.9099,5.9099,5.9099,5.9458,5.9937,6.0805,6.1493,6.2301,6.3348,6.3857,6.4096,6.4575,6.5114,6.5503,6.5772,6.6041,6.6433,6.6817,6.6514,6.6183,6.6616,6.8021,6.9217,6.9537,7.0263,7.1052,7.1312,7.1312,7.1312,7.1312,7.1312,7.1267,7.121,7.0976,7.0604,7.1017,7.0343,6.9321,6.9157,6.949,6.9313,6.8732,6.8256,6.8797,6.7924,6.7419,6.701,6.5941,6.6312,6.6972,6.6914,6.6566,6.695,6.6481,6.6002,6.6065,6.5646,6.5855,6.6235,6.6567,6.661,6.6812,6.6812,6.6812,6.6812,6.6812,6.6812,6.6812,6.6812,6.6812,6.6812,6.6812,6.6812,6.6812,6.6812,6.6812,6.6812,6.6812,6.6812,6.6812,6.6812,6.6812,6.6812,6.6812,6.7252,6.759,6.803,6.8808,6.962,7.0432,7.0703,7.0973,7.1109,7.1312,7.1312,7.1312,7.1312,7.1312,7.1312,7.1312,7.1312,7.1312,7.1312,7.1312,7.1312,7.1312,7.1312,7.1312,7.1312,5.9099,5.9099,5.9099,5.9099,5.9099,5.9099,5.9099,5.9099,5.9129,5.9488,6.0236,6.1253,6.2391,6.3617,6.4425,6.4575,6.4725,6.5293,6.5712,6.6101,6.634,6.652,6.6252,6.6008,6.5754,6.549,6.5288,6.6057,6.747,6.8976,6.9949,7.1098,7.1312,7.1312,7.1267,7.1267,7.0791,7.0356,7.0039,6.9598,6.9071,6.9384,6.9382,6.7728,6.7917,6.8007,6.7874,6.7673,6.6906,6.7061,6.6206,6.5567,6.4978,6.432,6.4346,6.4586,6.3819,6.411,6.5496,6.5141,6.498,6.4643,6.4276,6.4414,6.5382,6.5811,6.6148,6.677,6.6812,6.6812,6.6812,6.6812,6.6812,6.6812,6.6812,6.6812,6.6812,6.6812,6.6812,6.6812,6.6812,6.6812,6.6812,6.6812,6.6812,6.6812,6.6812,6.6812,6.6812,6.6812,6.7455,6.8301,6.8774,6.935,7.0195,7.1007,7.1007,7.1176,7.1176,7.1312,7.1312,7.1312,7.1312,7.1312,7.1312,7.1312,7.1312,7.1312,7.1312,7.1312,7.1312,7.1312,7.1312,7.1345,7.1582,5.9099,5.9099,5.9099,5.9099,5.9099,5.9099,5.9099,5.9129,5.9308,5.9817,6.0835,6.2181,6.3737,6.4784,6.5144,6.5263,6.5323,6.5951,6.6191,6.646,6.664,6.667,6.6311,6.5593,6.4844,6.4216,6.3785,6.4709,6.6312,6.7673,6.8927,7.1176,7.1312,7.1312,7.1188,7.0745,7.0096,6.9157,6.9052,6.8496,6.7758,6.8435,6.7832,6.7008,6.6565,6.6647,6.6679,6.6154,6.5436,6.5544,6.4813,6.4209,6.3535,6.3183,6.3006,6.2935,6.2208,6.214,6.31,6.3249,6.3157,6.3099,6.2924,6.3402,6.3653,6.4289,6.5126,6.6148,6.6686,6.6728,6.6812,6.6812,6.6812,6.6812,6.6812,6.6812,6.6812,6.6812,6.6812,6.6812,6.6812,6.6812,6.6812,6.6812,6.6812,6.6812,6.6812,6.6812,6.688,6.6914,6.7523,6.8436,6.9248,6.9722,7.0297,7.0973,7.1109,7.1312,7.1312,7.1312,7.1312,7.1312,7.1312,7.1312,7.1312,7.1312,7.1312,7.1312,7.1312,7.1312,7.1312,7.1312,7.1312,7.1413,7.1921,5.9099,5.9099,5.9129,5.9129,5.9129,5.9099,5.9129,5.9249,5.9787,6.0775,6.2121,6.3797,6.4665,6.5233,6.5712,6.5951,6.5981,6.664,6.6789,6.6849,6.6969,6.6909,6.643,6.5712,6.4905,6.4665,6.3736,6.3989,6.5032,6.5835,6.8057,7.0699,7.0791,7.1098,7.0733,6.9765,6.8927,6.8203,6.8129,6.7683,6.7277,6.7363,6.6823,6.5085,6.4931,6.5219,6.5165,6.4346,6.4153,6.4758,6.404,6.3414,6.2954,6.254,6.2361,6.1972,6.1433,6.1187,6.124,6.1535,6.1916,6.2519,6.2682,6.2242,6.2063,6.3747,6.4733,6.5003,6.5603,6.6235,6.6482,6.677,6.6482,6.6525,6.6525,6.6812,6.6812,6.6812,6.6812,6.6812,6.6812,6.6812,6.6812,6.6812,6.6812,6.6812,6.6812,6.6812,6.7049,6.7184,6.7624,6.8402,6.9451,6.9992,7.0229,7.0669,7.1176,7.1312,7.1312,7.1312,7.1312,7.1312,7.1312,7.1312,7.1312,7.1312,7.1312,7.1312,7.1312,7.1312,7.1312,7.1379,7.1718,7.2022,7.2563,5.9099,5.9159,5.9518,5.9488,5.9129,5.9548,5.9697,5.9817,6.0446,6.1702,6.3318,6.4515,6.5473,6.6101,6.64,6.661,6.664,6.6819,6.6969,6.6999,6.6999,6.6999,6.652,6.5862,6.4994,6.4755,6.3825,6.3789,6.5032,6.4978,6.6365,6.8306,6.949,6.9902,6.9508,6.8381,6.7356,6.708,6.6815,6.6342,6.5551,6.5796,6.5315,6.3782,6.3604,6.3845,6.3789,6.3421,6.3478,6.3592,6.3337,6.2984,6.257,6.2211,6.1882,6.1463,6.0835,6.0386,6.0146,6.024,6.0585,6.0368,6.0567,6.0691,6.0764,6.2112,6.294,6.3544,6.423,6.4811,6.4538,6.5126,6.5603,6.5811,6.6072,6.6397,6.6525,6.6397,6.6311,6.6062,6.6482,6.6812,6.6812,6.6812,6.6812,6.6812,6.6812,6.688,6.7151,6.759,6.8098,6.8707,6.9755,7.0432,7.0703,7.1007,7.1312,7.1312,7.1312,7.1312,7.1312,7.1312,7.1312,7.1312,7.1312,7.1312,7.1312,7.1312,7.1312,7.1312,7.1413,7.1515,7.1954,7.2496,7.3172,5.9398,5.9458,6.0116,6.0027,5.9518,6.0116,6.0386,6.0505,6.1104,6.251,6.4336,6.5054,6.5922,6.6759,6.6969,6.6969,6.6939,6.6969,6.6999,6.6999,6.6999,6.6999,6.661,6.6011,6.5263,6.4844,6.4065,6.3978,6.432,6.4457,6.5382,6.6522,6.747,6.8007,6.8204,6.6881,6.5819,6.5731,6.5611,6.5353,6.4544,6.4813,6.4542,6.3348,6.3252,6.3252,6.3279,6.3137,6.3137,6.3252,6.3047,6.2777,6.2301,6.1852,6.1463,6.0835,6.0236,5.9817,5.9817,5.9757,5.9578,5.9506,5.9339,5.9758,6.0202,6.0764,6.1796,6.2291,6.2731,6.2956,6.2956,6.3905,6.4322,6.446,6.472,6.4992,6.5337,6.5337,6.5337,6.5293,6.5724,6.5942,6.5603,6.5603,6.644,6.6525,6.6812,6.7049,6.7489,6.7996,6.8673,6.935,7.0161,7.0737,7.121,7.1278,7.1312,7.1312,7.1312,7.1312,7.1312,7.1312,7.1312,7.1312,7.1312,7.1312,7.1312,7.1312,7.1312,7.1312,7.1447,7.1582,7.2191,7.2766,7.3544,6.0057,6.0146,6.0805,6.0715,6.0236,6.0805,6.1104,6.1194,6.1822,6.3139,6.4844,6.5562,6.6251,6.6849,6.6999,6.6999,6.6999,6.6999,6.6999,6.6999,6.6999,6.6999,6.6729,6.6221,6.5503,6.4964,6.4216,6.3644,6.3337,6.3478,6.4209,6.4758,6.549,6.6164,6.699,6.5844,6.5136,6.511,6.5203,6.5203,6.4964,6.4964,6.4306,6.3408,6.3137,6.3137,6.3137,6.3137,6.3137,6.3137,6.2929,6.257,6.2032,6.1403,6.0835,6.0146,5.9548,5.9219,5.9159,5.9159,5.9159,5.9129,5.9099,5.9315,5.9499,6.0097,6.0815,6.1122,6.1828,6.2519,6.2811,6.2956,6.2972,6.3164,6.3402,6.3858,6.423,6.4414,6.4368,6.4368,6.4551,6.4642,6.4197,6.4276,6.5514,6.6192,6.6643,6.7151,6.7692,6.8335,6.9011,6.9755,7.0466,7.0872,7.1278,7.1278,7.1312,7.1312,7.1312,7.1312,7.1312,7.1312,7.1312,7.1312,7.1312,7.1312,7.1312,7.1312,7.1413,7.1515,7.1481,7.1718,7.2326,7.3105,7.395,6.0356,6.0835,6.1493,6.1642,6.1463,6.1642,6.1762,6.1882,6.251,6.3617,6.4844,6.5323,6.6011,6.67,6.6999,6.6999,6.6999,6.6999,6.6999,6.6999,6.6999,6.6999,6.6789,6.637,6.5682,6.4994,6.4336,6.3767,6.3194,6.3196,6.3252,6.3676,6.4071,6.4758,6.5768,6.5555,6.5199,6.5682,6.5981,6.5981,6.5173,6.4964,6.4425,6.3226,6.3137,6.3137,6.3137,6.3137,6.3137,6.2989,6.281,6.2181,6.1553,6.0864,6.0176,5.9638,5.9129,5.9129,5.9099,5.9129,5.9129,5.9159,5.9159,5.9189,5.9261,5.9446,5.9736,5.9902,6.0595,6.0876,6.039,6.1305,6.1628,6.1946,6.226,6.2972,6.3402,6.3449,6.3529,6.3482,6.3544,6.3638,6.3402,6.3779,6.4901,6.6009,6.6583,6.7277,6.7861,6.8538,6.9204,6.9992,7.0635,7.1041,7.1312,7.1312,7.1312,7.1312,7.1312,7.1312,7.1312,7.1312,7.1312,7.1312,7.1312,7.1312,7.1345,7.1413,7.1684,7.1785,7.1988,7.2326,7.3003,7.3747,7.4525,6.1044,6.1523,6.2151,6.245,6.2421,6.245,6.245,6.251,6.2929,6.3827,6.4814,6.5054,6.5772,6.667,6.6999,6.6999,6.6999,6.6999,6.6999,6.6999,6.6999,6.6999,6.6819,6.652,6.5892,6.5203,6.4814,6.4366,6.3498,6.3408,6.3374,6.3224,6.3166,6.4193,6.5022,6.5104,6.4904,6.5503,6.5922,6.5981,6.5323,6.4844,6.4366,6.3468,6.3137,6.3137,6.3137,6.3137,6.3137,6.2899,6.245,6.1792,6.1134,6.0475,5.9787,5.9338,5.9368,5.9518,5.9817,5.9907,5.9967,5.9937,5.9608,5.9578,5.9727,6.0046,6.0016,5.9986,5.9757,5.9812,6.0,6.0919,6.0954,6.1267,6.134,6.2034,6.1872,6.1953,6.209,6.2139,6.2274,6.239,6.2924,6.3718,6.446,6.5526,6.6556,6.7266,6.7935,6.8567,6.9319,7.0229,7.0804,7.1142,7.1312,7.1312,7.1312,7.1312,7.1312,7.1312,7.1312,7.1312,7.1312,7.1312,7.1312,7.1312,7.1379,7.1548,7.1954,7.2462,7.2935,7.3308,7.3781,7.4322,7.4931,6.2091,6.2211,6.281,6.3107,6.3107,6.2989,6.3019,6.3079,6.3109,6.3857,6.4964,6.5084,6.5862,6.6819,6.6999,6.6999,6.6999,6.6999,6.6999,6.6999,6.6999,6.6999,6.6999,6.6849,6.6161,6.5682,6.5323,6.5024,6.4126,6.3827,6.3558,6.3228,6.3228,6.394,6.439,6.4723,6.4874,6.5652,6.6071,6.5892,6.5233,6.4994,6.4276,6.3498,6.3137,6.3137,6.3137,6.3137,6.3137,6.2869,6.245,6.1822,6.1164,6.0505,5.9817,5.9578,5.9877,6.0356,6.0745,6.0775,6.0954,6.0835,6.0535,6.0655,6.0715,6.0745,6.0655,6.0685,6.0655,6.0835,6.1061,6.0967,6.0842,6.0771,6.05,6.0469,6.0183,6.016,6.0333,6.0534,6.0774,6.1173,6.2291,6.3164,6.3952,6.5225,6.6232,6.7022,6.7724,6.8294,6.9166,7.0534,7.0973,7.121,7.1312,7.1312,7.1312,7.1312,7.1312,7.1312,7.1312,7.1312,7.1312,7.1312,7.1312,7.1413,7.165,7.1988,7.236,7.2935,7.3646,7.3883,7.4221,7.4593,7.51,6.2361,6.281,6.2989,6.3137,6.3137,6.3137,6.3137,6.3139,6.3528,6.4246,6.5054,6.5533,6.6131,6.6939,6.6999,6.6999,6.6999,6.6999,6.6999,6.6999,6.6999,6.6999,6.6999,6.6939,6.64,6.6041,6.5772,6.5622,6.4755,6.4336,6.3737,6.3199,6.3558,6.3857,6.4186,6.4814,6.5562,6.6161,6.649,6.5922,6.5293,6.5024,6.4186,6.3468,6.3137,6.3137,6.3137,6.3137,6.3137,6.2929,6.2421,6.1912,6.1822,6.1194,6.0655,6.0625,6.0775,6.0924,6.1074,6.1134,6.1343,6.1732,6.1553,6.1283,6.1253,6.1253,6.1253,6.1373,6.1403,6.1463,6.1493,6.1373,6.1224,6.1014,6.0805,6.0651,6.0341,6.0126,6.0277,6.0029,6.0198,6.0484,6.1596,6.2487,6.3355,6.4799,6.5836,6.6566,6.7333,6.7866,6.8848,7.0186,7.1075,7.1278,7.1312,7.1312,7.1312,7.1312,7.1312,7.1312,7.1312,7.1312,7.1312,7.1379,7.1515,7.1785,7.209,7.2496,7.3003,7.368,7.4356,7.4492,7.4661,7.4999,7.5236,6.272,6.3107,6.3137,6.3137,6.3137,6.3137,6.3199,6.3438,6.3588,6.4126,6.5024,6.5413,6.6131,6.6909,6.6999,6.6999,6.6999,6.6999,6.6999,6.6999,6.6999,6.6999,6.6999,6.6939,6.655,6.6281,6.6101,6.5951,6.5173,6.4635,6.4066,6.3228,6.3887,6.4096,6.4395,6.5233,6.6191,6.667,6.6759,6.6161,6.5562,6.4994,6.4216,6.3378,6.3166,6.3137,6.3137,6.3137,6.2989,6.275,6.2181,6.1942,6.1792,6.1283,6.1343,6.1343,6.1463,6.1702,6.1942,6.1972,6.2181,6.2361,6.245,6.2301,6.2121,6.2091,6.2061,6.2061,6.2002,6.1942,6.1912,6.1882,6.1702,6.1553,6.1463,6.1373,6.1074,6.0715,6.0441,6.0082,6.0042,6.0092,6.0794,6.1696,6.2617,6.3768,6.4496,6.5049,6.6092,6.7083,6.8195,6.961,7.0589,7.1312,7.1312,7.1312,7.1312,7.1312,7.1312,7.1312,7.1312,7.1413,7.1481,7.165,7.1819,7.2225,7.2699,7.3206,7.3747,7.439,7.4864,7.5033,7.5168,7.5337,7.554,6.3137,6.3137,6.3137,6.3137,6.3137,6.3137,6.3408,6.3917,6.3468,6.3917,6.4994,6.5233,6.6011,6.6879,6.6999,6.6999,6.6999,6.6999,6.6999,6.6999,6.6999,6.6999,6.6999,6.6939,6.67,6.652,6.637,6.6191,6.5353,6.4904,6.4455,6.3258,6.4485,6.4844,6.4665,6.5682,6.643,6.661,6.6759,6.643,6.5533,6.4964,6.4455,6.3438,6.3139,6.3137,6.3166,6.3019,6.2869,6.248,6.2241,6.2061,6.1702,6.1523,6.1792,6.1972,6.2151,6.2361,6.263,6.272,6.281,6.3017,6.3137,6.2899,6.272,6.266,6.263,6.26,6.254,6.254,6.254,6.251,6.2391,6.2241,6.2151,6.2032,6.1822,6.1373,6.0835,6.0416,5.9927,6.0092,6.0661,6.1646,6.2144,6.2955,6.3533,6.3983,6.4706,6.5948,6.7418,6.8756,6.983,7.0712,7.1312,7.1312,7.1312,7.1312,7.1176,7.1312,7.1312,7.1481,7.1718,7.209,7.2496,7.2935,7.3409,7.3849,7.4255,7.4762,7.5202,7.554,7.5676,7.5676,7.5676,6.3137,6.3137,6.3137,6.3137,6.3137,6.3137,6.3438,6.3977,6.3857,6.4545,6.5682,6.6281,6.661,6.6909,6.6999,6.6999,6.6999,6.6999,6.6999,6.6999,6.6999,6.6999,6.6999,6.6969,6.6849,6.6879,6.6729,6.6311,6.5473,6.5263,6.4904,6.3528,6.4695,6.5353,6.4605,6.5742,6.664,6.655,6.6729,6.661,6.5922,6.5203,6.4605,6.3827,6.3468,6.3226,6.3228,6.3528,6.3588,6.3558,6.3558,6.3228,6.269,6.26,6.266,6.281,6.275,6.2899,6.2959,6.3137,6.3137,6.3137,6.3137,6.3137,6.3107,6.3137,6.3137,6.3137,6.3137,6.3137,6.3137,6.3049,6.3019,6.2899,6.278,6.263,6.248,6.1912,6.1313,6.0715,6.0086,6.0281,6.0803,6.1255,6.1796,6.2372,6.2891,6.3387,6.3678,6.4647,6.6224,6.759,6.881,6.9789,7.0448,7.0733,7.0456,7.0742,7.0729,7.0971,7.1244,7.1546,7.1879,7.2742,7.3308,7.3713,7.4018,7.4322,7.4728,7.5168,7.5371,7.5642,7.5676,7.5676,7.5676,6.3137,6.3137,6.3137,6.3137,6.3139,6.3378,6.3857,6.4425,6.4755,6.5473,6.6311,6.655,6.67,6.6939,6.6999,6.6999,6.6999,6.6999,6.6999,6.6999,6.6999,6.6999,6.6999,6.6999,6.6969,6.6969,6.661,6.6101,6.5503,6.5233,6.4755,6.3887,6.5024,6.5562,6.4784,6.6011,6.6819,6.652,6.6849,6.6729,6.6281,6.5562,6.4725,6.4036,6.3528,6.3288,6.3528,6.3857,6.3917,6.3857,6.3647,6.3677,6.3288,6.3139,6.3107,6.3107,6.3107,6.3137,6.3137,6.3137,6.3137,6.3137,6.3137,6.3137,6.3137,6.3137,6.3137,6.3137,6.3137,6.3137,6.3137,6.3107,6.3107,6.2989,6.2959,6.2899,6.266,6.2241,6.1852,6.1493,6.0864,6.0401,6.0714,6.0464,6.0871,6.0586,6.1277,6.2248,6.2681,6.3601,6.5103,6.639,6.759,6.8239,6.8699,6.9026,6.9124,6.9562,7.021,7.0557,7.0822,7.1489,7.208,7.2968,7.3723,7.439,7.4695,7.4674,7.5053,7.5473,7.5574,7.5676,7.5676,7.5676,7.5676,6.3137,6.3137,6.3137,6.3137,6.3169,6.3737,6.4366,6.5054,6.5682,6.6311,6.6819,6.643,6.655,6.6819,6.6999,6.6999,6.6999,6.6999,6.6999,6.6999,6.6999,6.6999,6.6999,6.6999,6.6999,6.6849,6.655,6.6131,6.5652,6.5443,6.5084,6.4455,6.4904,6.5682,6.5622,6.6191,6.6909,6.6849,6.6969,6.6999,6.646,6.5832,6.4994,6.4216,6.3617,6.3528,6.3827,6.4096,6.4126,6.4126,6.3947,6.3677,6.3498,6.3288,6.3169,6.3137,6.3137,6.3137,6.3137,6.3137,6.3137,6.3137,6.3137,6.3137,6.3137,6.3137,6.3137,6.3137,6.3137,6.3137,6.3137,6.3137,6.3137,6.3137,6.3137,6.3137,6.281,6.257,6.2361,6.2091,6.1553,6.095,6.0591,6.0321,6.0082,5.9668,5.9937,6.0655,6.1657,6.3001,6.4414,6.5382,6.6308,6.6805,6.7432,6.7933,6.8447,6.8844,6.9574,7.0015,7.0475,7.0974,7.1787,7.306,7.3836,7.397,7.4545,7.4713,7.5142,7.5532,7.5676,7.5676,7.5676,7.5676,7.5676,6.3137,6.3137,6.3137,6.3137,6.3169,6.3767,6.4395,6.5054,6.5742,6.637,6.6819,6.6909,6.6909,6.6999,6.6999,6.6999,6.6999,6.6999,6.6999,6.6999,6.6999,6.6999,6.6999,6.6999,6.6999,6.6879,6.667,6.6221,6.5742,6.5622,6.4934,6.3588,6.5203,6.5682,6.5383,6.6131,6.6999,6.6999,6.6999,6.6999,6.6819,6.6191,6.5562,6.4844,6.4216,6.4036,6.4096,6.4575,6.5084,6.5263,6.4904,6.4156,6.3617,6.3258,6.3109,6.3137,6.3137,6.3137,6.3137,6.3137,6.3137,6.3137,6.3137,6.3137,6.3137,6.3137,6.3137,6.3137,6.3137,6.3137,6.3137,6.3137,6.3137,6.3137,6.3137,6.3137,6.2959,6.2839,6.269,6.2421,6.2032,6.1493,6.1044,6.0954,6.1074,6.0894,6.1104,6.1822,6.257,6.3286,6.3942,6.4707,6.5467,6.6572,6.7642,6.7906,6.8288,6.8638,6.8893,6.9329,6.9809,7.0289,7.1258,7.2429,7.2639,7.2581,7.3276,7.4156,7.4736,7.503,7.5532,7.5676,7.5676,7.5676,7.5676]}]]